[[{"header":{"parameterUnit":"m.s-1","parameterCategory":1,"la1":30.6,"la2":28.766,"lo1":-90.7593,"lo2":-88.6598,"dy":0.0162,"dx":0.0183,"nx":116,"ny":114,"refTime":"2023-02-22T18:00:00:Z","depth":0,"parameterNumber":2,"parameterNumberName":"U-component_of_WINDS"},"data":[0.0,0.0,0.0,0.0,0.0,0.0,0.0,0.0,0.0,0.0,0.0,0.0,0.0,0.0,0.0,0.0,0.0,0.0,0.0,0.0,0.0,0.0,0.0,0.0,0.0,0.0,0.0,0.0,0.0,0.0,0.0,0.0,0.0,0.0,0.0,0.0,0.0,0.0,0.0,0.0,0.0,0.0,0.0,0.0,0.0,0.0,0.0,0.0,0.0,0.0,0.0,0.0,0.0,0.0,0.0,0.0,0.0,0.0,0.0,0.0,0.0,0.0,0.0,0.0,0.0,0.0,0.0,0.0,0.0,0.0,0.0,0.0,0.0,0.0,0.0,0.0,0.0,0.0,0.0,0.0,0.0,0.0,0.0,0.0,0.0,0.0,0.0,0.0,0.0,0.0,0.0,0.0,0.0,0.0,0.0,0.0,0.0,0.0,0.0,0.0,0.0,0.0,0.0,0.0,0.0,0.0,0.0,0.0,0.0,0.0,0.0,0.0,0.0,0.0,0.0,0.0,0.0,0.0,0.0,0.0,0.0,0.0,0.0,0.0,0.0,0.0,0.0,0.0,0.0,0.0,0.0,0.0,0.0,0.0,0.0,0.0,0.0,0.0,0.0,0.0,0.0,0.0,0.0,0.0,0.0,0.0,0.0,0.0,0.0,0.0,0.0,0.0,0.0,0.0,0.0,0.0,0.0,0.0,0.0,0.0,0.0,0.0,0.0,0.0,0.0,0.0,0.0,0.0,0.0,0.0,0.0,0.0,0.0,0.0,0.0,0.0,0.0,0.0,0.0,0.0,0.0,0.0,0.0,0.0,0.0,0.0,0.0,0.0,0.0,0.0,0.0,0.0,0.0,0.0,0.0,0.0,0.0,0.0,0.0,0.0,0.0,0.0,0.0,0.0,0.0,0.0,0.0,0.0,0.0,0.0,0.0,0.0,0.0,0.0,0.0,0.0,0.0,0.0,0.0,0.0,0.0,0.0,0.0,0.0,0.0,0.0,0.0,0.0,0.0,0.0,0.0,0.0,0.0,0.0,0.0,0.0,0.0,0.0,0.0,0.0,0.0,0.0,0.0,0.0,0.0,0.0,0.0,0.0,0.0,0.0,0.0,0.0,0.0,0.0,0.0,0.0,0.0,0.0,0.0,0.0,0.0,0.0,0.0,0.0,0.0,0.0,0.0,0.0,0.0,0.0,0.0,0.0,0.0,0.0,0.0,0.0,0.0,0.0,0.0,0.0,0.0,0.0,0.0,0.0,0.0,0.0,0.0,0.0,0.0,0.0,0.0,0.0,0.0,0.0,0.0,0.0,0.0,0.0,0.0,0.0,0.0,0.0,0.0,0.0,0.0,0.0,0.0,0.0,0.0,0.0,0.0,0.0,0.0,0.0,0.0,0.0,0.0,0.0,0.0,0.0,0.0,0.0,0.0,0.0,0.0,0.0,0.0,0.0,0.0,0.0,0.0,0.0,0.0,0.0,0.0,0.0,0.0,0.0,0.0,0.0,0.0,0.0,0.0,0.0,0.0,0.0,0.0,0.0,0.0,0.0,0.0,0.0,0.0,0.0,0.0,0.0,0.0,0.0,0.0,0.0,0.0,0.0,0.0,0.0,0.0,0.0,0.0,0.0,0.0,0.0,0.0,0.0,0.0,0.0,0.0,0.0,0.0,0.0,0.0,0.0,0.0,0.0,0.0,0.0,0.0,0.0,0.0,0.0,0.0,0.0,0.0,0.0,0.0,0.0,0.0,0.0,0.0,0.0,0.0,0.0,0.0,0.0,0.0,0.0,0.0,0.0,0.0,0.0,0.0,0.0,0.0,0.0,0.0,0.0,0.0,0.0,0.0,0.0,0.0,0.0,0.0,0.0,0.0,0.0,0.0,0.0,0.0,0.0,0.0,0.0,0.0,0.0,0.0,0.0,0.0,0.0,0.0,0.0,0.0,0.0,0.0,0.0,0.0,0.0,0.0,0.0,0.0,0.0,0.0,0.0,0.0,0.0,0.0,0.0,0.0,0.0,0.0,0.0,0.0,0.0,0.0,0.0,0.0,0.0,0.0,0.0,0.0,0.0,0.0,0.0,0.0,0.0,0.0,0.0,0.0,0.0,0.0,0.0,0.0,0.0,0.0,0.0,0.0,0.0,0.0,0.0,0.0,0.0,0.0,0.0,0.0,0.0,0.0,0.0,0.0,0.0,0.0,0.0,0.0,0.0,0.0,0.0,0.0,0.0,0.0,0.0,0.0,0.0,0.0,0.0,0.0,0.0,0.0,0.0,0.0,0.0,0.0,0.0,0.0,0.0,0.0,0.0,0.0,0.0,0.0,0.0,0.0,0.0,0.0,0.0,0.0,0.0,0.0,0.0,0.0,0.0,0.0,0.0,0.0,0.0,0.0,0.0,0.0,0.0,0.0,0.0,0.0,0.0,0.0,0.0,0.0,0.0,0.0,0.0,0.0,0.0,0.0,0.0,0.0,0.0,0.0,0.0,0.0,0.0,0.0,0.0,0.0,0.0,0.0,0.0,0.0,0.0,0.0,0.0,0.0,0.0,0.0,0.0,0.0,0.0,0.0,0.0,0.0,0.0,0.0,0.0,0.0,0.0,0.0,0.0,0.0,0.0,0.0,0.0,0.0,0.0,0.0,0.0,0.0,0.0,0.0,0.0,0.0,0.0,0.0,0.0,0.0,0.0,0.0,0.0,0.0,0.0,0.0,0.0,0.0,0.0,0.0,0.0,0.0,0.0,0.0,0.0,0.0,0.0,0.0,0.0,0.0,0.0,0.0,0.0,0.0,0.0,0.0,0.0,0.0,0.0,0.0,0.0,0.0,0.0,0.0,0.0,0.0,0.0,0.0,0.0,0.0,0.0,0.0,0.0,0.0,0.0,0.0,0.0,0.0,0.0,0.0,0.0,0.0,0.0,0.0,0.0,0.0,0.0,0.0,0.0,0.0,0.0,0.0,0.0,0.0,0.0,0.0,0.0,0.0,0.0,0.0,0.0,0.0,0.0,0.0,0.0,0.0,0.0,0.0,0.0,0.0,0.0,0.0,0.0,0.0,0.0,0.0,0.0,0.0,0.0,0.0,0.0,0.0,0.0,0.0,0.0,0.0,0.0,0.0,0.0,0.0,0.0,0.0,0.0,0.0,0.0,0.0,0.0,0.0,0.0,0.0,0.0,0.0,0.0,0.0,0.0,0.0,0.0,0.0,0.0,0.0,0.0,0.0,0.0,0.0,0.0,0.0,0.0,0.0,0.0,0.0,0.0,0.0,0.0,0.0,0.0,0.0,0.0,0.0,0.0,0.0,0.0,0.0,0.0,0.0,0.0,0.0,0.0,0.0,0.0,0.0,0.0,0.0,0.0,0.0,0.0,0.0,0.0,0.0,0.0,0.0,0.0,0.0,0.0,0.0,0.0,0.0,0.0,0.0,0.0,0.0,0.0,0.0,0.0,0.0,0.0,0.0,0.0,0.0,0.0,0.0,0.0,0.0,0.0,0.0,0.0,0.0,0.0,0.0,0.0,0.0,0.0,0.0,0.0,0.0,0.0,0.0,0.0,0.0,0.0,0.0,0.0,0.0,0.0,0.0,0.0,0.0,0.0,0.0,0.0,0.0,0.0,0.0,0.0,0.0,0.0,0.0,0.0,0.0,0.0,0.0,0.0,0.0,0.0,0.0,0.0,0.0,0.0,0.0,0.0,0.0,0.0,0.0,0.0,0.0,0.0,0.0,0.0,0.0,0.0,0.0,0.0,0.0,0.0,0.0,0.0,0.0,0.0,0.0,0.0,0.0,0.0,0.0,0.0,0.0,0.0,0.0,0.0,0.0,0.0,0.0,0.0,0.0,0.0,0.0,0.0,0.0,0.0,0.0,0.0,0.0,0.0,0.0,0.0,0.0,0.0,0.0,0.0,0.0,0.0,0.0,0.0,0.0,0.0,0.0,0.0,0.0,0.0,0.0,0.0,0.0,0.0,0.0,0.0,0.0,0.0,0.0,0.0,0.0,0.0,0.0,0.0,0.0,0.0,0.0,0.0,0.0,0.0,0.0,0.0,0.0,0.0,0.0,0.0,0.0,0.0,0.0,0.0,0.0,0.0,0.0,0.0,0.0,0.0,0.0,0.0,0.0,0.0,0.0,0.0,0.0,0.0,0.0,0.0,0.0,0.0,0.0,0.0,0.0,0.0,0.0,0.0,0.0,0.0,0.0,0.0,0.0,0.0,0.0,0.0,0.0,0.0,0.0,0.0,0.0,0.0,0.0,0.0,0.0,0.0,0.0,0.0,0.0,0.0,0.0,0.0,0.0,0.0,0.0,0.0,0.0,0.0,0.0,0.0,0.0,0.0,0.0,0.0,0.0,0.0,0.0,0.0,0.0,0.0,0.0,0.0,0.0,0.0,0.0,0.0,0.0,0.0,0.0,0.0,0.0,0.0,0.0,0.0,0.0,0.0,0.0,0.0,0.0,0.0,0.0,0.0,0.0,0.0,0.0,0.0,0.0,0.0,0.0,0.0,0.0,0.0,0.0,0.0,0.0,0.0,0.0,0.0,0.0,0.0,0.0,0.0,0.0,0.0,0.0,0.0,0.0,0.0,0.0,0.0,0.0,0.0,0.0,0.0,0.0,0.0,0.0,0.0,0.0,0.0,0.0,0.0,0.0,0.0,0.0,0.0,0.0,0.0,0.0,0.0,0.0,0.0,0.0,0.0,0.0,0.0,0.0,0.0,0.0,0.0,0.0,0.0,0.0,0.0,0.0,0.0,0.0,0.0,0.0,0.0,0.0,0.0,0.0,0.0,0.0,0.0,0.0,0.0,0.0,0.0,0.0,0.0,0.0,0.0,0.0,0.0,0.0,0.0,0.0,0.0,0.0,0.0,0.0,0.0,0.0,0.0,0.0,0.0,0.0,0.0,0.0,0.0,0.0,0.0,0.0,0.0,0.0,0.0,0.0,0.0,0.0,0.0,0.0,0.0,0.0,0.0,0.0,0.0,0.0,0.0,0.0,0.0,0.0,0.0,0.0,0.0,0.0,0.0,0.0,0.0,0.0,0.0,0.0,0.0,0.0,0.0,0.0,0.0,0.0,0.0,0.0,0.0,0.0,0.0,0.0,0.0,0.0,0.0,0.0,0.0,0.0,0.0,0.0,0.0,0.0,0.0,0.0,0.0,0.0,0.0,0.0,0.0,0.0,0.0,0.0,0.0,0.0,0.0,0.0,0.0,0.0,0.0,0.0,0.0,0.0,0.0,0.0,0.0,0.0,0.0,0.0,0.0,0.0,0.0,0.0,0.0,0.0,0.0,0.0,0.0,0.0,0.0,0.0,0.0,0.0,0.0,0.0,0.0,0.0,0.0,0.0,0.0,0.0,0.0,0.0,0.0,0.0,0.0,0.0,0.0,0.0,0.0,0.0,0.0,0.0,0.0,0.0,0.0,0.0,0.0,0.0,0.0,0.0,0.0,0.0,0.0,0.0,0.0,0.0,0.0,0.0,0.0,0.0,0.0,0.0,0.0,0.0,0.0,0.0,0.0,0.0,0.0,0.0,0.0,0.0,0.0,0.0,0.0,0.0,0.0,0.0,0.0,0.0,0.0,0.0,0.0,0.0,0.0,0.0,0.0,0.0,0.0,0.0,0.0,0.0,0.0,0.0,0.0,0.0,0.0,0.0,0.0,0.0,0.0,0.0,0.0,0.0,0.0,0.0,0.0,0.0,0.0,0.0,0.0,0.0,0.0,0.0,0.0,0.0,0.0,0.0,0.0,0.0,0.0,0.0,0.0,0.0,0.0,0.0,0.0,0.0,0.0,0.0,0.0,0.0,0.0,0.0,0.0,0.0,0.0,0.0,0.0,0.0,0.0,0.0,0.0,0.0,0.0,0.0,0.0,0.0,0.0,0.0,0.0,0.0,0.0,0.0,0.0,0.0,0.0,0.0,0.0,0.0,0.0,0.0,0.0,0.0,0.0,0.0,0.0,0.0,0.0,0.0,0.0,0.0,0.0,0.0,0.0,0.0,0.0,0.0,0.0,0.0,0.0,0.0,0.0,0.0,0.0,0.0,0.0,0.0,0.0,0.0,0.0,0.0,0.0,0.0,0.0,0.0,0.0,-1.865,0.0,0.0,0.0,0.0,0.0,0.0,0.0,0.0,0.0,0.0,0.0,0.0,0.0,0.0,0.0,0.0,0.0,0.0,0.0,0.0,0.0,0.0,0.0,0.0,0.0,0.0,0.0,0.0,0.0,0.0,0.0,0.0,0.0,0.0,0.0,0.0,0.0,0.0,0.0,0.0,0.0,0.0,0.0,0.0,0.0,0.0,0.0,0.0,0.0,0.0,0.0,0.0,0.0,0.0,0.0,0.0,0.0,0.0,0.0,0.0,0.0,0.0,0.0,0.0,0.0,0.0,0.0,0.0,0.0,0.0,0.0,0.0,0.0,0.0,0.0,0.0,0.0,0.0,0.0,0.0,0.0,0.0,0.0,0.0,0.0,0.0,0.0,0.0,0.0,0.0,0.0,0.0,0.0,0.0,0.0,0.0,0.0,0.0,0.0,0.0,0.0,0.0,0.0,0.0,0.0,0.0,0.0,0.0,0.0,0.0,0.0,0.0,0.0,0.0,0.0,0.0,-1.838,0.0,0.0,0.0,0.0,0.0,0.0,0.0,0.0,0.0,0.0,0.0,0.0,0.0,0.0,0.0,0.0,0.0,0.0,0.0,0.0,0.0,0.0,0.0,0.0,0.0,0.0,0.0,0.0,0.0,0.0,0.0,0.0,0.0,0.0,0.0,0.0,0.0,0.0,0.0,0.0,0.0,0.0,0.0,0.0,0.0,0.0,0.0,0.0,0.0,0.0,0.0,0.0,0.0,0.0,0.0,0.0,0.0,0.0,0.0,0.0,0.0,0.0,0.0,0.0,0.0,0.0,0.0,0.0,0.0,0.0,0.0,0.0,0.0,0.0,0.0,0.0,0.0,0.0,0.0,0.0,0.0,0.0,0.0,0.0,0.0,0.0,0.0,0.0,0.0,0.0,0.0,0.0,0.0,0.0,0.0,0.0,0.0,0.0,0.0,0.0,0.0,0.0,0.0,0.0,0.0,0.0,0.0,0.0,-1.8685,-1.8466,-1.8119,-1.8119,-1.7886,-1.7468,-1.7928,-1.7807,-1.7333,0.0,0.0,0.0,0.0,0.0,0.0,0.0,0.0,0.0,0.0,0.0,0.0,0.0,0.0,0.0,0.0,0.0,0.0,0.0,0.0,0.0,0.0,0.0,0.0,0.0,0.0,0.0,0.0,0.0,0.0,0.0,0.0,0.0,0.0,0.0,0.0,0.0,0.0,0.0,-1.9708,-1.9708,-1.9747,-1.9871,0.0,0.0,0.0,0.0,0.0,0.0,0.0,0.0,0.0,0.0,0.0,0.0,0.0,0.0,0.0,0.0,0.0,0.0,0.0,0.0,0.0,0.0,0.0,0.0,0.0,0.0,0.0,0.0,0.0,0.0,0.0,0.0,0.0,0.0,0.0,0.0,0.0,0.0,0.0,0.0,0.0,0.0,0.0,0.0,-1.9708,-1.9708,0.0,0.0,0.0,0.0,0.0,0.0,0.0,0.0,0.0,0.0,0.0,0.0,0.0,-1.8224,-1.8224,-1.7747,-1.7771,-1.8283,-1.7835,-1.7795,-1.8175,-1.8175,-1.8152,-1.8095,-1.8164,0.0,-1.7312,-1.7394,0.0,0.0,0.0,0.0,0.0,0.0,0.0,0.0,0.0,0.0,0.0,0.0,0.0,0.0,0.0,0.0,0.0,0.0,0.0,0.0,0.0,0.0,0.0,0.0,0.0,0.0,0.0,0.0,0.0,0.0,0.0,0.0,0.0,0.0,0.0,0.0,-1.9708,-1.9708,-1.9708,-1.9708,-1.9708,-1.9708,-1.9708,-1.9708,-1.9708,-1.9708,0.0,0.0,0.0,0.0,0.0,0.0,0.0,0.0,0.0,0.0,0.0,0.0,0.0,0.0,0.0,0.0,0.0,0.0,0.0,0.0,0.0,0.0,0.0,0.0,0.0,0.0,0.0,0.0,0.0,0.0,0.0,0.0,0.0,0.0,0.0,0.0,0.0,0.0,0.0,-1.9708,-1.9708,-1.9708,-1.9708,-1.9708,0.0,0.0,0.0,0.0,0.0,0.0,0.0,0.0,0.0,-1.7666,-1.7982,-1.8171,-1.8171,-1.8229,-1.8403,-1.8653,-1.8397,-1.8265,-1.8204,-1.8204,-1.8204,-1.8204,-1.8204,-1.8055,-1.7772,-1.7487,-1.7481,-1.7626,0.0,0.0,0.0,0.0,-1.6145,-1.5565,0.0,0.0,0.0,0.0,0.0,0.0,0.0,0.0,0.0,0.0,0.0,0.0,0.0,0.0,0.0,-2.0193,0.0,0.0,0.0,0.0,0.0,0.0,0.0,0.0,0.0,0.0,0.0,0.0,-1.9872,-1.9944,-1.9944,-2.0142,-2.0217,-2.0217,-2.0217,-2.0022,-1.9708,-1.9708,-1.9708,0.0,0.0,0.0,0.0,0.0,0.0,0.0,0.0,0.0,0.0,0.0,0.0,0.0,0.0,0.0,0.0,0.0,0.0,0.0,0.0,0.0,0.0,0.0,0.0,0.0,0.0,0.0,0.0,0.0,0.0,0.0,0.0,0.0,0.0,0.0,0.0,0.0,0.0,-1.9708,-1.9708,-1.9708,-1.9584,-1.9497,0.0,0.0,0.0,0.0,0.0,0.0,-1.8106,-1.828,-1.8106,-1.7561,-1.8109,-1.8368,-1.8204,-1.8611,-1.8861,-1.8993,-1.9136,-1.9078,-1.8844,-1.8982,-1.897,-1.8832,-1.8832,-1.8681,-1.8367,-1.7815,-1.7572,-1.7518,-1.7518,-1.7518,-1.7492,-1.7175,-1.6529,-1.5744,0.0,0.0,0.0,0.0,0.0,0.0,0.0,0.0,0.0,0.0,0.0,0.0,0.0,0.0,-2.0176,-1.9764,-1.9729,-1.9711,0.0,0.0,0.0,0.0,0.0,0.0,0.0,0.0,0.0,-1.9708,-2.0348,-2.0643,-2.0658,-2.1306,-2.159,-2.159,-2.159,-2.0887,-1.9708,-1.9708,-1.9708,-1.9708,0.0,0.0,0.0,0.0,0.0,0.0,0.0,0.0,0.0,0.0,0.0,0.0,0.0,0.0,0.0,0.0,0.0,0.0,0.0,0.0,0.0,0.0,0.0,0.0,0.0,0.0,0.0,0.0,0.0,0.0,0.0,0.0,0.0,0.0,0.0,0.0,0.0,0.0,0.0,-1.9708,-1.9244,0.0,0.0,0.0,0.0,-1.8145,-1.8125,-1.8126,-1.8186,-1.8747,-1.8771,-1.8161,-1.8751,-1.8787,-1.8201,-1.8239,-1.8492,-1.902,-1.951,-2.0064,-2.0591,-2.1106,-2.1069,-2.0566,-2.0566,-1.9949,-1.892,-1.8368,-1.8165,-1.814,-1.814,-1.814,-1.8017,-1.6877,-1.6417,-1.6114,0.0,0.0,0.0,0.0,0.0,0.0,0.0,0.0,0.0,0.0,0.0,0.0,0.0,-2.007,-1.9856,-1.9711,-1.9708,-1.9708,-1.9708,0.0,0.0,0.0,0.0,0.0,0.0,0.0,-2.0348,-2.0348,-2.1021,-2.1335,-2.135,-2.159,-2.1695,-2.1695,-2.1695,-2.1425,-2.0946,-2.0528,-2.0348,-2.0318,-1.9869,-1.9708,0.0,0.0,0.0,0.0,0.0,0.0,0.0,0.0,0.0,0.0,0.0,0.0,0.0,0.0,0.0,0.0,0.0,0.0,0.0,0.0,0.0,0.0,0.0,0.0,0.0,0.0,0.0,0.0,0.0,0.0,0.0,0.0,0.0,0.0,0.0,0.0,0.0,-1.8746,-1.9103,0.0,0.0,-1.9017,-1.8833,-1.9245,-1.8948,-1.874,-1.8768,-1.899,-1.8995,-1.878,-1.9364,-1.9769,-1.9945,-2.0238,-2.0693,-2.1303,-2.102,-2.1018,-2.1232,-2.1393,-2.1408,-2.1219,-2.1219,-2.0978,-2.0602,-2.0401,-1.9484,-1.8204,-1.8204,-1.8204,-1.8155,-1.7718,-1.7015,-1.6181,0.0,0.0,0.0,0.0,0.0,0.0,0.0,0.0,0.0,0.0,0.0,-2.0089,-2.0089,-1.9856,-1.9708,-1.9708,-1.9708,-1.9708,-1.9708,0.0,0.0,0.0,0.0,0.0,0.0,-2.0464,-2.0808,-2.1051,-2.171,-2.2044,-2.2044,-2.2248,-2.2338,-2.2338,-2.2338,-2.2338,-2.2293,-2.165,-2.1246,-2.0991,-2.0303,-2.0034,-2.0004,0.0,0.0,0.0,0.0,0.0,0.0,0.0,0.0,0.0,0.0,0.0,0.0,0.0,0.0,0.0,0.0,0.0,0.0,0.0,0.0,0.0,0.0,0.0,0.0,0.0,0.0,0.0,0.0,0.0,0.0,0.0,0.0,0.0,0.0,0.0,-1.9434,-1.8728,-1.9317,-1.9717,-1.96,-1.9462,-1.9436,-1.9617,-1.9297,-1.9278,-1.9683,-1.993,-2.0003,-1.9959,-2.0772,-2.1303,-2.1463,-2.1771,-2.2299,-2.2962,-2.2408,-2.2137,-2.2137,-2.2059,-2.1945,-2.1769,-2.1769,-2.1656,-2.1493,-2.1493,-2.0627,-1.9296,-1.9108,-1.892,-1.8731,-1.8543,-1.7922,-1.7045,0.0,0.0,0.0,0.0,0.0,0.0,0.0,0.0,0.0,0.0,-1.9929,-1.9708,-1.9708,-1.9708,-1.9708,-1.9708,-1.9708,-1.9708,-1.9708,-1.9708,0.0,0.0,0.0,0.0,-2.0718,-2.0748,-2.1081,-2.1724,-2.2403,-2.2733,-2.2763,-2.3355,-2.364,-2.3655,-2.3655,-2.3655,-2.3625,-2.3047,-2.2418,-2.1754,-2.1036,-2.0718,-2.0658,0.0,0.0,0.0,0.0,0.0,0.0,0.0,0.0,0.0,0.0,0.0,0.0,0.0,0.0,0.0,0.0,0.0,0.0,0.0,0.0,0.0,0.0,0.0,0.0,0.0,0.0,0.0,0.0,0.0,0.0,0.0,0.0,0.0,-1.9809,-1.9753,-1.9758,-1.9718,-1.9831,-1.9715,-1.9165,-1.9739,-1.9916,-1.9314,-1.9269,-1.9795,-2.0955,-2.1606,-2.1852,-2.1692,-2.2913,-2.3317,-2.2711,-2.2684,-2.3029,-2.3745,-2.3514,-2.338,-2.3365,-2.32,-2.2819,-2.2305,-2.2305,-2.2033,-2.1543,-2.1543,-2.1531,-2.1455,-2.093,-2.0377,-1.9798,-1.9271,-1.9046,-1.8759,0.0,0.0,0.0,0.0,0.0,0.0,0.0,0.0,0.0,0.0,-1.9764,-1.9708,-1.9708,-1.9708,-1.9708,-1.9708,-1.9708,-1.9708,-1.9708,0.0,0.0,0.0,0.0,0.0,-2.141,-2.1889,-2.2239,-2.2433,-2.3041,-2.3595,-2.4081,-2.4246,-2.4575,-2.5061,-2.5061,-2.5061,-2.5046,-2.4881,-2.4702,-2.4358,-2.2263,-2.1425,-2.1395,0.0,0.0,0.0,0.0,0.0,0.0,0.0,0.0,0.0,0.0,0.0,0.0,0.0,0.0,0.0,0.0,0.0,0.0,0.0,0.0,0.0,0.0,0.0,0.0,0.0,0.0,0.0,0.0,0.0,0.0,0.0,0.0,-2.0499,-1.9929,-2.0592,-2.0848,-2.0077,-2.0329,-2.0907,-2.1739,-2.1537,-2.1841,-2.3083,-2.3159,-2.3316,-2.3645,-2.3304,-2.3362,-2.3826,-2.3685,-2.3977,-2.4784,-2.421,-2.4244,-2.4928,-2.3749,-2.3183,-2.3196,-2.3122,-2.302,-2.2882,-2.2882,-2.2794,-2.2656,-2.2656,-2.2447,-2.2033,-2.1481,-2.1194,-2.1004,-2.0865,-2.0217,-1.9144,0.0,0.0,0.0,0.0,0.0,0.0,0.0,0.0,0.0,0.0,-1.9947,-1.9892,-1.9711,-1.9708,-1.9708,-1.9708,-1.9708,-1.9708,-1.9708,0.0,0.0,0.0,0.0,-2.144,-2.2104,-2.2508,-2.2957,-2.349,-2.3849,-2.435,-2.5023,-2.5023,-2.5217,-2.5615,-2.5615,-2.5615,-2.5615,-2.5615,-2.5615,-2.548,-2.3954,-2.2996,-2.2443,-2.1904,-2.1695,-2.1784,-2.2463,-2.2703,-2.2793,-2.3385,0.0,0.0,0.0,0.0,0.0,0.0,0.0,0.0,0.0,0.0,0.0,0.0,0.0,0.0,0.0,0.0,0.0,0.0,0.0,0.0,0.0,0.0,0.0,0.0,-2.1605,-2.152,-2.146,-2.1842,-2.1886,-2.1259,-2.1925,-2.2649,-2.3184,-2.3322,-2.3762,-2.4625,-2.4703,-2.4815,-2.5072,-2.4705,-2.4646,-2.5019,-2.4887,-2.5187,-2.596,-2.5528,-2.5472,-2.5837,-2.4625,-2.3901,-2.3603,-2.3245,-2.3108,0.0,-2.3108,-2.3108,-2.3108,-2.3108,-2.292,0.0,0.0,0.0,0.0,0.0,-2.1017,-2.0185,0.0,0.0,0.0,0.0,0.0,0.0,0.0,0.0,0.0,0.0,0.0,-2.0158,-1.9747,-1.9708,-1.9708,-1.9708,-1.9708,-1.9738,0.0,0.0,0.0,-2.0912,-2.15,-2.2164,-2.2897,-2.2912,-2.3505,-2.4709,-2.4709,-2.5053,-2.5719,-2.5719,-2.5749,-2.5839,-2.5839,-2.5839,-2.5839,-2.5839,-2.5839,-2.5824,-2.5749,-2.4956,-2.3684,-2.2488,-2.2024,-2.2099,-2.2628,-2.2808,-2.2882,-2.3415,0.0,0.0,0.0,0.0,0.0,0.0,0.0,0.0,0.0,0.0,0.0,0.0,0.0,0.0,0.0,0.0,0.0,0.0,0.0,0.0,0.0,0.0,0.0,0.0,-2.2463,-2.3047,-2.3729,-2.3436,-2.3111,-2.3039,-2.4023,-2.4521,-2.4053,-2.4966,-2.5435,-2.5068,-2.5033,-2.5253,-2.58,0.0,0.0,0.0,0.0,-2.6537,-2.6616,-2.6537,-2.651,-2.6484,-2.5673,-2.4922,-2.4263,-2.3484,-2.3108,-2.3108,-2.3108,-2.3108,-2.3108,-2.3108,-2.3108,-2.3058,-2.2569,-2.2108,-2.1669,-2.1606,-2.1581,-2.1484,0.0,0.0,0.0,0.0,0.0,0.0,0.0,0.0,0.0,-2.04,-2.0297,-2.0158,-1.9747,-1.9708,-1.9708,-1.9708,-1.9708,-1.9929,0.0,0.0,-2.1186,-2.2269,-2.2448,-2.3041,-2.4201,-2.4231,-2.4619,-2.5397,-2.5397,-2.5749,-2.6408,-2.6408,-2.6692,-2.721,-2.721,-2.721,-2.721,-2.721,-2.721,-2.7165,-2.6617,-2.5929,-2.5136,-2.4335,-2.4036,-2.3992,-2.3565,-2.343,-2.343,-2.3565,-2.3595,-2.3595,-2.3595,0.0,0.0,0.0,0.0,0.0,0.0,0.0,0.0,0.0,0.0,0.0,0.0,0.0,0.0,0.0,0.0,0.0,0.0,0.0,0.0,-2.3872,-2.3699,-2.3834,-2.5046,-2.558,-2.5643,-2.5084,-2.4838,-2.5068,-2.5953,-2.576,-2.6004,-2.6951,-2.7046,-2.7086,-2.7225,-2.6656,0.0,-2.7189,-2.6727,-2.6774,-2.7382,-2.68,-2.651,-2.6484,0.0,0.0,-2.4263,-2.3484,-2.3108,-2.3108,-2.3108,-2.3108,-2.3108,-2.3108,-2.3108,-2.3095,-2.2995,-2.2882,-2.2732,-2.2293,-2.2159,-2.1968,0.0,0.0,0.0,0.0,0.0,0.0,0.0,0.0,0.0,0.0,-2.0781,-2.0483,-2.0052,-1.9836,-1.9708,-1.9708,-1.9708,0.0,0.0,-2.1002,-2.165,-2.2658,-2.331,-2.3947,-2.459,-2.4933,-2.5435,-2.6093,-2.6093,-2.6437,-2.7106,-2.7106,-2.7285,-2.76,-2.76,-2.76,-2.76,-2.76,-2.76,-2.757,-2.724,-2.6911,-2.6482,-2.5472,-2.5098,-2.5008,-2.4335,-2.4096,-2.4059,-2.3714,-2.3595,-2.3595,-2.3595,-2.3595,-2.3595,0.0,0.0,0.0,0.0,0.0,0.0,0.0,0.0,0.0,0.0,0.0,0.0,0.0,0.0,-2.3699,0.0,0.0,-2.3984,-2.4933,-2.4814,-2.4956,-2.5959,-2.6378,-2.6467,-2.6138,-2.612,-2.6396,-2.7051,-2.6802,-2.6885,-2.7545,-2.76,-2.76,-2.76,-2.7255,-2.7229,-2.76,-2.7255,-2.7229,-2.76,-2.7229,-2.6878,-2.6484,-2.5755,-2.5203,-2.4851,-2.4439,-2.4047,-2.3708,-2.3708,-2.3484,-2.3108,-2.3108,-2.3108,-2.3108,-2.3108,-2.3108,-2.307,-2.2794,-2.2694,-2.2627,0.0,0.0,0.0,0.0,0.0,0.0,0.0,0.0,0.0,0.0,-2.1322,-2.0927,-2.0483,-2.0156,-1.9925,0.0,0.0,0.0,0.0,-2.1395,-2.2039,-2.2838,-2.3977,-2.4664,-2.4784,-2.5442,-2.6123,-2.6782,-2.6782,-2.7076,-2.76,-2.76,-2.76,-2.76,-2.76,-2.76,-2.76,-2.76,-2.76,-2.76,-2.76,-2.76,-2.748,-2.6393,-2.5839,-2.5501,-2.4844,-2.4515,-2.4321,-2.3789,-2.3595,-2.3595,-2.3595,-2.3595,-2.3595,-2.3595,-2.3595,0.0,0.0,0.0,0.0,0.0,0.0,0.0,0.0,0.0,-2.364,-2.3774,-2.3789,-2.4014,-2.4664,-2.4799,-2.5008,-2.5689,-2.5794,-2.6033,-2.6692,-2.6782,-2.6782,-2.6782,-2.727,-2.76,-2.76,-2.76,-2.76,-2.76,-2.76,-2.76,-2.76,-2.76,-2.76,-2.76,-2.76,-2.76,-2.76,-2.76,-2.7306,-2.6721,-2.6563,-2.6203,-2.5618,-2.5481,-2.5063,-2.4509,-2.4509,-2.4047,-2.3335,-2.3335,-2.3245,-2.3108,-2.3108,-2.3108,-2.3108,-2.3108,-2.3108,-2.3108,0.0,0.0,0.0,0.0,0.0,0.0,0.0,0.0,0.0,0.0,0.0,0.0,0.0,0.0,0.0,0.0,0.0,0.0,-2.15,-2.1665,-2.2233,-2.3445,-2.4201,-2.4874,-2.5495,-2.6153,-2.6821,-2.748,-2.748,-2.7525,-2.76,-2.76,-2.76,-2.76,-2.76,-2.76,-2.76,-2.76,-2.76,-2.76,-2.76,-2.76,-2.7585,-2.7435,-2.6632,-2.5501,-2.4844,-2.4216,-2.3699,-2.3625,-2.3595,-2.3595,-2.3595,-2.3595,-2.3595,-2.3595,0.0,-2.3595,-2.3595,-2.3595,-2.3595,-2.3595,-2.3595,-2.3595,0.0,0.0,-2.3774,-2.4365,-2.4485,-2.4694,-2.5352,-2.5495,-2.5719,-2.6378,-2.6482,-2.6707,-2.739,-2.748,-2.748,-2.748,-2.754,-2.76,-2.76,-2.76,-2.76,-2.76,-2.76,-2.76,-2.76,-2.76,-2.76,-2.76,-2.76,-2.76,-2.76,-2.76,-2.7575,-2.7458,-2.68,-2.6457,-2.6336,-2.5701,-2.5342,-2.5287,-2.5287,-2.4838,-2.4176,-2.4176,-2.3738,-2.3108,-2.3108,-2.3108,-2.3108,-2.3108,-2.3108,-2.3108,0.0,0.0,0.0,0.0,0.0,0.0,0.0,0.0,0.0,0.0,0.0,0.0,0.0,0.0,0.0,0.0,0.0,0.0,-2.1625,-2.1695,-2.2263,-2.3535,-2.4627,-2.5307,-2.5576,-2.6632,-2.733,-2.76,-2.76,-2.76,-2.76,-2.76,-2.76,-2.76,-2.76,-2.76,-2.76,-2.76,-2.76,-2.76,-2.76,-2.76,-2.7555,-2.7165,-2.6422,-2.557,-2.5277,-2.4739,0.0,0.0,-2.3595,-2.3595,-2.3595,-2.3595,-2.3595,-2.3595,-2.3595,0.0,-2.3595,-2.3595,0.0,0.0,-2.3894,-2.4171,-2.4171,-2.447,-2.4852,-2.5113,-2.5173,-2.5382,-2.6063,-2.6183,-2.6393,0.0,-2.718,-2.7285,-2.7555,-2.76,-2.76,-2.76,-2.76,-2.76,-2.76,-2.76,-2.76,-2.76,-2.76,-2.76,-2.76,-2.76,-2.76,-2.76,-2.76,-2.76,-2.76,-2.76,-2.7809,-2.8173,-2.7873,-2.7933,-2.8287,-2.7975,-2.759,-2.7116,-2.6216,-2.588,-2.6042,-2.6042,-2.5584,-2.484,-2.484,-2.4558,-2.401,-2.3346,-2.3108,-2.3108,0.0,0.0,0.0,0.0,0.0,0.0,0.0,0.0,0.0,0.0,0.0,0.0,0.0,0.0,0.0,0.0,0.0,0.0,0.0,-2.1605,-2.2188,-2.3295,-2.4627,0.0,-2.5307,-2.6632,-2.733,-2.733,-2.751,-2.76,-2.76,-2.76,-2.76,-2.76,-2.76,-2.76,-2.76,-2.76,-2.76,-2.76,-2.76,-2.748,-2.727,-2.6767,-2.6078,-2.5307,-2.5307,-2.4889,0.0,0.0,-2.3595,-2.3595,-2.3595,-2.3595,-2.3595,-2.3595,-2.3595,-2.364,-2.3834,0.0,0.0,-2.4103,-2.4515,-2.4874,-2.4874,-2.5247,-2.5659,-2.5839,-2.5884,-2.6078,-2.6761,-2.6881,0.0,-2.7525,-2.76,-2.76,-2.76,-2.76,-2.76,-2.76,-2.76,-2.76,-2.76,-2.76,-2.76,-2.76,-2.76,-2.76,-2.76,-2.76,-2.76,-2.76,-2.7779,-2.7884,-2.7884,-2.8064,-2.8408,-2.8876,-2.8876,-2.9116,-2.9606,-2.9606,-2.929,-2.8678,-2.7547,-2.7268,-2.7592,-2.7372,-2.6821,-2.6069,-2.5834,-2.5358,-2.4687,-2.3873,-2.3471,-2.3321,0.0,0.0,0.0,0.0,0.0,0.0,0.0,0.0,0.0,0.0,0.0,0.0,0.0,0.0,0.0,0.0,0.0,0.0,0.0,-2.1335,-2.1994,-2.2703,-2.3947,-2.4634,-2.4634,-2.5944,-2.6641,-2.6641,-2.7285,-2.76,-2.76,-2.76,-2.76,-2.76,-2.76,-2.76,-2.76,-2.76,-2.76,-2.76,-2.76,-2.721,-2.6641,-2.6602,-2.5779,-2.4634,-2.4634,0.0,0.0,0.0,-2.3595,-2.3595,-2.3595,-2.3595,0.0,-2.3595,-2.3595,0.0,0.0,0.0,-2.4724,-2.5367,-2.5555,-2.5561,-2.5561,-2.56,-2.5794,-2.6437,-2.6557,-2.6752,-2.745,-2.757,-2.757,-2.76,-2.76,-2.76,-2.76,-2.76,-2.76,-2.76,-2.76,-2.76,0.0,-2.76,-2.76,-2.76,-2.76,-2.76,-2.76,-2.76,-2.76,-2.76,-2.8218,-2.8562,-2.8562,-2.9205,-2.9562,-2.9577,-2.9577,-2.9592,-2.9606,-2.9606,-2.9579,-2.9552,-2.9525,-2.9055,-2.8311,-2.7517,-2.6788,-2.6008,-2.518,-2.482,-2.4788,-2.475,-2.4431,-2.3891,0.0,0.0,0.0,0.0,0.0,0.0,0.0,0.0,0.0,0.0,0.0,0.0,0.0,0.0,0.0,0.0,0.0,0.0,0.0,-2.1782,-2.2423,-2.358,-2.4463,-2.4999,-2.5135,-2.6,-2.6289,-2.5944,-2.6153,-2.6449,-2.6795,-2.7309,-2.7524,-2.7483,-2.7975,-2.7968,-2.758,-2.7522,-2.7468,-2.7446,-2.7379,-2.721,-2.6901,-2.6111,-2.5737,-2.555,0.0,0.0,0.0,0.0,0.0,0.0,-2.4012,0.0,0.0,-2.4137,0.0,0.0,0.0,0.0,-2.5307,-2.5555,-2.5929,-2.6258,-2.6258,-2.6602,-2.7001,-2.7225,-2.727,-2.733,-2.7555,-2.76,-2.76,-2.76,-2.76,-2.76,-2.76,-2.76,-2.76,-2.76,-2.76,0.0,0.0,0.0,0.0,-2.76,-2.76,-2.76,-2.76,-2.76,-2.7809,-2.8233,-2.8472,-2.8801,-2.925,-2.9502,-2.9789,-3.0193,-3.0657,-3.0853,-3.0853,-3.0322,-3.0351,-3.0824,-3.0293,-3.0221,-3.0423,-3.0148,-2.9605,-2.8855,-2.8549,-2.775,-2.6674,-2.6317,-2.5717,-2.4933,0.0,0.0,0.0,0.0,0.0,0.0,0.0,0.0,0.0,0.0,0.0,0.0,0.0,0.0,0.0,0.0,0.0,0.0,0.0,0.0,-2.3199,-2.4092,-2.4777,-2.5191,-2.5326,-2.5973,-2.6159,-2.58,-2.6045,-2.6355,-2.6686,-2.7167,-2.7371,-2.7357,-2.7833,-2.7829,-2.7447,-2.7371,-2.7342,-2.7317,-2.7226,-2.7062,-2.675,-2.5974,-2.5746,0.0,0.0,0.0,0.0,0.0,0.0,0.0,0.0,0.0,0.0,0.0,0.0,0.0,0.0,-2.5778,-2.6066,-2.6514,-2.6787,-2.7079,-2.7507,-2.7771,-2.7993,-2.8198,-2.8231,-2.8231,-2.8231,-2.8067,-2.7993,-2.8222,-2.787,-2.7675,-2.7894,-2.7735,-2.76,-2.76,-2.76,0.0,0.0,0.0,0.0,-2.76,-2.76,-2.76,-2.76,-2.7824,-2.8143,-2.8592,-2.9041,-2.949,-2.9909,-3.0163,-3.0477,-3.0853,-3.1286,-3.1511,-3.1467,-3.097,-3.0999,-3.1467,-3.097,-3.1029,-3.1467,-3.119,-3.0777,-3.0269,-2.995,-2.916,-2.8128,-2.7784,-2.7298,-2.6557,0.0,0.0,0.0,0.0,0.0,0.0,0.0,0.0,0.0,0.0,0.0,0.0,0.0,0.0,0.0,0.0,0.0,0.0,0.0,0.0,0.0,-2.4255,-2.4879,-2.5246,-2.524,-2.5854,-2.6182,-2.6162,-2.6775,-2.711,-2.7131,-2.7184,-2.7179,-2.7179,-2.7232,-2.7243,-2.7201,-2.7195,-2.7179,-2.7179,-2.7189,-2.6794,-2.6222,-2.6202,0.0,0.0,0.0,0.0,0.0,0.0,0.0,0.0,0.0,0.0,0.0,0.0,0.0,-2.5874,-2.7117,-2.7084,-2.7001,-2.8189,-2.8042,-2.7919,-2.9134,-2.8927,-2.8662,-2.9271,-2.9406,-2.9406,0.0,0.0,-2.8685,-2.9293,-2.8424,-2.786,-2.8463,-2.8018,-2.766,0.0,0.0,0.0,0.0,0.0,0.0,-2.7695,0.0,-2.7645,-2.7645,-2.8304,-2.8667,-2.8697,-2.9879,-3.0522,-3.0552,-3.1182,-3.1511,-3.1511,-3.1511,-3.1511,-3.1511,-3.1511,-3.1511,-3.1511,-3.1511,-3.1511,-3.1438,-3.0673,-3.0359,-3.0269,-2.9442,-2.9097,-2.9066,-2.9066,-2.9034,-2.8616,0.0,0.0,0.0,0.0,0.0,0.0,0.0,0.0,0.0,0.0,0.0,0.0,0.0,0.0,0.0,0.0,0.0,0.0,0.0,0.0,0.0,0.0,0.0,0.0,0.0,0.0,0.0,0.0,0.0,-2.5902,-2.6316,-2.6872,-2.7062,0.0,-2.7613,-2.762,-2.7174,-2.7037,-2.6968,-2.6958,0.0,-2.6731,-2.6528,0.0,0.0,0.0,0.0,0.0,0.0,0.0,0.0,0.0,0.0,0.0,-2.6479,0.0,0.0,-2.8035,-2.7079,-2.7403,-2.808,-2.8432,-2.8042,-2.7919,-2.9134,-2.8927,-2.8662,-2.9271,-2.9406,-2.9406,0.0,0.0,0.0,-2.9293,-2.8764,0.0,-2.9088,-2.8638,0.0,0.0,0.0,-2.7944,-2.8857,-2.8574,0.0,0.0,-2.8591,-2.8338,-2.8338,-2.8966,-2.9549,-2.9998,-3.0328,-3.0746,-3.1241,-3.1406,-3.1511,-3.1511,-3.1511,-3.1511,-3.1511,-3.1511,-3.1511,-3.1511,-3.1511,-3.1511,-3.1467,-3.1278,-3.119,-3.1161,-3.097,-3.0494,-2.9981,-2.9981,-2.9566,-2.8898,0.0,0.0,0.0,0.0,0.0,0.0,0.0,0.0,0.0,0.0,0.0,0.0,0.0,0.0,0.0,0.0,0.0,0.0,0.0,0.0,0.0,0.0,0.0,0.0,0.0,0.0,0.0,0.0,0.0,0.0,0.0,-2.6731,-2.6896,-2.6825,-2.7276,-2.7292,-2.6959,0.0,0.0,0.0,0.0,0.0,0.0,0.0,0.0,0.0,0.0,0.0,0.0,0.0,0.0,-2.4776,-2.5028,-2.6007,-2.7092,-2.6999,0.0,-2.8656,-2.8015,-2.7955,-2.8222,-2.8756,-2.8247,-2.8052,-2.9805,-2.9518,-2.9134,-3.0016,-3.0187,0.0,0.0,0.0,0.0,0.0,0.0,0.0,-2.9717,-2.9271,-2.9029,0.0,-2.9122,0.0,-2.9856,-2.9635,-2.9618,0.0,-2.9416,-2.9026,-2.9026,-2.9639,-3.0148,-3.0492,-3.0806,-3.1122,-3.1511,-3.1511,-3.1511,-3.1511,-3.1511,-3.1511,-3.1511,-3.1511,-3.1511,-3.1511,0.0,-3.1511,-3.1511,-3.1511,-3.1511,-3.1511,-3.1511,-3.1219,-3.0837,-3.0837,-3.0524,-3.0103,0.0,0.0,0.0,0.0,0.0,0.0,0.0,0.0,0.0,0.0,0.0,0.0,0.0,0.0,0.0,0.0,0.0,0.0,0.0,0.0,0.0,0.0,0.0,0.0,0.0,0.0,0.0,0.0,0.0,0.0,0.0,0.0,0.0,0.0,0.0,0.0,0.0,0.0,0.0,0.0,0.0,0.0,0.0,0.0,0.0,0.0,0.0,0.0,0.0,0.0,-2.5221,-2.5182,-2.5726,-2.6482,-2.7347,-2.8461,-2.8672,-2.8666,-2.9157,-2.8551,-2.8076,-2.9134,-2.8599,-2.8432,-3.0699,-3.033,-2.981,-3.0841,0.0,0.0,-3.1055,0.0,-3.0381,-3.1095,0.0,-2.9739,-3.0335,-2.9892,-2.9594,-2.9839,-3.0243,-3.0632,-3.0935,-3.0816,-3.0777,-3.0853,-3.0213,-2.9804,-2.9726,-3.0298,-3.0642,-3.0642,-3.1197,-3.1511,-3.1511,-3.1511,-3.1511,-3.1511,-3.1511,-3.1511,-3.1511,-3.1511,-3.1511,-3.1511,0.0,0.0,-3.1511,-3.1511,-3.1511,-3.1511,-3.1511,-3.1511,-3.1511,-3.1511,-3.1511,-3.1511,0.0,0.0,0.0,0.0,0.0,0.0,0.0,0.0,0.0,0.0,-2.6691,-2.6691,0.0,0.0,0.0,0.0,0.0,0.0,0.0,0.0,0.0,0.0,0.0,0.0,0.0,0.0,0.0,0.0,0.0,0.0,0.0,0.0,0.0,0.0,0.0,0.0,0.0,0.0,0.0,0.0,0.0,0.0,0.0,0.0,0.0,0.0,0.0,0.0,0.0,0.0,-2.5278,-2.4617,-2.5182,-2.626,-2.7385,-2.7551,-2.8709,-2.9751,-2.8888,-2.8873,-2.9134,-2.9361,-2.9248,-2.9473,-3.0878,-3.0658,0.0,0.0,0.0,-3.0294,-3.0294,-2.9799,0.0,-3.0993,0.0,0.0,0.0,0.0,-3.0556,0.0,0.0,0.0,0.0,0.0,0.0,0.0,0.0,-3.0913,-3.0372,-3.0957,-3.1331,-3.1331,-3.1451,-3.1511,-3.1511,-3.1511,-3.1511,-3.1511,-3.1511,-3.1511,-3.1511,-3.1511,-3.1511,-3.1511,-3.1511,0.0,-3.1511,-3.1511,-3.1511,-3.1511,-3.1511,-3.1511,-3.1511,-3.1511,-3.1511,-3.1511,0.0,0.0,0.0,0.0,0.0,0.0,0.0,-2.6691,-2.6691,-2.6691,-2.6691,-2.6691,-2.6691,-2.6691,0.0,0.0,0.0,0.0,0.0,0.0,0.0,0.0,0.0,0.0,0.0,0.0,0.0,0.0,0.0,0.0,0.0,0.0,0.0,0.0,0.0,0.0,0.0,0.0,0.0,0.0,0.0,0.0,0.0,0.0,0.0,0.0,0.0,0.0,0.0,0.0,-2.5872,-2.5278,-2.554,-2.6629,-2.7865,-2.8099,-2.9193,-3.0166,-2.9585,-2.9429,-2.9473,-2.9783,-2.9629,-2.9717,-3.0918,0.0,0.0,0.0,0.0,-3.0108,-3.0108,0.0,0.0,0.0,0.0,0.0,0.0,0.0,0.0,0.0,0.0,0.0,0.0,0.0,0.0,0.0,0.0,-3.1361,-3.1032,-3.1331,-3.1511,-3.1511,-3.1511,-3.1511,-3.1511,-3.1511,-3.1511,-3.1511,-3.1511,-3.1511,-3.1511,-3.1511,-3.1511,-3.1511,-3.1511,0.0,-3.1511,-3.1511,-3.1511,-3.1511,-3.1511,-3.1511,-3.1511,-3.1511,-3.1511,-3.1511,0.0,0.0,0.0,0.0,0.0,0.0,0.0,-2.6691,-2.6691,-2.6691,-2.6691,-2.6691,-2.6691,-2.6691,-2.6691,0.0,0.0,0.0,0.0,0.0,0.0,0.0,0.0,0.0,0.0,0.0,0.0,0.0,0.0,0.0,0.0,0.0,0.0,0.0,0.0,0.0,0.0,0.0,0.0,0.0,0.0,0.0,0.0,0.0,0.0,0.0,0.0,0.0,0.0,0.0,-2.6453,-2.6156,-2.6156,-2.7096,-2.831,-2.8848,-2.9624,-3.0293,-3.0293,-2.9935,-2.9695,-3.0187,-3.0043,-3.0021,-3.0995,-3.0721,0.0,0.0,0.0,0.0,0.0,0.0,0.0,0.0,0.0,0.0,0.0,0.0,0.0,0.0,0.0,0.0,0.0,0.0,0.0,0.0,0.0,0.0,-3.1511,-3.1511,-3.1511,-3.1511,-3.1511,-3.1511,-3.1511,-3.1511,-3.1511,-3.1511,-3.1511,-3.1511,-3.1511,-3.1511,-3.1511,-3.1511,-3.1511,0.0,0.0,-3.1511,-3.1511,-3.1511,-3.1511,-3.1511,-3.1511,-3.1511,-3.1511,-3.1511,0.0,0.0,0.0,0.0,0.0,0.0,0.0,-2.6691,-2.6691,-2.6691,-2.6691,-2.6691,-2.6691,-2.6691,-2.6691,0.0,0.0,0.0,0.0,0.0,0.0,0.0,0.0,0.0,0.0,0.0,0.0,0.0,0.0,0.0,0.0,0.0,0.0,0.0,0.0,0.0,0.0,0.0,0.0,0.0,0.0,0.0,0.0,0.0,0.0,0.0,0.0,0.0,0.0,0.0,0.0,-2.6641,-2.6641,-2.7352,-2.831,-2.8848,0.0,0.0,-3.0293,-3.0251,-3.023,-3.0293,-3.0679,-3.1055,-3.1171,0.0,0.0,0.0,-2.8518,-2.801,0.0,0.0,0.0,0.0,0.0,0.0,0.0,0.0,0.0,0.0,0.0,0.0,0.0,0.0,0.0,0.0,0.0,0.0,-3.1511,-3.1511,-3.1511,-3.1511,-3.1511,-3.1511,-3.1511,-3.1511,-3.1511,-3.1511,-3.1511,-3.1511,-3.1511,-3.1511,-3.1511,-3.1511,-3.1511,0.0,0.0,-3.1511,-3.1511,-3.1511,-3.1511,-3.1511,-3.1511,-3.1511,-3.1511,-3.1511,0.0,0.0,0.0,0.0,0.0,0.0,-2.6691,-2.6691,-2.6691,-2.6691,-2.6691,-2.6691,-2.6691,-2.6691,-2.6691,0.0,0.0,0.0,0.0,0.0,0.0,0.0,0.0,0.0,0.0,0.0,0.0,0.0,0.0,0.0,0.0,0.0,0.0,0.0,0.0,0.0,0.0,0.0,0.0,0.0,0.0,0.0,0.0,0.0,0.0,0.0,0.0,0.0,0.0,0.0,0.0,0.0,-2.6691,-2.728,0.0,0.0,-2.957,-3.0189,-3.0278,-3.0576,-3.074,-3.0393,-3.074,-3.119,-3.119,0.0,0.0,-2.9162,-2.8366,-2.7807,-2.7807,0.0,0.0,0.0,0.0,0.0,0.0,0.0,0.0,0.0,0.0,0.0,0.0,0.0,0.0,0.0,0.0,0.0,-3.1511,-3.1511,-3.1511,-3.1511,-3.1511,-3.1511,-3.1511,-3.1511,-3.1511,-3.1511,-3.1511,-3.1511,-3.1511,-3.1511,-3.1511,-3.1511,-3.1511,0.0,0.0,-3.1511,-3.1511,-3.1511,-3.1511,-3.1511,-3.1511,-3.1511,-3.1511,-3.1511,0.0,0.0,0.0,0.0,0.0,-2.6691,-2.6691,-2.6691,-2.6691,-2.6691,-2.6691,-2.6691,-2.6691,-2.6691,-2.6691,-2.6691,0.0,0.0,0.0,0.0,0.0,0.0,0.0,0.0,0.0,0.0,0.0,0.0,0.0,0.0,0.0,0.0,0.0,0.0,0.0,0.0,0.0,0.0,0.0,0.0,0.0,0.0,0.0,0.0,0.0,0.0,0.0,0.0,0.0,0.0,0.0,0.0,0.0,0.0,0.0,0.0,-2.9201,-2.9886,-3.0168,-3.059,-3.0878,-3.0638,-3.0711,-3.0869,0.0,0.0,-2.9279,-2.8738,-2.8027,-2.7469,-2.7469,0.0,0.0,0.0,0.0,0.0,0.0,0.0,0.0,0.0,0.0,0.0,0.0,0.0,0.0,0.0,0.0,0.0,0.0,-3.1511,-3.1511,-3.1511,-3.1511,-3.1511,-3.1511,-3.1511,-3.1511,-3.1511,-3.1511,-3.1511,-3.1511,-3.1511,-3.1511,-3.1511,0.0,0.0,0.0,-3.1511,-3.1511,-3.1511,-3.1511,-3.1511,-3.1511,-3.1511,-3.1511,-3.1511,0.0,0.0,0.0,0.0,0.0,0.0,-2.6691,-2.6691,-2.6691,-2.6691,-2.6691,-2.6691,-2.6691,-2.6691,-2.6691,-2.6691,0.0,0.0,0.0,0.0,0.0,0.0,0.0,0.0,0.0,0.0,-2.6691,-2.6691,-2.6691,0.0,0.0,0.0,0.0,0.0,0.0,0.0,0.0,0.0,0.0,0.0,0.0,0.0,0.0,0.0,0.0,0.0,0.0,0.0,0.0,0.0,0.0,0.0,0.0,0.0,0.0,0.0,-2.8486,-2.9343,-2.9938,-3.0206,-3.0456,-3.1035,-3.0649,-3.0106,0.0,0.0,-2.7824,-2.7824,-2.7232,-2.6708,-2.6708,0.0,0.0,0.0,0.0,0.0,0.0,0.0,0.0,0.0,0.0,0.0,0.0,0.0,0.0,0.0,0.0,0.0,0.0,-3.1511,-3.1511,-3.1511,-3.1511,-3.1511,-3.1511,-3.1511,-3.1511,-3.1511,-3.1511,-3.1511,-3.1511,-3.1511,-3.1511,0.0,0.0,0.0,0.0,-3.1511,-3.1511,-3.1511,-3.1511,-3.1511,-3.1511,-3.1511,-3.1511,-3.1511,0.0,0.0,0.0,0.0,0.0,0.0,0.0,-2.6691,-2.6691,-2.6691,-2.6691,-2.6691,-2.6691,-2.6691,-2.6691,-2.6691,0.0,0.0,0.0,0.0,0.0,0.0,0.0,0.0,0.0,0.0,-2.6691,-2.6691,-2.6691,-2.6691,-2.6691,0.0,0.0,0.0,0.0,0.0,0.0,0.0,0.0,0.0,0.0,0.0,0.0,0.0,0.0,0.0,0.0,0.0,0.0,0.0,0.0,0.0,0.0,0.0,0.0,0.0,0.0,0.0,-2.8638,-2.9068,-2.9367,-2.9157,-2.9219,-2.9365,-2.9365,0.0,-2.7807,-2.7807,-2.7198,-2.6691,-2.6691,0.0,0.0,0.0,0.0,0.0,0.0,0.0,0.0,0.0,0.0,0.0,0.0,0.0,0.0,0.0,0.0,0.0,0.0,-3.1511,-3.1511,-3.1511,-3.1511,-3.1511,-3.1511,-3.1511,-3.1511,-3.1511,-3.1511,-3.1511,-3.1511,-3.1511,0.0,0.0,0.0,0.0,0.0,-3.1511,-3.1511,-3.1511,-3.1511,-3.178,-3.2168,-3.2168,-3.2452,-3.2871,0.0,0.0,0.0,0.0,0.0,0.0,0.0,-2.6691,-2.6691,-2.6691,-2.6691,-2.6691,-2.6691,-2.6691,-2.6691,-2.6691,0.0,0.0,0.0,0.0,0.0,0.0,0.0,0.0,0.0,-2.6691,-2.6691,-2.6691,-2.6691,-2.6691,-2.6691,-2.6691,-2.6691,0.0,0.0,0.0,0.0,0.0,0.0,0.0,0.0,0.0,-2.6401,0.0,0.0,0.0,0.0,0.0,0.0,0.0,0.0,0.0,0.0,0.0,0.0,0.0,0.0,0.0,0.0,-2.8333,-2.8626,-2.8477,-2.8483,0.0,0.0,0.0,0.0,-2.7384,-2.7012,-2.6691,0.0,0.0,0.0,0.0,0.0,0.0,0.0,0.0,0.0,0.0,0.0,0.0,0.0,0.0,0.0,0.0,0.0,0.0,0.0,-3.1511,-3.1511,-3.1511,-3.1511,-3.1511,-3.1511,-3.1511,-3.1511,-3.1511,-3.1511,-3.1511,-3.1511,-3.1511,0.0,0.0,0.0,0.0,0.0,-3.1511,-3.1511,-3.1525,-3.178,-3.2123,-3.2542,-3.2796,-3.314,-3.3499,0.0,0.0,0.0,0.0,0.0,0.0,0.0,0.0,-2.6691,-2.6691,-2.6674,-2.6657,-2.6657,-2.6657,-2.6657,-2.6657,0.0,0.0,0.0,0.0,0.0,0.0,0.0,0.0,-2.6691,-2.6691,-2.6691,-2.6691,-2.6691,-2.6674,-2.6657,-2.6657,-2.6641,-2.6573,-2.6139,-2.5924,-2.5852,-2.5354,-2.5144,-2.5144,-2.5144,-2.5449,0.0,0.0,0.0,0.0,0.0,0.0,0.0,0.0,0.0,0.0,0.0,0.0,0.0,0.0,0.0,0.0,0.0,0.0,0.0,0.0,0.0,0.0,0.0,0.0,0.0,0.0,0.0,0.0,0.0,0.0,0.0,0.0,0.0,0.0,0.0,0.0,0.0,0.0,0.0,0.0,0.0,0.0,0.0,0.0,0.0,0.0,0.0,-3.1553,-3.1553,-3.1511,-3.1511,-3.1511,-3.1511,-3.1511,-3.1511,-3.1511,-3.1511,-3.1511,-3.1511,-3.1511,0.0,0.0,0.0,0.0,0.0,-3.1511,-3.1511,-3.157,-3.2228,-3.2542,-3.2662,-3.332,-3.3589,-3.3634,0.0,0.0,0.0,0.0,0.0,0.0,0.0,0.0,0.0,0.0,-2.6384,-2.6157,-2.6157,-2.6157,-2.6157,0.0,0.0,0.0,0.0,0.0,0.0,0.0,0.0,0.0,-2.6691,-2.6691,-2.6691,-2.6691,-2.6691,-2.6521,-2.6157,-2.6157,-2.5961,-2.5561,-2.5449,-2.5163,-2.4756,-2.4652,-2.4592,-2.4592,-2.4592,-2.491,0.0,0.0,0.0,0.0,-2.524,-2.554,0.0,0.0,0.0,0.0,0.0,0.0,0.0,0.0,-2.6691,0.0,0.0,0.0,0.0,0.0,0.0,0.0,0.0,0.0,0.0,0.0,0.0,0.0,0.0,0.0,0.0,0.0,0.0,0.0,0.0,0.0,0.0,0.0,0.0,0.0,0.0,0.0,0.0,0.0,0.0,0.0,0.0,-3.2035,-3.2092,-3.1511,-3.1511,-3.1511,-3.1511,-3.1511,-3.1511,-3.1511,-3.1511,-3.1511,-3.1511,-3.1511,0.0,0.0,0.0,0.0,-3.1511,-3.1511,-3.1511,-3.157,-3.2228,-3.2826,-3.335,-3.4039,-3.4577,-3.504,0.0,0.0,0.0,0.0,0.0,0.0,0.0,0.0,0.0,0.0,0.0,0.0,0.0,0.0,0.0,0.0,0.0,0.0,0.0,0.0,0.0,0.0,0.0,-2.7458,-2.774,-2.7385,-2.7199,-2.7199,-2.686,-2.6453,-2.6013,-2.6013,-2.5707,-2.5202,-2.4934,-2.4552,-2.4032,-2.4032,-2.4032,-2.4032,-2.4032,0.0,0.0,0.0,0.0,0.0,-2.4552,-2.4812,0.0,-2.4914,-2.5202,-2.5633,0.0,0.0,0.0,0.0,-2.6539,0.0,0.0,0.0,0.0,0.0,0.0,0.0,0.0,0.0,0.0,0.0,0.0,0.0,0.0,0.0,0.0,0.0,0.0,0.0,0.0,0.0,0.0,0.0,0.0,0.0,0.0,0.0,0.0,0.0,0.0,0.0,0.0,-3.2826,-3.2879,-3.2489,-3.2446,-3.2145,-3.1511,-3.1511,-3.1511,-3.1511,-3.1511,-3.1511,-3.1511,-3.1511,-3.1511,0.0,0.0,0.0,-3.1511,-3.1511,-3.169,-3.2019,-3.2706,-3.3365,-3.4023,-3.4696,-3.519,-3.5504,0.0,0.0,0.0,0.0,0.0,0.0,0.0,0.0,0.0,0.0,0.0,0.0,0.0,0.0,0.0,0.0,0.0,0.0,0.0,0.0,0.0,0.0,0.0,-2.821,-2.8701,-2.8153,-2.7784,-2.7666,-2.713,-2.6536,-2.587,-2.587,-2.5559,-2.495,-2.4491,-2.4032,-2.3595,-2.3595,-2.3595,-2.3595,-2.3595,0.0,0.0,0.0,0.0,0.0,0.0,0.0,0.0,-2.4307,-2.4617,-2.5086,-2.5086,0.0,0.0,0.0,0.0,0.0,0.0,0.0,0.0,0.0,0.0,0.0,0.0,0.0,0.0,0.0,0.0,0.0,0.0,0.0,0.0,0.0,0.0,0.0,0.0,0.0,0.0,0.0,0.0,0.0,0.0,0.0,0.0,0.0,0.0,0.0,0.0,-3.371,-3.371,-3.3582,-3.3495,-3.2917,-3.1838,-3.171,-3.1611,-3.1511,-3.1511,-3.1511,-3.1511,-3.1511,-3.1511,0.0,0.0,0.0,-3.1511,-3.1511,-3.1899,-3.2587,-3.3245,-3.3903,-3.4593,-3.525,-3.5504,-3.5504,0.0,0.0,0.0,0.0,0.0,0.0,0.0,0.0,0.0,0.0,0.0,0.0,0.0,0.0,0.0,0.0,0.0,0.0,0.0,0.0,0.0,-2.8184,-2.765,-2.7373,-2.7476,-2.7859,-2.7731,-2.705,-2.7425,-2.6843,-2.5316,-2.5316,-2.4776,-2.3837,-2.3752,-2.3681,-2.3595,-2.3595,-2.3595,-2.3595,0.0,0.0,0.0,0.0,0.0,0.0,0.0,0.0,0.0,-2.3879,-2.4074,-2.4532,-2.4532,0.0,0.0,0.0,0.0,0.0,-2.659,0.0,0.0,0.0,0.0,0.0,0.0,0.0,0.0,0.0,0.0,0.0,0.0,0.0,0.0,0.0,0.0,0.0,0.0,0.0,0.0,0.0,0.0,0.0,0.0,0.0,0.0,0.0,0.0,0.0,0.0,-3.4137,-3.4186,-3.3608,-3.3039,-3.2906,-3.3271,-3.2707,-3.212,-3.1511,-3.1511,-3.1511,-3.1511,-3.1511,-3.1511,0.0,0.0,-3.1511,-3.1511,-3.1511,-3.1899,-3.2587,-3.3245,-3.3903,-3.4593,-3.525,-3.5504,-3.5504,0.0,0.0,0.0,0.0,0.0,0.0,0.0,0.0,0.0,0.0,0.0,0.0,0.0,0.0,0.0,0.0,0.0,0.0,0.0,0.0,0.0,-2.7882,-2.7596,-2.7711,-2.8381,-2.8275,-2.8024,-2.7664,-2.7532,-2.6726,-2.5298,-2.4642,-2.4074,-2.3595,-2.3595,-2.3595,-2.3595,-2.3595,-2.3595,-2.3595,0.0,0.0,0.0,0.0,0.0,0.0,0.0,0.0,0.0,0.0,-2.3752,-2.397,-2.397,0.0,0.0,0.0,0.0,0.0,-2.6175,-2.5944,0.0,0.0,0.0,0.0,0.0,0.0,0.0,0.0,0.0,0.0,0.0,0.0,0.0,0.0,0.0,0.0,0.0,0.0,0.0,0.0,0.0,0.0,0.0,0.0,0.0,0.0,0.0,0.0,0.0,0.0,-3.5005,-3.4681,-3.4374,-3.4202,-3.4137,-3.3836,-3.3323,-3.2637,-3.2637,-3.2434,-3.2092,-3.2092,-3.1881,-3.1511,0.0,-3.1511,-3.1525,-3.1884,-3.2452,-3.311,-3.3769,-3.4442,-3.507,-3.5385,-3.5504,-3.5504,0.0,0.0,0.0,0.0,0.0,0.0,0.0,0.0,0.0,0.0,0.0,0.0,0.0,0.0,0.0,0.0,0.0,0.0,0.0,0.0,-2.7061,-2.757,-2.76,-2.8027,-2.8973,-2.855,-2.8269,-2.8072,-2.7673,-2.6762,-2.5364,-2.4154,-2.3595,-2.3595,-2.3595,-2.3595,-2.3595,-2.3595,-2.3595,-2.3595,0.0,0.0,0.0,0.0,0.0,0.0,0.0,0.0,0.0,0.0,0.0,0.0,0.0,0.0,0.0,0.0,-2.4692,-2.5163,-2.5815,-2.5521,-2.5144,0.0,0.0,0.0,0.0,0.0,0.0,0.0,0.0,0.0,0.0,0.0,0.0,0.0,0.0,0.0,0.0,0.0,0.0,0.0,0.0,0.0,0.0,0.0,0.0,0.0,0.0,0.0,0.0,0.0,-3.56,-3.56,-3.5447,-3.5207,-3.4847,-3.4688,-3.426,-3.3582,-3.3582,-3.3235,-3.2586,-3.2586,-3.2203,-3.1511,-3.1511,-3.1585,-3.1765,-3.2273,-3.2991,-3.3784,-3.4309,-3.4906,-3.5504,-3.5504,-3.5504,-3.5504,0.0,0.0,0.0,0.0,0.0,0.0,0.0,0.0,0.0,0.0,0.0,0.0,0.0,0.0,0.0,0.0,0.0,0.0,0.0,0.0,-2.754,-2.76,-2.76,-2.7635,-2.7735,-2.824,-2.8147,-2.745,-2.7974,-2.7263,-2.5364,-2.4154,-2.3595,-2.3595,-2.3595,-2.3595,-2.3595,-2.3595,-2.3595,-2.3595,-2.3595,0.0,0.0,0.0,0.0,0.0,0.0,0.0,0.0,0.0,0.0,0.0,0.0,0.0,0.0,0.0,-2.443,-2.4677,-2.5707,-2.524,-2.4592,-2.5125,0.0,0.0,0.0,0.0,0.0,0.0,0.0,0.0,0.0,0.0,0.0,0.0,0.0,0.0,0.0,0.0,0.0,0.0,0.0,0.0,0.0,0.0,0.0,0.0,0.0,0.0,0.0,0.0,0.0,-3.56,-3.4988,-3.4941,-3.5515,-3.4918,-3.426,-3.3582,-3.3582,-3.3235,-3.2586,-3.2586,-3.2203,-3.1511,-3.1511,-3.1854,-3.2422,-3.2497,-3.326,-3.4444,-3.4488,-3.4906,-3.5504,-3.5504,-3.5504,-3.5504,0.0,0.0,0.0,0.0,0.0,0.0,0.0,0.0,0.0,0.0,0.0,0.0,0.0,0.0,0.0,0.0,0.0,0.0,0.0,-2.7225,-2.76,-2.76,-2.76,-2.76,-2.76,-2.7835,-2.7798,-2.7516,-2.6925,-2.623,-2.5493,-2.4191,-2.3595,-2.3595,-2.3595,-2.3595,-2.3595,-2.3595,-2.3595,-2.3595,-2.3595,-2.3595,0.0,0.0,0.0,0.0,0.0,0.0,0.0,0.0,0.0,0.0,0.0,0.0,0.0,0.0,0.0,-2.4053,-2.4796,-2.4471,0.0,0.0,0.0,0.0,0.0,0.0,0.0,0.0,0.0,0.0,0.0,0.0,0.0,0.0,0.0,0.0,0.0,0.0,0.0,0.0,0.0,0.0,0.0,0.0,0.0,0.0,0.0,0.0,0.0,0.0,0.0,-3.56,-3.5362,-3.5339,-3.56,-3.5362,-3.5075,-3.484,-3.4423,-3.3862,-3.3224,-3.2788,-3.2203,-3.1525,-3.1929,-3.2258,-3.2572,-3.3395,-3.4054,-3.4548,-3.4951,-3.528,-3.5504,-3.5504,-3.5504,-3.5504,0.0,0.0,0.0,0.0,0.0,0.0,0.0,0.0,0.0,0.0,0.0,0.0,0.0,0.0,0.0,0.0,0.0,0.0,-2.6911,-2.7345,-2.76,-2.76,-2.76,-2.76,-2.76,-2.76,-2.76,-2.76,-2.6258,-2.5615,-2.5561,-2.4223,-2.3595,-2.3595,-2.3595,-2.3595,-2.3595,-2.3595,-2.3595,-2.3595,-2.3595,-2.3595,0.0,0.0,0.0,0.0,0.0,0.0,0.0,0.0,0.0,0.0,0.0,0.0,0.0,0.0,0.0,0.0,-2.4246,-2.4012,0.0,0.0,0.0,0.0,0.0,0.0,0.0,0.0,0.0,0.0,0.0,0.0,0.0,0.0,0.0,0.0,0.0,0.0,0.0,0.0,0.0,0.0,0.0,0.0,0.0,0.0,0.0,0.0,0.0,0.0,0.0,0.0,-3.56,-3.56,-3.56,-3.56,-3.56,-3.56,-3.4918,-3.4358,-3.3887,-3.3209,-3.264,-3.217,-3.2624,-3.293,-3.32,-3.4098,-3.4638,-3.4846,-3.5325,-3.5504,-3.5504,-3.5504,-3.5504,-3.5504,0.0,0.0,0.0,0.0,0.0,0.0,0.0,0.0,0.0,0.0,0.0,0.0,0.0,0.0,0.0,0.0,0.0,0.0,-2.7555,-2.76,-2.76,-2.76,-2.76,-2.76,-2.76,-2.76,-2.76,-2.76,-2.6258,-2.5615,-2.5561,-2.4223,-2.3595,-2.3595,-2.3595,-2.3595,-2.3595,-2.3595,-2.3595,-2.3595,-2.3595,-2.3595,-2.3595,0.0,0.0,0.0,0.0,0.0,0.0,0.0,0.0,0.0,0.0,0.0,0.0,0.0,-2.3595,-2.3724,-2.4246,0.0,0.0,0.0,0.0,0.0,0.0,0.0,0.0,0.0,0.0,0.0,0.0,0.0,0.0,0.0,0.0,0.0,0.0,0.0,0.0,0.0,0.0,0.0,0.0,0.0,0.0,0.0,0.0,0.0,0.0,0.0,0.0,0.0,-3.56,-3.56,-3.56,-3.56,-3.56,-3.56,-3.4918,-3.46,-3.4576,-3.3912,-3.3572,-3.3491,-3.3506,-3.3873,-3.4503,-3.4518,-3.4891,-3.5504,-3.5504,-3.5504,-3.5504,-3.5504,-3.5504,-3.5504,0.0,0.0,0.0,0.0,0.0,0.0,0.0,0.0,0.0,0.0,0.0,0.0,0.0,0.0,0.0,0.0,0.0,0.0,-2.7585,-2.76,-2.76,-2.76,-2.76,-2.76,-2.76,-2.76,-2.76,-2.76,-2.6258,-2.5615,-2.5561,-2.4223,-2.3595,-2.3595,-2.3595,-2.3595,-2.3595,-2.3595,-2.3595,-2.3595,-2.3595,-2.3595,-2.3595,0.0,0.0,0.0,0.0,0.0,0.0,0.0,0.0,0.0,0.0,0.0,0.0,-2.3595,-2.3595,-2.3638,-2.3794,0.0,0.0,0.0,0.0,0.0,0.0,0.0,0.0,0.0,0.0,0.0,0.0,0.0,0.0,0.0,0.0,0.0,0.0,0.0,0.0,0.0,0.0,0.0,0.0,0.0,0.0,0.0,0.0,0.0,0.0,0.0,0.0,0.0,-3.56,-3.56,-3.56,-3.56,-3.56,-3.56,-3.4918,-3.46,-3.4592,-3.4429,-3.4058,-3.3553,-3.4541,-3.4804,-3.4548,-3.4996,-3.5325,-3.5504,-3.5504,-3.5504,-3.5504,-3.5504,-3.5504,-3.5504,0.0,0.0,0.0,0.0,0.0,0.0,0.0,0.0,0.0,0.0,0.0,0.0,0.0,0.0,0.0,0.0,0.0,0.0,0.0,-2.76,-2.76,-2.76,-2.76,-2.76,-2.76,-2.76,-2.76,-2.76,-2.6512,-2.5869,-2.5585,-2.4507,-2.3864,-2.3595,-2.3595,-2.3595,-2.3595,-2.3595,-2.3595,-2.3595,-2.3595,-2.3595,-2.3595,0.0,0.0,0.0,0.0,0.0,0.0,0.0,0.0,0.0,0.0,0.0,0.0,-2.3595,-2.3595,-2.3595,0.0,0.0,0.0,0.0,0.0,0.0,0.0,0.0,0.0,0.0,0.0,0.0,0.0,0.0,0.0,0.0,0.0,0.0,0.0,0.0,0.0,0.0,0.0,0.0,0.0,0.0,0.0,0.0,0.0,0.0,0.0,0.0,0.0,0.0,-3.56,-3.56,-3.56,-3.56,-3.56,-3.56,-3.5207,-3.5155,-3.5471,-3.4913,-3.4557,-3.445,-3.5859,-3.6041,-3.5382,-3.5776,-3.575,-3.5504,-3.5504,-3.5504,-3.5504,-3.5504,-3.5504,-3.5504,0.0,0.0,0.0,0.0,0.0,0.0,0.0,0.0,0.0,0.0,0.0,0.0,0.0,0.0,0.0,0.0,0.0,0.0,0.0,0.0,-2.76,-2.76,-2.76,-2.76,-2.76,-2.76,-2.76,-2.76,-2.6941,-2.6258,-2.56,-2.4903,-2.4231,-2.3595,-2.3595,-2.3595,-2.3595,-2.3595,-2.3595,-2.3595,-2.3595,-2.3595,-2.3595,-2.3595,0.0,0.0,0.0,0.0,0.0,0.0,0.0,0.0,0.0,0.0,0.0,-2.3595,-2.3595,-2.3595,0.0,0.0,0.0,0.0,0.0,0.0,0.0,0.0,0.0,0.0,0.0,0.0,0.0,0.0,0.0,0.0,0.0,0.0,0.0,0.0,0.0,0.0,0.0,0.0,0.0,0.0,0.0,0.0,0.0,0.0,0.0,0.0,0.0,-3.56,-3.56,-3.56,-3.56,-3.56,-3.56,0.0,-3.56,-3.5982,-3.6662,-3.5444,-3.5257,-3.5966,-3.7176,-3.7249,-3.6492,-3.6492,-3.6117,-3.5504,-3.5504,-3.5504,-3.5504,-3.5504,-3.5504,-3.5504,0.0,0.0,0.0,0.0,0.0,0.0,0.0,0.0,0.0,0.0,0.0,0.0,0.0,0.0,0.0,0.0,0.0,0.0,0.0,0.0,-2.76,-2.76,-2.76,-2.76,-2.76,-2.76,-2.76,-2.76,-2.6941,-2.6258,-2.56,-2.4903,-2.4231,-2.3595,-2.3595,-2.3595,-2.3595,-2.3595,-2.3595,-2.3595,-2.3595,-2.3595,-2.3595,-2.3595,-2.3595,0.0,0.0,0.0,0.0,0.0,0.0,0.0,0.0,-2.3595,-2.3595,-2.3595,-2.3595,0.0,0.0,0.0,0.0,0.0,0.0,0.0,0.0,0.0,0.0,0.0,0.0,0.0,0.0,0.0,0.0,0.0,0.0,0.0,0.0,0.0,0.0,0.0,0.0,0.0,0.0,0.0,0.0,0.0,0.0,0.0,0.0,0.0,0.0,-3.56,-3.56,-3.56,-3.56,-3.56,-3.56,0.0,-3.56,-3.5725,-3.5975,-3.681,-3.7251,-3.7317,-3.6988,-3.643,-3.5718,-3.5718,-3.5636,-3.5504,-3.5504,-3.5504,-3.5504,-3.5504,-3.5504,-3.5504,0.0,0.0,0.0,0.0,0.0,0.0,0.0,0.0,0.0,0.0,0.0,0.0,0.0,0.0,0.0,0.0,0.0,0.0,0.0,0.0,-2.76,-2.76,-2.76,-2.76,-2.76,-2.76,-2.76,-2.76,-2.7255,-2.6746,-2.6063,-2.5382,-2.4709,-2.4051,-2.3744,-2.3595,-2.3595,-2.3595,-2.3595,-2.3595,-2.3595,-2.3595,-2.3595,-2.3595,-2.3595,-2.3595,-2.3595,0.0,0.0,0.0,0.0,0.0,0.0,0.0,-2.3595,-2.3595,-2.3595,-2.3595,0.0,0.0,0.0,0.0,0.0,0.0,0.0,0.0,0.0,0.0,0.0,0.0,0.0,0.0,0.0,0.0,0.0,0.0,0.0,0.0,0.0,0.0,0.0,0.0,0.0,0.0,0.0,0.0,0.0,0.0,0.0,-3.56,-3.56,-3.56,-3.56,-3.56,-3.56,-3.56,-3.56,-3.56,-3.56,-3.5996,-3.6785,-3.7577,-3.7893,-3.7793,-3.7745,-3.7054,-3.6038,-3.6038,-3.5814,-3.5504,-3.5504,-3.5504,-3.5504,-3.5504,-3.5504,-3.5504,0.0,0.0,0.0,0.0,0.0,0.0,0.0,0.0,0.0,0.0,0.0,0.0,0.0,0.0,0.0,0.0,0.0,0.0,0.0,0.0,0.0,-2.76,-2.76,-2.76,-2.76,-2.76,-2.76,-2.76,-2.76,0.0,0.0,0.0,-2.5232,-2.4575,-2.3909,-2.3595,-2.3595,-2.3595,-2.3595,-2.3595,-2.3595,-2.3595,-2.3595,-2.3595,-2.3595,-2.3595,-2.3595,-2.3595,-2.3595,-2.3595,0.0,0.0,0.0,0.0,-2.3595,-2.3595,-2.3595,-2.3595,0.0,0.0,0.0,0.0,0.0,0.0,0.0,0.0,0.0,0.0,0.0,0.0,0.0,0.0,0.0,0.0,0.0,0.0,0.0,0.0,0.0,0.0,0.0,0.0,0.0,0.0,0.0,0.0,0.0,0.0,-3.56,-3.56,-3.56,-3.56,-3.56,-3.56,-3.56,-3.56,-3.56,-3.56,-3.587,-3.6601,-3.7713,-3.8017,-3.803,-3.7822,-3.8302,-3.77,-3.6415,-3.6415,-3.6054,-3.5504,-3.5504,-3.5504,-3.5504,-3.5504,-3.5504,-3.5504,0.0,0.0,0.0,0.0,0.0,0.0,0.0,0.0,0.0,0.0,0.0,0.0,0.0,0.0,0.0,0.0,0.0,0.0,0.0,0.0,0.0,-2.76,-2.76,-2.76,-2.76,-2.76,-2.76,-2.76,0.0,0.0,0.0,0.0,0.0,-2.4575,0.0,-2.3595,-2.3595,-2.3595,-2.3595,-2.3595,-2.3595,-2.3595,-2.3595,-2.3595,-2.3595,-2.3595,-2.3595,-2.3595,-2.3595,-2.3595,-2.3595,0.0,0.0,0.0,0.0,0.0,0.0,0.0,0.0,0.0,0.0,0.0,0.0,0.0,0.0,0.0,0.0,0.0,0.0,0.0,0.0,0.0,0.0,0.0,0.0,0.0,0.0,0.0,0.0,0.0,0.0,0.0,0.0,0.0,0.0,0.0,0.0,0.0,-3.56,-3.56,-3.56,-3.56,-3.56,-3.56,-3.56,-3.56,-3.56,-3.5616,-3.6935,-3.734,-3.6892,-3.8177,-3.8416,-3.7764,-3.7174,-3.643,-3.5636,-3.5636,-3.5587,-3.5504,-3.5504,-3.5504,-3.5504,-3.5504,-3.5504,-3.5504,0.0,0.0,0.0,0.0,0.0,0.0,0.0,0.0,0.0,0.0,0.0,0.0,0.0,0.0,0.0,0.0,0.0,0.0,0.0,0.0,0.0,-2.76,-2.76,-2.76,-2.76,-2.76,-2.76,-2.76,0.0,0.0,0.0,-2.6602,-2.5809,0.0,0.0,0.0,0.0,0.0,-2.3595,-2.3595,-2.3595,-2.3595,-2.3595,-2.3595,-2.3595,-2.3595,-2.3595,-2.3595,-2.3595,-2.3595,0.0,0.0,0.0,0.0,0.0,0.0,0.0,0.0,0.0,0.0,0.0,0.0,0.0,0.0,0.0,0.0,0.0,0.0,0.0,0.0,0.0,0.0,0.0,0.0,0.0,0.0,0.0,0.0,0.0,0.0,0.0,0.0,0.0,0.0,0.0,0.0,0.0,-3.56,-3.56,-3.56,-3.56,-3.56,-3.56,-3.56,-3.56,-3.56,-3.56,-3.5616,-3.6707,-3.7036,-3.6723,-3.7315,-3.7424,-3.7114,-3.6752,-3.6165,-3.5504,-3.5504,-3.5504,-3.5504,-3.5504,-3.5504,-3.5504,-3.5504,-3.5504,-3.5504,0.0,0.0,0.0,0.0,0.0,0.0,0.0,0.0,0.0,0.0,0.0,0.0,0.0,0.0,0.0,0.0,0.0,0.0,0.0,0.0,0.0,0.0,0.0,-2.76,-2.76,-2.76,-2.76,0.0,0.0,0.0,-2.7585,-2.7091,-2.6497,0.0,-2.4978,0.0,0.0,0.0,0.0,0.0,0.0,0.0,0.0,0.0,0.0,0.0,0.0,0.0,0.0,0.0,0.0,0.0,0.0,0.0,0.0,0.0,0.0,0.0,0.0,0.0,0.0,0.0,0.0,0.0,0.0,0.0,0.0,0.0,0.0,0.0,0.0,0.0,0.0,0.0,0.0,0.0,0.0,0.0,0.0,0.0,0.0,0.0,0.0,0.0,0.0,0.0,0.0,-3.5247,-3.5577,-3.5447,-3.5407,-3.56,-3.56,-3.56,-3.56,-3.5447,-3.5339,-3.5356,-3.61,-3.6346,-3.6157,-3.6674,-3.6783,-3.6584,-3.6384,-3.6006,-3.5504,-3.5504,-3.5504,-3.5504,-3.5504,-3.5504,-3.5504,-3.5504,-3.5504,-3.5504,0.0,0.0,0.0,0.0,0.0,0.0,0.0,0.0,0.0,0.0,0.0,0.0,0.0,0.0,0.0,0.0,0.0,0.0,0.0,0.0,0.0,0.0,0.0,0.0,-2.76,-2.76,0.0,0.0,0.0,0.0,-2.76,-2.7555,-2.7195,-2.6482,-2.5173,-2.459,-2.4515,0.0,0.0,0.0,0.0,0.0,0.0,0.0,0.0,0.0,0.0,0.0,0.0,0.0,0.0,0.0,0.0,0.0,0.0,0.0,0.0,0.0,0.0,0.0,0.0,0.0,0.0,0.0,0.0,0.0,0.0,0.0,0.0,0.0,0.0,0.0,0.0,0.0,0.0,0.0,0.0,0.0,0.0,0.0,0.0,0.0,0.0,0.0,0.0,0.0,0.0,-3.4276,-3.5515,-3.4988,-3.4941,-3.5577,-3.56,-3.56,-3.56,-3.4965,-3.4664,-3.4657,-3.5418,-3.5348,-3.4687,-3.6777,-3.7338,-3.6554,-3.5863,-3.5537,-3.5504,-3.5504,-3.5504,-3.5504,-3.5504,-3.5504,-3.5504,-3.5504,-3.5504,-3.5504,0.0,0.0,0.0,0.0,0.0,0.0,0.0,0.0,0.0,0.0,0.0,0.0,0.0,-2.76,-2.76,-2.76,0.0,0.0,0.0,0.0,0.0,0.0,0.0,0.0,0.0,0.0,0.0,0.0,0.0,-2.76,-2.76,-2.76,-2.7465,-2.721,-2.6288,-2.542,-2.459,-2.4335,0.0,0.0,0.0,0.0,0.0,0.0,0.0,0.0,0.0,0.0,0.0,0.0,0.0,0.0,0.0,0.0,0.0,0.0,0.0,0.0,0.0,0.0,0.0,0.0,0.0,0.0,0.0,0.0,0.0,0.0,0.0,0.0,0.0,0.0,0.0,0.0,0.0,0.0,0.0,0.0,0.0,0.0,0.0,0.0,0.0,0.0,0.0,0.0,0.0,0.0,-3.4901,-3.4736,-3.4918,-3.5577,-3.56,-3.5385,-3.4965,-3.4712,-3.4382,-3.3978,-3.4627,-3.4784,-3.4558,-3.6249,-3.66,-3.5926,-3.6117,-3.6196,-3.6165,-3.5701,-3.5504,-3.5504,-3.5504,-3.5504,-3.5504,-3.5504,-3.5504,-3.5504,0.0,0.0,0.0,0.0,0.0,0.0,0.0,0.0,0.0,0.0,0.0,0.0,0.0,0.0,-2.6967,-2.7214,-2.6774,0.0,0.0,0.0,0.0,0.0,0.0,0.0,0.0,0.0,0.0,0.0,0.0,0.0,0.0,-2.7484,-2.76,-2.757,-2.7136,-2.6318,0.0,0.0,0.0,-2.4268,0.0,0.0,-2.4268,0.0,0.0,0.0,0.0,0.0,0.0,0.0,0.0,0.0,0.0,0.0,0.0,0.0,0.0,0.0,0.0,0.0,0.0,0.0,0.0,0.0,0.0,0.0,0.0,0.0,0.0,0.0,0.0,0.0,0.0,0.0,0.0,0.0,0.0,0.0,0.0,0.0,0.0,0.0,0.0,0.0,0.0,0.0,0.0,0.0,-3.4197,-3.4275,-3.4568,-3.523,-3.5253,-3.4941,-3.4284,-3.4037,-3.371,-3.3277,-3.3877,-3.4162,-3.4208,-3.5844,-3.6322,-3.5894,-3.6384,-3.6477,-3.6196,-3.5701,-3.5504,-3.5504,-3.5504,-3.5504,-3.5504,-3.5504,-3.5504,-3.5504,0.0,0.0,0.0,0.0,0.0,0.0,0.0,0.0,0.0,0.0,0.0,0.0,0.0,0.0,0.0,-2.6404,-2.6457,-2.6747,-2.7484,0.0,0.0,0.0,0.0,0.0,0.0,0.0,0.0,0.0,0.0,0.0,0.0,0.0,-2.76,-2.76,-2.76,-2.724,-2.6572,0.0,-2.563,-2.5615,0.0,-2.5615,-2.5615,0.0,0.0,0.0,-2.4836,-2.4612,0.0,0.0,0.0,0.0,0.0,0.0,0.0,0.0,0.0,0.0,0.0,0.0,0.0,0.0,0.0,0.0,0.0,0.0,0.0,0.0,0.0,0.0,0.0,0.0,0.0,0.0,0.0,0.0,0.0,0.0,0.0,0.0,0.0,0.0,0.0,0.0,0.0,0.0,0.0,-3.138,-3.3458,-3.3599,-3.3912,-3.4552,-3.4576,-3.426,-3.3582,-3.2922,-3.2586,-3.259,-3.3199,-3.3499,-3.356,-3.5646,-3.6584,-3.6584,-3.6569,-3.6165,-3.5504,-3.5504,-3.5504,-3.5504,-3.5504,-3.5504,-3.5504,-3.5504,-3.5504,-3.5504,0.0,0.0,0.0,0.0,0.0,0.0,0.0,0.0,0.0,0.0,0.0,0.0,-2.5701,-2.5508,-2.5481,-2.5673,-2.5231,-2.5231,-2.5973,-2.4966,-2.4839,-2.5973,-2.4952,0.0,0.0,0.0,0.0,0.0,0.0,0.0,0.0,0.0,0.0,0.0,-2.76,-2.7495,-2.7285,-2.6602,0.0,0.0,-2.5615,-2.5615,0.0,0.0,0.0,0.0,0.0,-2.4879,0.0,0.0,-2.429,-2.4231,0.0,0.0,0.0,0.0,0.0,0.0,-2.3595,0.0,0.0,0.0,0.0,0.0,0.0,0.0,0.0,0.0,0.0,0.0,0.0,0.0,0.0,0.0,0.0,0.0,0.0,0.0,0.0,0.0,0.0,0.0,0.0,0.0,0.0,0.0,-2.9489,-3.0738,-3.2781,-3.3795,-3.4186,-3.3887,-3.3887,-3.3556,-3.2895,-3.2695,-3.2327,-3.1811,-3.2946,-3.3499,-3.356,-3.5646,-3.6306,-3.5831,-3.6368,-3.6165,-3.5504,-3.5504,-3.5504,-3.5504,-3.5504,-3.5504,-3.5504,-3.5504,-3.5504,-3.5504,0.0,0.0,0.0,0.0,0.0,0.0,0.0,0.0,0.0,0.0,0.0,0.0,-2.4496,-2.4439,-2.4582,-2.4894,-2.4538,-2.4595,-2.5342,-2.4553,-2.4467,-2.537,-2.4553,-2.4496,0.0,0.0,0.0,0.0,0.0,0.0,0.0,0.0,0.0,0.0,0.0,0.0,0.0,0.0,0.0,0.0,-2.6091,0.0,0.0,-2.6091,-2.6179,0.0,0.0,0.0,-2.5863,-2.4853,-2.4544,0.0,0.0,0.0,0.0,0.0,0.0,0.0,0.0,0.0,0.0,0.0,0.0,0.0,0.0,-2.3595,0.0,0.0,0.0,0.0,0.0,0.0,0.0,0.0,0.0,0.0,0.0,0.0,0.0,0.0,0.0,0.0,0.0,0.0,0.0,-2.8143,-2.8786,-3.0068,-3.2082,-3.345,-3.3887,-3.3209,-3.3198,-3.2868,-3.2148,-3.2148,-3.1938,-3.1525,-3.2871,-3.3499,-3.3575,-3.5321,-3.5926,-3.5537,-3.5943,-3.5894,-3.5504,-3.5504,-3.5504,-3.5504,-3.5504,-3.5504,-3.5504,-3.5504,-3.5504,-3.5504,0.0,0.0,0.0,0.0,0.0,0.0,0.0,0.0,0.0,0.0,-2.4567,-2.3884,-2.3198,-2.3108,-2.3395,-2.4089,-2.4176,-2.4452,-2.5091,-2.5147,-2.5147,-2.5147,-2.5147,-2.5147,-2.5147,0.0,0.0,0.0,0.0,0.0,0.0,0.0,0.0,0.0,0.0,0.0,0.0,0.0,0.0,-2.7433,-2.6852,-2.7008,0.0,0.0,-2.6904,0.0,-2.6614,-2.6406,-2.6278,-2.5022,-2.4681,0.0,0.0,0.0,0.0,0.0,-2.4276,0.0,0.0,0.0,0.0,0.0,0.0,0.0,-2.3595,-2.3595,-2.3595,0.0,0.0,0.0,0.0,0.0,0.0,0.0,0.0,0.0,0.0,0.0,0.0,0.0,0.0,0.0,0.0,-2.76,-2.76,-2.76,-2.8366,-2.9591,-3.1369,-3.2767,-3.3198,-3.2504,-3.2492,-3.2176,-3.1511,-3.1511,-3.1511,-3.1525,-3.2871,-3.3499,-3.3544,-3.4891,-3.5504,-3.5504,-3.5504,-3.5504,-3.5504,-3.5504,-3.5504,-3.5504,-3.5504,-3.5504,-3.5504,-3.5504,-3.5504,-3.5504,0.0,0.0,0.0,0.0,0.0,0.0,0.0,0.0,0.0,0.0,-2.3424,-2.3275,-2.3138,-2.3108,-2.3155,-2.3305,-2.3335,-2.3395,-2.3531,-2.356,-2.356,-2.356,-2.356,-2.356,-2.356,-2.328,0.0,0.0,0.0,0.0,0.0,0.0,0.0,0.0,0.0,0.0,0.0,0.0,0.0,-2.6747,-2.7188,0.0,-2.7524,-2.6774,-2.659,-2.6534,-2.5232,-2.5136,-2.561,0.0,-2.571,-2.6119,0.0,0.0,0.0,0.0,0.0,0.0,0.0,0.0,0.0,0.0,0.0,0.0,-2.3595,-2.3595,-2.3595,0.0,0.0,0.0,0.0,0.0,0.0,0.0,0.0,0.0,0.0,0.0,0.0,0.0,0.0,0.0,0.0,-2.76,-2.76,-2.76,-2.9231,-3.0359,-3.0712,-3.2052,-3.2449,-3.1754,-3.171,-3.164,-3.1511,-3.1511,-3.1511,-3.1525,-3.2871,-3.3499,-3.3544,-3.4891,-3.5504,-3.5504,-3.5504,-3.5504,-3.5504,-3.5504,-3.5504,-3.5504,-3.5504,-3.5504,-3.5504,-3.5504,-3.5504,-3.5504,0.0,0.0,0.0,0.0,0.0,0.0,0.0,0.0,0.0,0.0,-2.3108,-2.3108,0.0,0.0,0.0,0.0,-2.3108,-2.3108,0.0,-2.3108,-2.3108,-2.3108,-2.3108,-2.3108,-2.3108,-2.3108,0.0,0.0,0.0,0.0,0.0,0.0,0.0,0.0,0.0,0.0,0.0,0.0,-2.7382,-2.7008,-2.6654,0.0,-2.6428,-2.5673,-2.5618,-2.5906,-2.5536,-2.5398,-2.5467,-2.5845,-2.6006,0.0,0.0,-2.6363,-2.6093,0.0,-2.5869,-2.554,0.0,0.0,0.0,-2.4687,0.0,0.0,0.0,-2.4096,-2.4014,-2.367,0.0,0.0,0.0,0.0,0.0,0.0,0.0,0.0,0.0,0.0,0.0,0.0,0.0,0.0,0.0,-2.76,-2.76,-2.76,-2.8834,-2.9735,-3.0041,-3.1003,-3.1546,-3.1496,-3.1511,-3.1511,-3.1511,-3.1511,-3.1511,-3.1525,-3.2871,-3.3499,-3.3544,-3.4891,-3.5504,-3.5504,-3.5504,-3.5504,-3.5504,-3.5504,-3.5504,-3.5504,-3.5504,-3.5504,-3.5504,-3.5504,-3.5504,-3.5504,0.0,0.0,0.0,0.0,0.0,0.0,0.0,0.0,0.0,0.0,0.0,0.0,0.0,0.0,0.0,0.0,0.0,0.0,0.0,0.0,0.0,-2.3108,-2.3108,-2.3108,-2.3108,-2.3108,-2.3108,0.0,0.0,0.0,0.0,0.0,0.0,0.0,0.0,0.0,0.0,0.0,0.0,-2.7071,0.0,-2.5563,-2.5728,-2.4851,-2.4879,-2.5425,-2.5728,-2.5563,-2.5287,-2.6041,0.0,-2.5837,-2.7188,-2.7225,0.0,0.0,0.0,0.0,0.0,0.0,0.0,0.0,0.0,-2.5457,0.0,0.0,0.0,-2.4103,0.0,0.0,0.0,0.0,0.0,0.0,0.0,0.0,0.0,0.0,0.0,0.0,0.0,0.0,0.0,-2.76,-2.76,-2.76,-2.8203,-2.8891,-2.9577,-3.0163,-3.0821,-3.1481,-3.1511,-3.1511,-3.1511,-3.1511,-3.1511,-3.1525,-3.2871,-3.3499,-3.3544,-3.4891,-3.5504,-3.5504,-3.5504,-3.5504,-3.5504,-3.5504,-3.5504,-3.5504,-3.5504,-3.5504,-3.5504,-3.5504,-3.5504,-3.5504,0.0,0.0,0.0,0.0,0.0,0.0,0.0,0.0,0.0,0.0,0.0,0.0,0.0,0.0,0.0,0.0,0.0,0.0,-2.3108,0.0,0.0,0.0,-2.3108,-2.3108,-2.3108,-2.3108,-2.3108,0.0,0.0,0.0,0.0,0.0,0.0,0.0,-2.5864,0.0,0.0,0.0,-2.6256,0.0,-2.5481,-2.6188,0.0,-2.5796,-2.5315,-2.5231,-2.3959,-2.3872,-2.4538,0.0,-2.5906,-2.6537,0.0,-2.754,0.0,0.0,0.0,0.0,0.0,0.0,0.0,0.0,-2.5615,0.0,0.0,0.0,-2.5457,-2.539,0.0,0.0,0.0,0.0,0.0,0.0,0.0,0.0,0.0,0.0,0.0,0.0,0.0,0.0,0.0,0.0,-2.76,-2.76,-2.8203,-2.8891,-2.9577,-3.0163,-3.0821,-3.1481,-3.1511,-3.1511,-3.1511,-3.1511,-3.1511,-3.1525,-3.2871,-3.3499,-3.3544,-3.4891,-3.5504,-3.5504,-3.5504,-3.5504,-3.5504,-3.5504,-3.5504,-3.5504,-3.5504,-3.5504,-3.5504,-3.5504,-3.5504,-3.5504,0.0,0.0,0.0,0.0,0.0,0.0,0.0,0.0,0.0,0.0,0.0,0.0,0.0,0.0,0.0,0.0,0.0,-2.3108,0.0,0.0,0.0,0.0,0.0,0.0,0.0,-2.3108,-2.3108,0.0,-2.3454,0.0,0.0,0.0,0.0,0.0,-2.5783,0.0,-2.5714,0.0,0.0,0.0,0.0,0.0,0.0,-2.4782,-2.461,-2.5259,-2.4192,-2.4279,-2.4922,0.0,-2.5259,0.0,0.0,0.0,0.0,0.0,0.0,0.0,0.0,0.0,0.0,0.0,0.0,0.0,0.0,0.0,-2.6078,0.0,0.0,0.0,0.0,0.0,0.0,0.0,0.0,0.0,0.0,0.0,0.0,0.0,0.0,0.0,0.0,0.0,0.0,0.0,0.0,-2.8483,-2.9547,-2.9846,-3.0447,-3.1466,-3.1511,-3.1511,-3.1511,-3.1511,-3.1511,-3.1525,-3.2871,-3.3499,-3.3544,-3.4891,-3.5504,-3.5504,-3.5504,-3.5504,-3.5504,-3.5504,-3.5504,-3.5504,-3.5504,-3.5504,-3.5504,-3.5504,-3.5504,-3.5504,0.0,0.0,0.0,0.0,0.0,0.0,0.0,0.0,0.0,0.0,0.0,0.0,-2.3572,-2.3572,0.0,0.0,0.0,-2.3572,0.0,0.0,-2.3572,-2.3572,-2.3572,0.0,0.0,0.0,0.0,0.0,0.0,0.0,0.0,0.0,0.0,0.0,0.0,-2.5398,-2.4681,0.0,0.0,-2.5906,-2.5906,-2.5755,-2.5412,-2.3975,-2.3989,-2.4696,-2.4163,-2.4308,-2.4753,-2.4652,-2.4951,0.0,-2.6256,0.0,0.0,0.0,0.0,0.0,-2.7306,0.0,0.0,0.0,0.0,0.0,0.0,0.0,0.0,0.0,0.0,0.0,0.0,0.0,0.0,0.0,0.0,0.0,0.0,0.0,0.0,0.0,0.0,0.0,0.0,0.0,0.0,-2.76,-2.76,-2.8184,-2.9532,-2.9606,-3.0178,-3.1466,-3.1511,-3.1511,-3.1511,-3.1511,-3.1511,-3.1525,-3.2871,-3.3499,-3.3544,-3.4891,-3.5504,-3.5504,-3.5504,-3.5504,-3.5504,-3.5504,-3.5504,-3.5504,-3.5504,-3.5504,-3.5504,-3.5504,-3.5504,-3.5504,0.0,-2.3108,0.0,0.0,0.0,0.0,0.0,0.0,0.0,0.0,0.0,0.0,0.0,0.0,0.0,0.0,0.0,-2.4738,-2.4738,0.0,-2.4738,0.0,-2.4738,-2.4519,0.0,0.0,0.0,0.0,0.0,0.0,0.0,0.0,0.0,0.0,0.0,-2.4738,-2.537,-2.5425,-2.5007,-2.4379,-2.4379,-2.3914,-2.3305,0.0,-2.3796,-2.3155,-2.3138,0.0,0.0,-2.4866,-2.537,0.0,0.0,0.0,0.0,0.0,0.0,0.0,0.0,0.0,0.0,-2.76,0.0,0.0,0.0,0.0,-2.7555,0.0,0.0,0.0,0.0,0.0,0.0,0.0,0.0,0.0,0.0,0.0,0.0,0.0,0.0,0.0,0.0,0.0,0.0,-2.76,-2.76,-2.8184,-2.9532,-2.9606,-3.0178,-3.1466,-3.1511,-3.1511,-3.1511,-3.1511,-3.1511,-3.1525,-3.2871,-3.3499,-3.3544,-3.4891,-3.5504,-3.5504,-3.5504,-3.5504,-3.5504,-3.5504,-3.5504,-3.5504,-3.5504,-3.5504,-3.5504,-3.5504,-3.5504,-3.5504,0.0,0.0,0.0,0.0,0.0,0.0,0.0,-2.4544,0.0,0.0,0.0,0.0,0.0,0.0,-2.4788,0.0,0.0,-2.4788,-2.4788,-2.4788,0.0,0.0,0.0,-2.4732,0.0,0.0,0.0,0.0,0.0,0.0,0.0,0.0,0.0,0.0,0.0,-2.5551,0.0,0.0,0.0,0.0,0.0,-2.5262,-2.5075,0.0,0.0,-2.3884,-2.3884,-2.3884,0.0,-2.3872,-2.4221,-2.4709,-2.4951,-2.537,-2.581,-2.6068,-2.6283,0.0,0.0,0.0,-2.6878,-2.6878,0.0,0.0,0.0,0.0,0.0,0.0,0.0,0.0,0.0,0.0,0.0,0.0,0.0,0.0,0.0,0.0,0.0,0.0,0.0,0.0,0.0,0.0,0.0,-2.76,-2.76,-2.8184,0.0,-2.9606,-3.0178,-3.1466,-3.1511,-3.1511,-3.1511,-3.1511,-3.1511,-3.1525,-3.2871,-3.3499,-3.3544,-3.4891,-3.5504,-3.5504,-3.5504,-3.5504,-3.5504,-3.5504,-3.5504,-3.5504,-3.5504,-3.5504,-3.5504,-3.5504,-3.5504,-3.5504,-2.4788,0.0,0.0,0.0,0.0,0.0,0.0,0.0,0.0,0.0,-2.541,0.0,-2.541,0.0,-2.541,0.0,-2.541,-2.541,-2.541,-2.541,0.0,-2.541,-2.541,0.0,0.0,0.0,0.0,0.0,0.0,-2.5326,0.0,0.0,0.0,0.0,0.0,0.0,0.0,0.0,-2.6043,0.0,0.0,-2.5553,0.0,0.0,-2.5076,-2.4899,0.0,-2.4477,-2.4447,-2.4179,-2.4648,-2.5269,-2.4975,-2.5401,-2.6005,-2.5933,-2.6301,-2.6705,-2.6451,-2.6612,0.0,-2.6568,-2.6283,0.0,-2.7034,0.0,0.0,0.0,0.0,0.0,0.0,0.0,0.0,0.0,0.0,0.0,0.0,0.0,0.0,0.0,0.0,0.0,0.0,0.0,-2.76,-2.76,-2.76,-2.8184,0.0,0.0,-3.0178,-3.1466,-3.1511,-3.1511,-3.1511,-3.1511,-3.1511,-3.1525,-3.2871,-3.3499,-3.3544,-3.4891,-3.5504,-3.5504,-3.5504,-3.5504,-3.5504,-3.5504,-3.5504,-3.5504,-3.5504,-3.5504,-3.5504,-3.5504,-3.5504,-3.5504,0.0,0.0,0.0,0.0,-2.4863,0.0,0.0,0.0,-2.5837,0.0,-2.6499,-2.6499,-2.6499,-2.6499,-2.6499,-2.6499,-2.6499,0.0,-2.6499,-2.6499,0.0,0.0,-2.6499,-2.6235,-2.5649,0.0,0.0,0.0,0.0,0.0,0.0,0.0,0.0,0.0,-2.6549,0.0,-2.5044,-2.658,-2.6303,-2.4863,-2.4863,-2.4908,-2.4928,-2.4928,-2.5466,-2.6118,-2.5141,-2.4788,-2.4904,-2.5621,-2.6398,-2.6955,-2.6153,-2.6489,-2.6879,-2.5408,-2.6069,-2.7098,-2.6445,-2.6863,-2.7318,-2.6687,0.0,0.0,0.0,0.0,-2.651,0.0,0.0,0.0,0.0,0.0,0.0,0.0,0.0,0.0,0.0,0.0,0.0,0.0,0.0,0.0,0.0,-2.76,-2.76,-2.76,-2.76,0.0,0.0,0.0,-3.0178,-3.1466,-3.1511,-3.1511,-3.1511,-3.1511,-3.1525,-3.157,-3.2886,-3.3514,-3.3589,-3.4906,-3.5504,-3.5504,-3.5504,-3.5504,-3.5504,-3.5504,-3.5504,-3.5504,-3.5504,-3.5504,-3.5504,-3.5504,-3.5504,-3.5504,-2.6072,-2.6072,-2.6072,0.0,-2.6072,-2.6122,0.0,0.0,0.0,0.0,-2.6499,-2.6499,-2.6499,-2.6499,-2.6499,-2.6499,-2.6499,0.0,0.0,0.0,0.0,-2.6499,-2.6499,-2.6424,-2.6273,-2.6273,0.0,-2.6072,0.0,0.0,-2.6941,0.0,0.0,0.0,0.0,0.0,-2.6974,-2.7385,-2.6987,-2.6072,-2.6072,-2.6416,0.0,0.0,-2.7514,-2.7953,-2.5621,-2.4788,-2.482,-2.502,-2.5231,-2.5471,-2.5915,-2.621,-2.6546,-2.7254,-2.7752,-2.794,-2.7147,-2.7119,-2.7223,-2.7069,-2.6492,-2.6202,0.0,0.0,0.0,0.0,0.0,0.0,0.0,0.0,0.0,0.0,0.0,0.0,0.0,0.0,0.0,0.0,0.0,0.0,0.0,-2.76,-2.76,-2.76,-2.76,0.0,0.0,0.0,0.0,-3.1466,-3.1511,-3.1511,-3.1511,-3.1511,-3.175,-3.2243,-3.3095,-3.3754,-3.4279,-3.5115,-3.5504,-3.5504,-3.5504,-3.5504,-3.5504,-3.5504,-3.5504,-3.5504,-3.5504,-3.5504,-3.5504,-3.5504,-3.5504,-3.5504,-2.6499,0.0,0.0,-2.6499,0.0,0.0,-2.6499,0.0,0.0,-2.6499,-2.67,0.0,-2.6851,-2.7065,-2.7216,-2.7216,-2.7216,0.0,-2.6876,0.0,0.0,-2.6499,-2.6499,-2.6499,-2.6499,-2.6499,0.0,-2.6499,0.0,0.0,-2.7162,0.0,0.0,0.0,0.0,-2.7517,0.0,-2.7196,-2.7129,-2.7007,-2.6658,0.0,0.0,-2.7196,-2.7484,-2.7709,-2.6103,-2.5992,-2.6645,-2.6645,-2.6887,-2.7171,-2.6887,-2.7063,-2.7394,-2.7536,-2.7814,-2.8003,-2.7663,-2.7321,-2.7084,-2.7173,-2.638,-2.5791,-2.661,-2.6341,-2.5883,0.0,0.0,0.0,0.0,0.0,0.0,0.0,0.0,0.0,0.0,0.0,0.0,0.0,0.0,0.0,-2.76,-2.76,-2.76,-2.76,0.0,0.0,0.0,0.0,0.0,-3.1466,-3.1511,-3.1511,-3.1511,-3.1511,-3.1839,-3.2497,-3.3185,-3.3844,-3.4533,-3.519,-3.5504,-3.5504,-3.5504,-3.5504,-3.5504,-3.5504,-3.5504,-3.5504,-3.5504,-3.5504,-3.5504,-3.5504,-3.5504,-3.5504,0.0,0.0,0.0,0.0,0.0,0.0,0.0,-2.665,0.0,-2.67,0.0,-2.7394,-2.7394,-2.7821,-2.8109,-2.8109,0.0,-2.7896,-2.7419,-2.7394,-2.7178,-2.6625,-2.66,-2.6562,-2.6499,-2.6499,0.0,0.0,0.0,0.0,0.0,0.0,0.0,0.0,0.0,0.0,0.0,-2.6521,-2.6905,0.0,-2.6782,-2.6499,-2.6499,-2.6624,-2.6658,-2.6692,-2.6782,-2.7604,-2.8684,-2.878,-2.9317,-2.9721,-2.846,-2.8556,-2.8907,-2.7537,-2.7637,-2.819,-2.815,-2.7763,-2.7359,-2.7415,-2.6334,-2.5397,-2.6056,-2.5682,-2.5239,-2.5345,-2.5935,-2.6295,0.0,0.0,0.0,0.0,0.0,0.0,0.0,0.0,0.0,0.0,0.0,0.0,0.0,0.0,0.0,0.0,0.0,0.0,0.0,0.0,0.0,-3.1466,-3.1511,0.0,-3.1511,0.0,-3.1959,-3.2647,-3.3305,-3.3963,-3.4668,-3.5235,-3.5504,-3.5504,-3.5504,-3.5504,-3.5504,-3.5504,-3.5504,-3.5504,-3.5504,-3.5504,-3.5504,-3.5504,-3.5504,-3.5504,0.0,0.0,0.0,0.0,0.0,-2.7821,-2.7821,-2.7431,-2.7341,-2.7758,-2.7896,-2.7959,-2.7959,-2.8047,-2.8109,-2.8109,-2.8109,0.0,0.0,0.0,0.0,-2.719,-2.7165,-2.6964,-2.6499,-2.6499,-2.6499,0.0,0.0,0.0,0.0,0.0,0.0,0.0,0.0,0.0,-2.7451,-2.6782,0.0,-2.6679,-2.6555,-2.6499,-2.6555,-2.7229,-2.7484,-2.7571,-2.8298,-2.7855,-2.704,-2.7703,-2.8019,-2.833,-2.9473,-2.995,-3.0133,-3.0524,-3.0718,-3.0525,-2.9191,-2.9257,-2.9537,-2.8869,-2.8064,-2.7509,-2.7755,-2.6727,-2.5976,-2.6685,-2.638,-2.6375,-2.7584,0.0,0.0,0.0,0.0,0.0,0.0,0.0,0.0,0.0,0.0,0.0,0.0,0.0,0.0,0.0,0.0,0.0,0.0,0.0,0.0,0.0,-3.1511,0.0,0.0,0.0,-3.2677,-3.3335,-3.3978,-3.4666,-3.5325,-3.5444,-3.5504,-3.5504,-3.5504,-3.5504,-3.5504,-3.5504,-3.5504,-3.5504,-3.5504,-3.5504,-3.5504,-3.5504,-3.5504,-3.5504,0.0,0.0,0.0,0.0,0.0,0.0,0.0,-2.831,0.0,-2.8109,-2.8348,-2.8499,-2.8499,-2.88,-2.8976,-2.8976,-2.8976,-2.885,-2.8549,-2.8499,-2.8285,-2.7733,-2.7708,0.0,-2.7354,-2.7065,-2.6914,-2.6914,0.0,0.0,0.0,0.0,0.0,0.0,0.0,-2.7317,0.0,0.0,0.0,-2.7095,-2.6692,-2.6499,-2.6521,-2.6939,-2.7061,-2.7129,-2.7537,-2.7196,-2.6679,-2.7953,-2.8363,-2.8427,-2.8844,-2.8939,-2.9034,-2.9411,-2.9535,-2.9535,-2.9659,-2.9317,-2.8971,-2.9002,-2.8082,-2.7262,-2.7281,-2.6511,-2.5871,-2.6272,-2.613,-2.6384,-2.7996,-2.8039,0.0,0.0,0.0,0.0,0.0,0.0,0.0,0.0,0.0,0.0,0.0,0.0,0.0,0.0,0.0,0.0,0.0,0.0,0.0,0.0,0.0,0.0,0.0,0.0,0.0,-3.3499,-3.4189,-3.4846,-3.5504,-3.5504,-3.5504,-3.5504,-3.5504,-3.5504,-3.5504,-3.5504,-3.5504,-3.5504,-3.5504,-3.5504,-3.5504,-3.5504,-3.5504,-3.5504,0.0,-2.8197,0.0,0.0,-2.8386,0.0,-2.9051,-2.9076,-2.895,-2.8524,-2.8837,-2.9076,-2.9076,-2.9515,-2.9792,-2.9792,-2.9792,-2.9603,-2.9101,-2.9076,-2.8863,-2.8298,-2.8285,-2.8235,-2.8109,-2.7682,-2.7457,0.0,0.0,0.0,0.0,0.0,0.0,0.0,0.0,0.0,0.0,0.0,-2.7207,-2.7715,-2.7103,-2.6851,-2.6851,-2.6851,-2.6851,-2.6851,-2.6851,-2.6851,-2.7034,-2.8359,-2.8889,-2.8939,-2.862,-2.8524,-2.8524,-2.8524,-2.8395,-2.8524,-2.969,-2.9034,-2.8149,-2.8844,-2.7855,-2.6816,-2.7007,-2.6392,-2.5841,-2.5995,-2.6168,-2.664,-2.7757,-2.8108,0.0,0.0,0.0,0.0,0.0,0.0,0.0,0.0,0.0,0.0,0.0,0.0,0.0,0.0,0.0,-2.9445,-3.0447,-3.0642,0.0,0.0,0.0,-3.157,-3.1705,0.0,-3.3051,0.0,-3.4382,-3.4981,-3.5504,-3.5504,-3.5504,-3.5504,-3.5504,-3.5504,-3.5504,-3.5504,-3.5504,-3.5504,-3.5504,-3.5504,-3.5504,-3.5504,-3.5504,-3.5504,0.0,0.0,0.0,0.0,0.0,0.0,-2.9704,-2.9716,-2.9691,-2.9641,-2.9679,-2.9716,-2.9716,-2.9767,-2.9792,-2.9792,-2.9792,-2.9767,-2.9716,-2.9716,-2.9453,-2.8838,-2.8813,-2.8612,-2.8109,-2.8059,-2.8034,0.0,0.0,0.0,0.0,0.0,0.0,0.0,0.0,0.0,0.0,-2.7982,-2.7982,-2.8055,-2.7982,-2.7946,-2.7946,-2.7946,-2.7946,-2.7946,-2.7946,-2.7946,-2.7982,-2.8115,-2.8539,-2.9254,-3.0673,-3.1161,-3.1161,-3.1161,-3.0614,-2.9919,-2.9286,-2.9002,-2.8907,-2.8971,-2.8298,-2.7802,-2.8588,-2.7564,-2.6637,-2.7359,-2.7505,-2.7393,-2.6948,-2.7515,-2.8084,0.0,0.0,0.0,0.0,0.0,0.0,0.0,0.0,0.0,0.0,0.0,0.0,0.0,0.0,-3.0372,-3.0492,-3.1077,-3.1436,-3.1511,0.0,-3.1795,-3.2392,-3.308,-3.3724,-3.4414,-3.5085,-3.5444,-3.5504,-3.5504,-3.5504,-3.5504,-3.5504,-3.5504,-3.5504,-3.5504,-3.5504,-3.5504,-3.5504,-3.5504,-3.5504,-3.5504,-3.5504,-3.5504,0.0,0.0,0.0,0.0,0.0,0.0,0.0,-2.9792,-2.9792,-2.9792,-2.9792,-2.9792,-2.9792,-2.9792,-2.9792,-2.9792,-2.9792,-2.9792,-2.9792,-2.9792,-2.9691,-2.9453,-2.9453,-2.934,-2.9126,-2.8787,-2.8562,0.0,0.0,0.0,0.0,0.0,0.0,0.0,0.0,-2.8109,-2.8109,-2.8109,-2.8109,-2.8109,-2.8109,-2.8109,-2.8109,-2.8109,-2.8109,-2.8109,-2.8109,-2.8109,-2.817,-2.871,-2.8685,-2.8572,-2.9262,-2.945,-2.9683,-3.0775,-3.0438,-2.9915,-3.0664,-2.9803,-2.8711,-2.8711,-2.784,-2.7061,-2.7417,-2.6973,-2.6589,-2.6905,-2.6973,-2.7064,-2.7256,-2.7561,-2.7848,0.0,0.0,0.0,0.0,0.0,0.0,0.0,0.0,0.0,0.0,0.0,0.0,0.0,0.0,-3.0687,-3.1077,-3.1346,-3.1511,-3.1511,0.0,-3.2213,-3.2512,-3.3559,-3.4249,-3.4518,-3.5175,-3.5504,-3.5504,-3.5504,-3.5504,-3.5504,-3.5504,-3.5504,-3.5504,-3.5504,-3.5504,-3.5504,-3.5504,-3.5504,-3.5504,-3.5504,-3.5504,-3.5504,-2.9792,0.0,-2.9792,0.0,-2.9792,-2.9792,-2.9792,-2.9792,-2.9792,-2.9792,-2.9792,-2.9792,-2.9792,-2.9792,-2.9792,-2.9792,-2.9792,-2.9792,-2.9792,-2.9792,-2.9792,-2.9792,-2.9792,0.0,-2.9792,-2.939,-2.9176,-2.9176,-2.88,0.0,0.0,0.0,0.0,0.0,-2.8599,-2.8599,-2.8599,-2.8599,-2.8599,-2.8599,-2.8599,-2.8599,-2.8599,-2.8599,-2.8599,-2.8599,-2.8599,-2.8599,-2.8698,-2.9321,-2.9114,-2.8647,-2.879,-2.8853,-2.909,-3.0358,-3.0098,-2.9717,-3.1298,-3.0079,-2.8521,-2.9044,-2.8062,-2.6996,-2.7083,-2.692,-2.6688,-2.6524,-2.6499,-2.6692,-2.7229,-2.7537,-2.7769,-2.8051,0.0,0.0,0.0,0.0,0.0,0.0,0.0,-3.0089,-3.0733,0.0,0.0,0.0,0.0,0.0,-3.1481,-3.1511,0.0,0.0,0.0,0.0,0.0,-3.4039,-3.4608,-3.4786,-3.5265,-3.5504,-3.5504,-3.5504,-3.5504,-3.5504,-3.5504,-3.5504,-3.5504,-3.5504,-3.5504,-3.5504,-3.5504,-3.5504,-3.5504,-3.5504,-3.5504,-3.5504,-2.9792,-2.9792,-2.9792,-2.9792,-2.9792,-2.9792,-2.9792,-2.9792,-2.9792,-2.9792,-2.9792,-2.9792,-2.9792,-2.9792,-2.9792,-2.9792,-2.9792,-2.9792,-2.9792,-2.9792,-2.9792,0.0,0.0,-2.9792,-2.9792,-2.9779,-2.9779,-2.9779,0.0,0.0,-2.8109,0.0,-2.8699,-2.9779,-2.9779,-2.9779,-2.9779,-2.9779,-2.9779,-2.9779,-2.9779,-2.9779,-2.9779,-2.9779,-2.9779,-2.9779,-2.9779,-2.9779,-2.9767,-2.9805,-2.9779,-2.9859,-3.0406,-3.0562,-3.0562,-3.0596,-3.0029,-2.9626,-3.0562,-2.9486,-2.853,-3.0324,-2.9403,-2.8138,-2.8412,-2.7872,-2.7153,-2.6612,-2.6499,-2.6499,-2.6499,-2.7162,-2.7986,-2.8844,0.0,0.0,0.0,0.0,0.0,0.0,-3.0778,-3.0599,-3.1394,0.0,0.0,0.0,0.0,0.0,0.0,0.0,0.0,-3.2482,-3.2512,0.0,-3.4474,-3.4503,-3.4816,-3.5489,-3.5504,-3.5504,-3.5504,-3.5504,-3.5504,-3.5504,-3.5504,-3.5504,-3.5504,-3.5504,-3.5504,-3.5504,-3.5504,-3.5504,-3.5504,-3.5504,-3.5504,-3.5504,-2.9792,-2.9792,-2.9792,-2.9792,-2.9792,-2.9792,-2.9792,-2.9792,-2.9792,-2.9792,-2.9792,-2.9792,-2.9792,-2.9792,-2.9792,0.0,-2.9792,-2.9792,0.0,-2.9792,-2.9792,-2.9792,-2.9792,-2.9792,-2.9792,-2.9792,-2.9792,-2.9792,0.0,0.0,0.0,-2.9252,-2.9453,-2.9792,-2.9792,-2.9792,-2.9792,-2.9792,-2.9792,-2.9792,-2.9792,-2.9792,-2.9792,-2.9792,-2.9792,-2.9792,-2.9792,-2.9792,-2.9792,-2.9792,-2.9792,-2.9832,-3.0008,-3.0065,-3.0164,-3.0808,-3.0359,-2.9879,-3.0808,-2.9889,-2.8761,-2.9361,-2.8788,-2.8119,-2.8206,-2.8037,-2.7682,-2.7165,-2.7052,-2.6939,-2.6562,-2.6714,-2.6973,-2.7263,-2.755,0.0,0.0,0.0,0.0,0.0,-3.1278,-3.1219,0.0,-3.1511,0.0,0.0,0.0,0.0,0.0,0.0,0.0,0.0,-3.338,0.0,-3.4503,-3.4936,-3.5295,-3.5504,-3.5504,-3.5504,-3.5504,-3.5504,-3.5504,-3.5504,-3.5504,-3.5504,-3.5504,-3.5504,-3.5504,-3.5504,-3.5504,-3.5504,-3.5504,-3.5504,-3.5504,-3.5504,-2.9792,-2.9792,-2.9792,-2.9792,-2.9792,-2.9792,-2.9792,-2.9792,-2.9792,-2.9792,-2.9792,-2.9792,-2.9792,-2.9792,0.0,-2.9792,-2.9792,-2.9792,-2.9792,-2.9792,-2.9792,-2.9792,-2.9792,-2.9792,-2.9792,0.0,0.0,-2.9792,-2.9792,-2.9792,-2.9792,-2.9792,-2.9792,-2.9792,-2.9792,-2.9792,-2.9792,-2.9792,-2.9792,-2.9792,-2.9792,-2.9792,-2.9792,-2.9792,-2.9792,-2.9792,-2.9792,-2.9792,-2.9792,-2.9792,-2.9792,-2.9792,-2.9792,-2.9792,-2.9934,-3.0482,-3.0241,-2.9998,-3.0932,-3.0249,-2.9315,-2.9667,-2.9263,-2.8687,-2.8461,-2.8247,-2.8009,-2.7657,-2.7595,-2.7494,-2.7178,-2.6952,-2.6892,-2.7212,-2.7067,-2.7417,-2.8812,0.0,0.0,0.0,0.0,0.0,0.0,-3.153,0.0,0.0,0.0,0.0,0.0,0.0,0.0,-3.3245,-3.4038,0.0,-3.4861,-3.5295,-3.5504,-3.5504,-3.5504,-3.5504,-3.5504,-3.5504,-3.5504,-3.5504,-3.5504,-3.5504,-3.5504,-3.5504,-3.5504,-3.5504,-3.5504,-3.5504,-3.5504,-3.5504,-3.5504,-3.5504,-2.9792,-2.9792,-2.9792,0.0,-2.9792,0.0,-2.9792,-2.9792,-2.9792,-2.9792,-2.9792,-2.9792,-2.9792,-2.9792,-2.9792,-2.9792,0.0,0.0,0.0,-2.9792,-2.9792,-2.9792,-2.9792,-2.9792,-2.9792,-2.9792,-2.9792,-2.9792,-2.9792,-2.9792,-2.9792,-2.9792,-2.9792,-2.9792,-2.9792,-2.9792,-2.9792,-2.9792,-2.9792,-2.9792,-2.9792,-2.9792,-2.9792,-2.9792,-2.9792,-2.9792,-2.9792,-2.9792,-2.9792,-2.9792,-2.9792,-2.9792,-2.9792,-2.9792,-2.9792,-2.9792,-2.9792,-3.0011,-3.0871,-3.0457,-2.9998,-3.0871,-3.0457,-2.9654,-2.9076,-2.8599,-2.821,-2.8172,-2.816,-2.8147,-2.8109,-2.7682,-2.7589,-2.8347,-2.805,-2.804,-2.8903,0.0,0.0,0.0,0.0,0.0,0.0,-3.1646,-3.2452,0.0,0.0,0.0,0.0,0.0,-3.3811,-3.4488,-3.4563,-3.4861,-3.5489,-3.5424,-3.5392,-3.5392,-3.5392,-3.5424,-3.5504,-3.5504,-3.5504,-3.5504,-3.5504,-3.5504,-3.5504,-3.5504,-3.5504,-3.5504,-3.5504,-3.5504,-3.5504,-3.5504,-3.5504,-3.5504,0.0,0.0,-2.9792,-2.9792,-2.9792,-2.9792,-2.9792,-2.9792,-2.9792,-2.9792,-2.9792,-2.9792,-2.9792,-2.9792,-2.9792,-2.9792,-2.9792,-2.9792,-2.9792,-2.9792,-2.9792,-2.9792,-2.9792,-2.9792,-2.9792,-2.9792,-2.9792,-2.9792,-2.9792,-2.9792,-2.9792,-2.9792,-2.9792,-2.9792,-2.9792,-2.9792,-2.9792,-2.9792,-2.9792,-2.9792,-2.9792,-2.9792,-2.9792,-2.9792,-2.9792,-2.9792,-2.9792,-2.9792,-2.9792,-2.9792,-2.9792,-2.9792,-2.9792,-2.9792,-2.9792,-2.9792,-2.9792,-2.9869,-3.0075,-2.9972,-2.9856,-3.0075,-2.996,-2.9754,-2.9616,-2.949,-2.9264,-2.8825,-2.87,-2.8612,-2.8185,-2.7996,-2.7981,-2.8172,-2.8107,-2.8312,-2.918,-2.9318,0.0,0.0,-3.0403,-3.0535,-3.0535,-3.1536,-3.1893,0.0,0.0,0.0,0.0,-3.3649,-3.4061,-3.4487,-3.4996,-3.534,-3.5504,-3.4725,-3.4361,-3.4361,-3.4361,-3.4758,-3.5504,-3.5504,-3.5504,-3.5504,-3.5504,-3.5504,-3.5504,-3.5504,-3.5504,-3.5504,-3.5504,-3.5504,-3.5504,-3.5504,-3.5504,-3.5504,-2.9792,-2.9792,-2.9792,-2.9792,-2.9792,-2.9792,-2.9792,-2.9792,-2.9792,-2.9792,-2.9792,-2.9792,-2.9792,-2.9792,-2.9792,-2.9792,-2.9792,-2.9792,-2.9792,-2.9792,-2.9792,-2.9792,-2.9792,-2.9792,-2.9792,-2.9792,-2.9792,-2.9792,-2.9792,-2.9792,-2.9792,-2.9792,-2.9792,-2.9792,-2.9792,-2.9792,-2.9792,-2.9792,-2.9792,-2.9792,-2.9792,-2.9792,-2.9792,-2.9792,-2.9792,-2.9792,-2.9792,-2.9792,-2.9792,-2.9792,-2.9792,-2.9792,-2.9792,-2.9792,-2.9792,-2.9792,-2.9792,-2.9792,-2.9792,-2.9792,-2.9792,-2.9792,-2.9792,-2.9792,-2.9792,-2.9792,-2.9704,-2.939,-2.9327,-2.9239,-2.8925,-2.8662,-2.8486,-2.8486,-2.8273,-2.8279,-2.8746,-2.9148,0.0,-2.9451,-3.0132,-3.046,-3.0098,-3.1148,-3.1652,-3.111,0.0,0.0,-3.2899,-3.3602,-3.4301,-3.4951,-3.486,-3.4806,-3.4806,-3.3856,-3.3345,-3.3345,-3.3345,-3.3636,-3.4158,-3.4158,-3.4409,-3.4806,-3.4806,-3.5067,-3.5504,-3.5504,-3.5504,-3.5504,-3.5504,-3.5504,-3.5504,-3.5504,-3.5504,-3.5504,-2.9792,-2.9792,-2.9792,-2.9792,-2.9792,-2.9792,-2.9792,-2.9792,-2.9792,-2.9792,-2.9792,-2.9792,-2.9792,-2.9792,-2.9792,-2.9792,-2.9792,-2.9792,-2.9792,-2.9792,-2.9792,-2.9792,-2.9792,-2.9792,-2.9792,-2.9792,-2.9792,-2.9792,-2.9792,-2.9792,-2.9792,-2.9792,-2.9792,-2.9792,-2.9792,-2.9792,-2.9792,-2.9792,-2.9792,-2.9792,-2.9792,-2.9792,-2.9792,-2.9792,-2.9792,-2.9792,-2.9792,-2.9792,-2.9792,-2.9792,-2.9792,-2.9792,-2.9792,-2.9792,-2.9792,-2.9792,-2.9792,-2.9792,-2.9792,-2.9792,-2.9792,-2.9792,-2.9792,-2.9792,-2.9792,-2.9792,-2.9792,-2.9792,-2.9792,-2.9792,-2.9792,-2.939,-2.9026,-2.9026,-2.8662,-2.836,-2.836,0.0,-2.9184,-2.8422,-2.9622,-3.0194,-2.9516,-3.0707,-3.1498,-3.1322,-3.2737,-3.3241,-3.2429,-3.3136,-3.4027,-3.5034,-3.4211,-3.3705,-3.3602,-3.2784,-3.2393,-3.2393,-3.2393,-3.2464,-3.2593,-3.2593,-3.3101,-3.3993,-3.3993,-3.4576,-3.5504,-3.5359,-3.5279,-3.5279,-3.5279,-3.5279,-3.5279,-3.5424,-3.5504,-3.5504,-2.9792,-2.9792,-2.9792,-2.9792,-2.9792,-2.9792,-2.9792,-2.9792,-2.9792,-2.9792,-2.9792,-2.9792,-2.9792,-2.9792,-2.9792,-2.9792,-2.9792,-2.9792,-2.9792,-2.9792,-2.9792,-2.9792,-2.9792,-2.9792,-2.9792,-2.9792,-2.9792,-2.9792,-2.9792,-2.9792,-2.9792,-2.9792,-2.9792,-2.9792,-2.9792,-2.9792,-2.9792,-2.9792,-2.9792,-2.9792,-2.9792,-2.9792,-2.9792,-2.9792,-2.9792,-2.9792,-2.9792,-2.9792,-2.9792,-2.9792,-2.9792,-2.9792,-2.9792,-2.9792,-2.9792,-2.9792,-2.9792,-2.9792,-2.9792,-2.9792,-2.9792,-2.9792,-2.9792,-2.9792,-2.9792,-2.9792,-2.9792,-2.9792,-2.9792,-2.9792,-2.9792,-2.9716,-2.9654,-2.9654,-2.9591,-2.9528,-2.9528,0.0,-2.9669,-2.9566,-2.9783,-2.9885,-2.9745,-3.0651,-3.095,-3.0151,-3.1042,-3.1573,-3.1426,-3.1573,-3.2069,-3.3031,-3.289,-3.2464,-3.1646,-3.1499,-3.1426,-3.1426,-3.1426,-3.1815,-3.2593,-3.2593,-3.3101,-3.3993,-3.3993,-3.4576,-3.5424,-3.4576,-3.4245,-3.4245,-3.4245,-3.4245,-3.4327,-3.518,-3.5504,-3.5504,-2.9792,-2.9792,-2.9792,-2.9792,-2.9792,-2.9792,-2.9792,-2.9792,-2.9792,-2.9792,-2.9792,-2.9792,-2.9792,-2.9792,-2.9792,-2.9792,-2.9792,-2.9792,-2.9792,-2.9792,-2.9792,-2.9792,-2.9792,-2.9792,-2.9792,-2.9792,-2.9792,-2.9792,-2.9792,-2.9792,-2.9792,-2.9792,-2.9792,-2.9792,-2.9792,-2.9792,-2.9792,-2.9792,-2.9792,-2.9792,-2.9792,-2.9792,-2.9792,-2.9792,-2.9792,-2.9792,-2.9792,-2.9792,-2.9792,-2.9792,-2.9792,-2.9792,-2.9792,-2.9792,-2.9792,-2.9792,-2.9792,-2.9792,-2.9792,-2.9792,-2.9792,-2.9792,-2.9792,-2.9792,-2.9792,-2.9792,-2.9792,-2.9792,-2.9792,-2.9792,-2.9792,-2.9792,-2.9792,-2.9792,-2.9792,0.0,0.0,-2.9792,-2.9792,-2.9792,-2.9792,-2.9792,-2.9792,-3.0177,-3.0279,-2.983,-3.0658,-3.097,-3.0482,-3.0932,-3.1193,-3.1095,-3.1573,-3.1402,-3.0457,-3.0457,-3.0457,-3.0457,-3.0457,-3.0671,-3.1095,-3.1095,-3.1586,-3.25,-3.25,-3.3031,-3.3905,-3.3429,-3.3241,-3.3241,-3.3241,-3.3553,-3.4061,-3.4509,-3.5019,-3.5504,-2.9792,-2.9792,-2.9792,-2.9792,-2.9792,-2.9792,-2.9792,-2.9792,-2.9792,-2.9792,-2.9792,-2.9792,-2.9792,-2.9792,-2.9792,-2.9792,-2.9792,-2.9792,-2.9792,-2.9792,-2.9792,-2.9792,-2.9792,-2.9792,-2.9792,-2.9792,-2.9792,-2.9792,-2.9792,-2.9792,-2.9792,-2.9792,-2.9792,-2.9792,-2.9792,-2.9792,-2.9792,-2.9792,-2.9792,-2.9792,-2.9792,-2.9792,-2.9792,-2.9792,-2.9792,-2.9792,-2.9792,-2.9792,-2.9792,-2.9792,-2.9792,-2.9792,-2.9792,-2.9792,-2.9792,-2.9792,-2.9792,-2.9792,-2.9792,-2.9792,-2.9792,-2.9792,-2.9792,-2.9792,-2.9792,-2.9792,-2.9792,-2.9792,-2.9792,-2.9792,-2.9792,-2.9792,-2.9792,-2.9792,0.0,0.0,0.0,-2.9792,-2.9792,-2.9792,-2.9792,-2.9792,-2.9792,-2.9792,-2.9792,-2.9792,-3.0482,-3.0558,-2.983,-3.0482,-3.0558,-2.983,-3.0482,-3.052,-2.9792,-2.9792,-2.9792,-2.9792,-2.9792,-2.9792,-2.9792,-2.9792,-3.0317,-3.1217,-3.1217,-3.1742,-3.2558,-3.2357,-3.2285,-3.2321,-3.25,-3.3031,-3.3705,-3.391,-3.4495,-3.5133,-2.9792,-2.9792,-2.9792,-2.9792,-2.9792,-2.9792,-2.9792,-2.9792,-2.9792,-2.9792,-2.9792,-2.9792,-2.9792,-2.9792,-2.9792,-2.9792,-2.9792,-2.9792,-2.9792,-2.9792,-2.9792,-2.9792,-2.9792,-2.9792,-2.9792,-2.9792,-2.9792,-2.9792,-2.9792,-2.9792,-2.9792,-2.9792,-2.9792,-2.9792,-2.9792,-2.9792,-2.9792,-2.9792,-2.9792,-2.9792,-2.9792,-2.9792,-2.9792,-2.9792,-2.9792,-2.9792,-2.9792,-2.9792,-2.9792,-2.9792,-2.9792,-2.9792,-2.9792,-2.9792,-2.9792,-2.9792,-2.9792,-2.9792,-2.9792,-2.9792,-2.9792,-2.9792,-2.9792,-2.9792,-2.9792,-2.9792,-2.9792,-2.9792,-2.9792,-2.9792,-2.9792,-2.9792,-2.9792,-2.9792,0.0,0.0,-2.9792,-2.9792,-2.9792,-2.9792,-2.9792,-2.9792,-2.9792,-2.9792,-2.9792,-2.9792,-2.9856,-2.9856,-2.9792,-2.9869,-2.9856,-2.9792,-2.9869,-2.9869,-2.9792,-2.9792,-2.9792,-2.9792,-2.9792,-2.9792,-2.9792,-2.9792,-3.0317,-3.1217,-3.1217,-3.1742,-3.2522,-3.1669,-3.1278,-3.1389,-3.2249,-3.2629,-3.282,-3.3671,-3.4061,-3.4095,-2.9792,-2.9792,-2.9792,-2.9792,-2.9792,-2.9792,-2.9792,-2.9792,-2.9792,-2.9792,-2.9792,-2.9792,-2.9792,-2.9792,-2.9792,-2.9792,-2.9792,-2.9792,-2.9792,-2.9792,-2.9792,-2.9792,-2.9792,-2.9792,-2.9792,-2.9792,-2.9792,-2.9792,-2.9792,-2.9792,-2.9792,-2.9792,-2.9792,-2.9792,-2.9792,-2.9792,-2.9792,-2.9792,-2.9792,-2.9792,-2.9792,-2.9792,-2.9792,-2.9792,-2.9792,-2.9792,-2.9792,-2.9792,-2.9792,-2.9792,-2.9792,-2.9792,-2.9792,-2.9792,-2.9792,-2.9792,-2.9792,-2.9792,-2.9792,-2.9792,-2.9792,-2.9792,-2.9792,-2.9792,-2.9792,-2.9792,-2.9792,-2.9792,-2.9792,-2.9792,-2.9792,-2.9792,-2.9792,-2.9792,0.0,-2.9792,-2.9792,-2.9792,-2.9792,-2.9792,-2.9792,-2.9792,-2.9792,-2.9792,-2.9792,-2.9792,-2.9792,-2.9792,-2.9792,-2.9792,-2.9792,-2.9792,-2.9792,-2.9792,-2.9792,-2.9792,-2.9792,-2.9792,-2.9792,-2.9792,-2.9792,-2.9792,-2.9998,-3.0317,-3.0317,-3.0533,-3.0859,-3.0495,-3.0317,-3.0381,-3.0709,-3.123,-3.1779,-3.2141,-3.2629,-3.3136,-2.9792,-2.9792,-2.9792,-2.9792,-2.9792,-2.9792,-2.9792,-2.9792,-2.9792,-2.9792,-2.9792,-2.9792,-2.9792,-2.9792,-2.9792,-2.9792,-2.9792,-2.9792,-2.9792,-2.9792,-2.9792,-2.9792,-2.9792,-2.9792,-2.9792,-2.9792,-2.9792,-2.9792,-2.9792,-2.9792,-2.9792,-2.9792,-2.9792,-2.9792,-2.9792,-2.9792,-2.9792,-2.9792,-2.9792,-2.9792,-2.9792,-2.9792,-2.9792,-2.9792,-2.9792,-2.9792,-2.9792,-2.9792,-2.9792,-2.9792,-2.9792,-2.9792,-2.9792,-2.9792,-2.9792,-2.9792,-2.9792,-2.9792,-2.9792,-2.9792,-2.9792,-2.9792,-2.9792,-2.9792,-2.9792,-2.9792,-2.9792,-2.9792,-2.9792,-2.9792,-2.9792,-2.9792,-2.9792,-2.9792,-2.9792,-2.9792,-2.9792,-2.9792,-2.9792,-2.9792,-2.9792,-2.9792,-2.9792,-2.9792,-2.9792,-2.9792,-2.9792,-2.9792,-2.9792,-2.9792,-2.9792,-2.9792,-2.9792,-2.9792,-2.9792,-2.9792,-2.9792,-2.9792,-2.9792,-2.9792,-2.9792,-2.9792,-2.9792,-2.9792,-2.9792,-2.9792,-2.9792,-2.9792,-2.9792,-2.983,-3.0101,-3.062,-3.1217,-3.1217,-3.1609,-3.2177,-2.9792,-2.9792,-2.9792,-2.9792,-2.9792,-2.9792,-2.9792,-2.9792,-2.9792,-2.9792,-2.9792,-2.9792,-2.9792,-2.9792,-2.9792,-2.9792,-2.9792,-2.9792,-2.9792,-2.9792,-2.9792,-2.9792,-2.9792,-2.9792,-2.9792,-2.9792,-2.9792,-2.9792,-2.9792,-2.9792,-2.9792,-2.9792,-2.9792,-2.9792,-2.9792,-2.9792,-2.9792,-2.9792,-2.9792,-2.9792,-2.9792,-2.9792,-2.9792,-2.9792,-2.9792,-2.9792,-2.9792,-2.9792,-2.9792,-2.9792,-2.9792,-2.9792,-2.9792,-2.9792,-2.9792,-2.9792,-2.9792,-2.9792,-2.9792,-2.9792,-2.9792,-2.9792,-2.9792,-2.9792,-2.9792,-2.9792,-2.9792,-2.9792,-2.9792,-2.9792,-2.9792,-2.9792,-2.9792,-2.9792,-2.9792,-2.9792,-2.9792,-2.9792,-2.9792,-2.9792,-2.9792,-2.9792,-2.9792,-2.9792,-2.9792,-2.9792,-2.9792,-2.9792,-2.9792,-2.9792,-2.9792,-2.9792,-2.9792,-2.9792,-2.9792,-2.9792,-2.9792,-2.9792,-2.9792,-2.9792,-2.9792,-2.9792,-2.9792,-2.9792,-2.9792,-2.9792,-2.9792,-2.9792,-2.9792,-2.9895,-3.0833,-3.118,-3.118,-3.118,-3.118,-3.118,-2.9792,-2.9792,-2.9792,-2.9792,-2.9792,-2.9792,-2.9792,-2.9792,-2.9792,-2.9792,-2.9792,-2.9792,-2.9792,-2.9792,-2.9792,-2.9792,-2.9792,-2.9792,-2.9792,-2.9792,-2.9792,-2.9792,-2.9792,-2.9792,-2.9792,-2.9792,-2.9792,-2.9792,-2.9792,-2.9792,-2.9792,-2.9792,-2.9792,-2.9792,-2.9792,-2.9792,-2.9792,-2.9792,-2.9792,-2.9792,-2.9792,-2.9792,-2.9792,-2.9792,-2.9792,-2.9792,-2.9792,-2.9792,-2.9792,-2.9792,-2.9792,-2.9792,-2.9792,-2.9792,-2.9792,-2.9792,-2.9792,-2.9792,-2.9792,-2.9792,-2.9792,-2.9792,-2.9792,-2.9792,-2.9792,-2.9792,-2.9792,-2.9792,-2.9792,-2.9792,-2.9792,-2.9792,-2.9792,-2.9792,-2.9792,-2.9792,-2.9792,-2.9792,-2.9792,-2.9792,-2.9792,-2.9792,-2.9792,-2.9792,-2.9792,-2.9792,-2.9792,-2.9792,-2.9792,-2.9792,-2.9792,-2.9792,-2.9792,-2.9792,-2.9792,-2.9792,-2.9792,-2.9792,-2.9792,-2.9792,-2.9792,-2.9792,-2.9792,-2.9792,-2.9792,-2.9792,-2.9792,-2.9792,-2.9792,-2.983,-3.0101,-3.0203,-3.0203,-3.0203,-3.0203,-3.0203,-3.0419,-3.0419,-3.0369,-3.0156,-3.0118,-3.0043,-2.9829,-2.9792,-2.9792,-2.9792,-2.9792,-2.9792,-2.9792,-2.9792,-2.9792,-2.9792,-2.9792,-2.9792,-2.9792,-2.9792,-2.9792,-2.9792,-2.9792,-2.9792,-2.9792,-2.9792,-2.9792,-2.9792,-2.9792,-2.9792,-2.9792,-3.0018,-3.0118,-3.0131,-3.0331,-3.0419,-3.0419,-3.0419,-3.0419,-3.0419,-3.0419,-3.0419,-3.0419,-3.0419,-3.0419,-3.0419,-3.0419,-3.0419,-3.0419,-3.0419,-3.0419,-3.0394,-3.0181,-3.0118,-3.0068,-2.9854,-2.9792,-2.9792,-2.9792,-2.9792,-2.9792,-2.9792,-2.9792,-2.9792,-2.9792,-2.9792,-2.9792,-2.9792,-2.9792,-2.9792,-2.9792,-2.9792,-2.9792,-2.9792,-2.9792,-2.9792,-2.9792,-2.9792,-2.9792,-2.9792,-2.9792,-2.9792,-2.9792,-2.9792,-2.9792,-2.9792,-2.9792,-2.9792,-2.9792,-2.9792,-2.9792,-2.9792,-2.9792,-2.9792,-2.9792,-2.9792,-2.9792,-2.9792,-2.9792,-2.9792,-2.9792,-2.9792,-2.9792,-2.9792,-2.9792,-2.9792,-2.9792,-2.9792,-2.9792,-2.9792,-2.9792,-2.9792,-2.9792,-2.9792,-2.9792,-2.9792,-3.1386,-3.1386,-3.1248,-3.0771,-3.0683,-3.052,-3.0018,-2.993,-2.993,-2.993,-2.993,-2.993,-2.993,-2.9892,-2.9867,-2.9867,-2.9867,-2.988,-2.993,-2.993,-2.993,-2.993,-2.993,-2.993,-2.993,-2.9892,-2.9867,-2.9867,-2.9917,-2.993,-2.9942,-3.0444,-3.0683,-3.0708,-3.1173,-3.1386,-3.1386,-3.1386,-3.1386,-3.1386,-3.1386,-3.1386,-3.1386,-3.1386,-3.1386,-3.1386,-3.1386,-3.1386,-3.1386,-3.1386,-3.1386,-3.1298,-3.0834,-3.0683,-3.0583,-3.008,-2.993,-2.993,-2.993,-2.9905,-2.9867,-2.9867,-2.9829,-2.9792,-2.9792,-2.9792,-2.9792,-2.9792,-2.9792,-2.9792,-2.9792,-2.9792,-2.9792,-2.9792,-2.9792,-2.9792,-2.9792,-2.9792,-2.9792,-2.9792,-2.9792,-2.9792,-2.9792,-2.9792,-2.9792,-2.9792,-2.9792,-2.9792,-2.9792,-2.9792,-2.9817,-2.9867,-2.9867,-2.9892,-2.993,-2.993,-2.988,-2.9792,-2.9842,-2.9867,-2.9867,-2.9917,-2.993,-2.993,-2.993,-2.993,-2.993,-2.993,-2.993,-2.993,-2.993,-2.9905,-2.9867,-2.9867,-2.9829,-2.9792,-3.1386,-3.1386,-3.1348,-3.1248,-3.1223,-3.1185,-3.106,-3.1047,-3.1047,-3.1047,-3.1047,-3.1047,-3.1047,-3.0683,-3.0432,-3.0432,-3.0432,-3.0608,-3.1022,-3.1047,-3.1047,-3.1047,-3.1047,-3.1047,-3.1047,-3.0645,-3.0432,-3.0432,-3.0846,-3.1047,-3.1047,-3.1173,-3.1223,-3.1223,-3.1336,-3.1386,-3.1386,-3.1386,-3.1386,-3.1386,-3.1386,-3.1386,-3.1386,-3.1386,-3.1386,-3.1386,-3.1386,-3.1386,-3.1386,-3.1386,-3.1386,-3.1373,-3.126,-3.1223,-3.1198,-3.1085,-3.1047,-3.1047,-3.1047,-3.0746,-3.0432,-3.0432,-3.0118,-2.9792,-2.9792,-2.9792,-2.9792,-2.9792,-2.9792,-2.9792,-2.9792,-2.9792,-2.9792,-2.9792,-2.9792,-2.9792,-2.9792,-2.9792,-2.9792,-2.9792,-2.9792,-2.9792,-2.9792,-2.9792,-2.9792,-2.9792,-2.9792,-2.9792,-2.9792,-2.9792,-2.9993,-3.0419,-3.0432,-3.0633,-3.1035,-3.1047,-3.062,-2.9804,-3.0231,-3.0432,-3.0457,-3.0859,-3.1047,-3.1047,-3.1047,-3.1047,-3.1047,-3.1047,-3.1047,-3.1047,-3.1047,-3.0796,-3.0432,-3.0432,-3.0168,-2.9792,-3.219,-3.219,-3.2102,-3.1825,-3.1788,-3.17,-3.1436,-3.1386,-3.1386,-3.1386,-3.1386,-3.1386,-3.1386,-3.1148,-3.0984,-3.0984,-3.0984,-3.1097,-3.1373,-3.1386,-3.1386,-3.1386,-3.1386,-3.1386,-3.1386,-3.1386,-3.1248,-3.0984,-3.126,-3.1386,-3.1399,-3.1662,-3.1788,-3.1788,-3.2064,-3.219,-3.219,-3.219,-3.219,-3.219,-3.219,-3.219,-3.219,-3.219,-3.219,-3.219,-3.219,-3.219,-3.219,-3.219,-3.219,-3.2152,-3.1863,-3.1788,-3.1725,-3.1461,-3.1386,-3.1386,-3.1386,-3.1198,-3.0984,-3.0984,-3.0771,-3.0419,-2.9917,-2.9792,-2.9792,-2.9792,-2.9792,-2.9792,-2.9792,-2.9792,-2.9792,-2.9792,-2.9792,-2.9792,-2.9792,-2.9792,-2.9792,-2.9792,-2.9792,-2.9792,-2.9792,-2.9792,-2.9792,-2.9792,-3.0043,-3.0181,-3.0181,-3.0419,-3.0683,-3.0972,-3.0984,-3.1122,-3.1386,-3.1386,-3.111,-3.0557,-3.0846,-3.0984,-3.0997,-3.1273,-3.1386,-3.1386,-3.1386,-3.1386,-3.1386,-3.1386,-3.1386,-3.1386,-3.1386,-3.1223,-3.0984,-3.0984,-3.0645,-3.0143,-3.3124,-3.3124,-3.2918,-3.2441,-3.2353,-3.2202,-3.175,-3.1675,-3.1675,-3.1675,-3.1675,-3.1675,-3.1675,-3.1587,-3.1537,-3.1537,-3.1537,-3.1574,-3.1662,-3.1675,-3.1675,-3.1675,-3.1675,-3.1675,-3.1675,-3.2127,-3.2089,-3.1537,-3.1637,-3.1675,-3.1687,-3.2152,-3.2353,-3.239,-3.2867,-3.3124,-3.3124,-3.3124,-3.3124,-3.3124,-3.3124,-3.3124,-3.3124,-3.3124,-3.3124,-3.3124,-3.3124,-3.3124,-3.3124,-3.3124,-3.3124,-3.2993,-3.2516,-3.2353,-3.2265,-3.1813,-3.1675,-3.1675,-3.1675,-3.1612,-3.1537,-3.1537,-3.1461,-3.116,-3.0269,-2.9993,-2.993,-2.993,-2.9854,-2.9792,-2.9792,-2.9792,-2.9792,-2.9792,-2.9792,-2.9792,-2.9792,-2.9792,-2.9792,-2.9792,-2.9792,-2.9792,-2.9792,-2.988,-2.993,-2.993,-3.0432,-3.0746,-3.0746,-3.116,-3.1436,-3.1524,-3.1537,-3.1587,-3.1675,-3.1675,-3.1675,-3.1675,-3.1675,-3.1625,-3.1537,-3.1637,-3.1675,-3.1675,-3.1675,-3.1675,-3.1675,-3.1675,-3.1675,-3.1675,-3.1675,-3.1612,-3.1524,-3.1424,-3.106,-3.0557,-3.3124,-3.3124,-3.3056,-3.2968,-3.2998,-3.293,-3.2898,-3.2855,-3.2855,-3.2855,-3.2855,-3.2855,-3.2855,-3.2403,-3.2102,-3.2102,-3.2102,-3.2315,-3.286,-3.2855,-3.2855,-3.2855,-3.2855,-3.2855,-3.2855,-3.2918,-3.2679,-3.2102,-3.2604,-3.2855,-3.2855,-3.2918,-3.2998,-3.2968,-3.3043,-3.3124,-3.3124,-3.3124,-3.3124,-3.3124,-3.3124,-3.3124,-3.3124,-3.3124,-3.3124,-3.3124,-3.3124,-3.3124,-3.3124,-3.3124,-3.3124,-3.3111,-3.298,-3.2998,-3.2943,-3.2867,-3.2855,-3.2855,-3.2855,-3.2491,-3.2102,-3.2102,-3.1738,-3.1348,-3.121,-3.0821,-3.0507,-3.0507,-3.0118,-2.9792,-2.9792,-2.9792,-2.9792,-2.9792,-2.9792,-2.9792,-2.9792,-2.9792,-2.9792,-2.9792,-2.9792,-2.9792,-2.9792,-3.0218,-3.0507,-3.0507,-3.0984,-3.1286,-3.1286,-3.1348,-3.1612,-3.2089,-3.2102,-3.234,-3.2842,-3.2855,-3.2855,-3.2855,-3.2855,-3.2591,-3.2114,-3.2616,-3.2855,-3.2855,-3.2855,-3.2855,-3.2855,-3.2855,-3.2855,-3.2855,-3.2855,-3.2541,-3.2039,-3.1562,-3.106,-3.0608,-3.3124,-3.3124,-3.3124,-3.3124,-3.3124,-3.3124,-3.3124,-3.3124,-3.3124,-3.3124,-3.3124,-3.3124,-3.3124,-3.2855,-3.2692,-3.2692,-3.2692,-3.2805,-3.3056,-3.3124,-3.3124,-3.3124,-3.3124,-3.3124,-3.3124,-3.3124,-3.2955,-3.2692,-3.2955,-3.3124,-3.3124,-3.3124,-3.3124,-3.3124,-3.3124,-3.3124,-3.3124,-3.3124,-3.3124,-3.3124,-3.3124,-3.3124,-3.3124,-3.3124,-3.3124,-3.3124,-3.3124,-3.3124,-3.3124,-3.3124,-3.3124,-3.3124,-3.3124,-3.3124,-3.3124,-3.3124,-3.3124,-3.3124,-3.3124,-3.2893,-3.2692,-3.2692,-3.2516,-3.2328,-3.2328,-3.1901,-3.1424,-3.111,-3.0859,-3.0595,-3.0306,-3.0256,-3.0156,-2.9842,-2.9792,-2.9792,-2.9792,-2.9792,-2.9792,-2.9792,-3.0068,-3.0256,-3.0256,-3.0733,-3.1047,-3.1047,-3.1549,-3.1851,-3.1851,-3.2152,-3.2441,-3.2692,-3.2692,-3.2817,-3.3124,-3.3124,-3.3124,-3.3124,-3.3124,-3.2943,-3.2704,-3.2968,-3.3124,-3.3124,-3.3124,-3.3124,-3.3124,-3.3124,-3.3124,-3.3124,-3.3124,-3.2918,-3.2629,-3.2064,-3.17,-3.1461]},{"header":{"parameterUnit":"m.s-1","parameterCategory":1,"la1":30.6,"la2":28.766,"lo1":-90.7593,"lo2":-88.6598,"dy":0.0162,"dx":0.0183,"nx":116,"ny":114,"refTime":"2023-02-22T18:00:00:Z","depth":0,"parameterNumber":3,"parameterNumberName":"V-component_of_WINDS"},"data":[0.0,0.0,0.0,0.0,0.0,0.0,0.0,0.0,0.0,0.0,0.0,0.0,0.0,0.0,0.0,0.0,0.0,0.0,0.0,0.0,0.0,0.0,0.0,0.0,0.0,0.0,0.0,0.0,0.0,0.0,0.0,0.0,0.0,0.0,0.0,0.0,0.0,0.0,0.0,0.0,0.0,0.0,0.0,0.0,0.0,0.0,0.0,0.0,0.0,0.0,0.0,0.0,0.0,0.0,0.0,0.0,0.0,0.0,0.0,0.0,0.0,0.0,0.0,0.0,0.0,0.0,0.0,0.0,0.0,0.0,0.0,0.0,0.0,0.0,0.0,0.0,0.0,0.0,0.0,0.0,0.0,0.0,0.0,0.0,0.0,0.0,0.0,0.0,0.0,0.0,0.0,0.0,0.0,0.0,0.0,0.0,0.0,0.0,0.0,0.0,0.0,0.0,0.0,0.0,0.0,0.0,0.0,0.0,0.0,0.0,0.0,0.0,0.0,0.0,0.0,0.0,0.0,0.0,0.0,0.0,0.0,0.0,0.0,0.0,0.0,0.0,0.0,0.0,0.0,0.0,0.0,0.0,0.0,0.0,0.0,0.0,0.0,0.0,0.0,0.0,0.0,0.0,0.0,0.0,0.0,0.0,0.0,0.0,0.0,0.0,0.0,0.0,0.0,0.0,0.0,0.0,0.0,0.0,0.0,0.0,0.0,0.0,0.0,0.0,0.0,0.0,0.0,0.0,0.0,0.0,0.0,0.0,0.0,0.0,0.0,0.0,0.0,0.0,0.0,0.0,0.0,0.0,0.0,0.0,0.0,0.0,0.0,0.0,0.0,0.0,0.0,0.0,0.0,0.0,0.0,0.0,0.0,0.0,0.0,0.0,0.0,0.0,0.0,0.0,0.0,0.0,0.0,0.0,0.0,0.0,0.0,0.0,0.0,0.0,0.0,0.0,0.0,0.0,0.0,0.0,0.0,0.0,0.0,0.0,0.0,0.0,0.0,0.0,0.0,0.0,0.0,0.0,0.0,0.0,0.0,0.0,0.0,0.0,0.0,0.0,0.0,0.0,0.0,0.0,0.0,0.0,0.0,0.0,0.0,0.0,0.0,0.0,0.0,0.0,0.0,0.0,0.0,0.0,0.0,0.0,0.0,0.0,0.0,0.0,0.0,0.0,0.0,0.0,0.0,0.0,0.0,0.0,0.0,0.0,0.0,0.0,0.0,0.0,0.0,0.0,0.0,0.0,0.0,0.0,0.0,0.0,0.0,0.0,0.0,0.0,0.0,0.0,0.0,0.0,0.0,0.0,0.0,0.0,0.0,0.0,0.0,0.0,0.0,0.0,0.0,0.0,0.0,0.0,0.0,0.0,0.0,0.0,0.0,0.0,0.0,0.0,0.0,0.0,0.0,0.0,0.0,0.0,0.0,0.0,0.0,0.0,0.0,0.0,0.0,0.0,0.0,0.0,0.0,0.0,0.0,0.0,0.0,0.0,0.0,0.0,0.0,0.0,0.0,0.0,0.0,0.0,0.0,0.0,0.0,0.0,0.0,0.0,0.0,0.0,0.0,0.0,0.0,0.0,0.0,0.0,0.0,0.0,0.0,0.0,0.0,0.0,0.0,0.0,0.0,0.0,0.0,0.0,0.0,0.0,0.0,0.0,0.0,0.0,0.0,0.0,0.0,0.0,0.0,0.0,0.0,0.0,0.0,0.0,0.0,0.0,0.0,0.0,0.0,0.0,0.0,0.0,0.0,0.0,0.0,0.0,0.0,0.0,0.0,0.0,0.0,0.0,0.0,0.0,0.0,0.0,0.0,0.0,0.0,0.0,0.0,0.0,0.0,0.0,0.0,0.0,0.0,0.0,0.0,0.0,0.0,0.0,0.0,0.0,0.0,0.0,0.0,0.0,0.0,0.0,0.0,0.0,0.0,0.0,0.0,0.0,0.0,0.0,0.0,0.0,0.0,0.0,0.0,0.0,0.0,0.0,0.0,0.0,0.0,0.0,0.0,0.0,0.0,0.0,0.0,0.0,0.0,0.0,0.0,0.0,0.0,0.0,0.0,0.0,0.0,0.0,0.0,0.0,0.0,0.0,0.0,0.0,0.0,0.0,0.0,0.0,0.0,0.0,0.0,0.0,0.0,0.0,0.0,0.0,0.0,0.0,0.0,0.0,0.0,0.0,0.0,0.0,0.0,0.0,0.0,0.0,0.0,0.0,0.0,0.0,0.0,0.0,0.0,0.0,0.0,0.0,0.0,0.0,0.0,0.0,0.0,0.0,0.0,0.0,0.0,0.0,0.0,0.0,0.0,0.0,0.0,0.0,0.0,0.0,0.0,0.0,0.0,0.0,0.0,0.0,0.0,0.0,0.0,0.0,0.0,0.0,0.0,0.0,0.0,0.0,0.0,0.0,0.0,0.0,0.0,0.0,0.0,0.0,0.0,0.0,0.0,0.0,0.0,0.0,0.0,0.0,0.0,0.0,0.0,0.0,0.0,0.0,0.0,0.0,0.0,0.0,0.0,0.0,0.0,0.0,0.0,0.0,0.0,0.0,0.0,0.0,0.0,0.0,0.0,0.0,0.0,0.0,0.0,0.0,0.0,0.0,0.0,0.0,0.0,0.0,0.0,0.0,0.0,0.0,0.0,0.0,0.0,0.0,0.0,0.0,0.0,0.0,0.0,0.0,0.0,0.0,0.0,0.0,0.0,0.0,0.0,0.0,0.0,0.0,0.0,0.0,0.0,0.0,0.0,0.0,0.0,0.0,0.0,0.0,0.0,0.0,0.0,0.0,0.0,0.0,0.0,0.0,0.0,0.0,0.0,0.0,0.0,0.0,0.0,0.0,0.0,0.0,0.0,0.0,0.0,0.0,0.0,0.0,0.0,0.0,0.0,0.0,0.0,0.0,0.0,0.0,0.0,0.0,0.0,0.0,0.0,0.0,0.0,0.0,0.0,0.0,0.0,0.0,0.0,0.0,0.0,0.0,0.0,0.0,0.0,0.0,0.0,0.0,0.0,0.0,0.0,0.0,0.0,0.0,0.0,0.0,0.0,0.0,0.0,0.0,0.0,0.0,0.0,0.0,0.0,0.0,0.0,0.0,0.0,0.0,0.0,0.0,0.0,0.0,0.0,0.0,0.0,0.0,0.0,0.0,0.0,0.0,0.0,0.0,0.0,0.0,0.0,0.0,0.0,0.0,0.0,0.0,0.0,0.0,0.0,0.0,0.0,0.0,0.0,0.0,0.0,0.0,0.0,0.0,0.0,0.0,0.0,0.0,0.0,0.0,0.0,0.0,0.0,0.0,0.0,0.0,0.0,0.0,0.0,0.0,0.0,0.0,0.0,0.0,0.0,0.0,0.0,0.0,0.0,0.0,0.0,0.0,0.0,0.0,0.0,0.0,0.0,0.0,0.0,0.0,0.0,0.0,0.0,0.0,0.0,0.0,0.0,0.0,0.0,0.0,0.0,0.0,0.0,0.0,0.0,0.0,0.0,0.0,0.0,0.0,0.0,0.0,0.0,0.0,0.0,0.0,0.0,0.0,0.0,0.0,0.0,0.0,0.0,0.0,0.0,0.0,0.0,0.0,0.0,0.0,0.0,0.0,0.0,0.0,0.0,0.0,0.0,0.0,0.0,0.0,0.0,0.0,0.0,0.0,0.0,0.0,0.0,0.0,0.0,0.0,0.0,0.0,0.0,0.0,0.0,0.0,0.0,0.0,0.0,0.0,0.0,0.0,0.0,0.0,0.0,0.0,0.0,0.0,0.0,0.0,0.0,0.0,0.0,0.0,0.0,0.0,0.0,0.0,0.0,0.0,0.0,0.0,0.0,0.0,0.0,0.0,0.0,0.0,0.0,0.0,0.0,0.0,0.0,0.0,0.0,0.0,0.0,0.0,0.0,0.0,0.0,0.0,0.0,0.0,0.0,0.0,0.0,0.0,0.0,0.0,0.0,0.0,0.0,0.0,0.0,0.0,0.0,0.0,0.0,0.0,0.0,0.0,0.0,0.0,0.0,0.0,0.0,0.0,0.0,0.0,0.0,0.0,0.0,0.0,0.0,0.0,0.0,0.0,0.0,0.0,0.0,0.0,0.0,0.0,0.0,0.0,0.0,0.0,0.0,0.0,0.0,0.0,0.0,0.0,0.0,0.0,0.0,0.0,0.0,0.0,0.0,0.0,0.0,0.0,0.0,0.0,0.0,0.0,0.0,0.0,0.0,0.0,0.0,0.0,0.0,0.0,0.0,0.0,0.0,0.0,0.0,0.0,0.0,0.0,0.0,0.0,0.0,0.0,0.0,0.0,0.0,0.0,0.0,0.0,0.0,0.0,0.0,0.0,0.0,0.0,0.0,0.0,0.0,0.0,0.0,0.0,0.0,0.0,0.0,0.0,0.0,0.0,0.0,0.0,0.0,0.0,0.0,0.0,0.0,0.0,0.0,0.0,0.0,0.0,0.0,0.0,0.0,0.0,0.0,0.0,0.0,0.0,0.0,0.0,0.0,0.0,0.0,0.0,0.0,0.0,0.0,0.0,0.0,0.0,0.0,0.0,0.0,0.0,0.0,0.0,0.0,0.0,0.0,0.0,0.0,0.0,0.0,0.0,0.0,0.0,0.0,0.0,0.0,0.0,0.0,0.0,0.0,0.0,0.0,0.0,0.0,0.0,0.0,0.0,0.0,0.0,0.0,0.0,0.0,0.0,0.0,0.0,0.0,0.0,0.0,0.0,0.0,0.0,0.0,0.0,0.0,0.0,0.0,0.0,0.0,0.0,0.0,0.0,0.0,0.0,0.0,0.0,0.0,0.0,0.0,0.0,0.0,0.0,0.0,0.0,0.0,0.0,0.0,0.0,0.0,0.0,0.0,0.0,0.0,0.0,0.0,0.0,0.0,0.0,0.0,0.0,0.0,0.0,0.0,0.0,0.0,0.0,0.0,0.0,0.0,0.0,0.0,0.0,0.0,0.0,0.0,0.0,0.0,0.0,0.0,0.0,0.0,0.0,0.0,0.0,0.0,0.0,0.0,0.0,0.0,0.0,0.0,0.0,0.0,0.0,0.0,0.0,0.0,0.0,0.0,0.0,0.0,0.0,0.0,0.0,0.0,0.0,0.0,0.0,0.0,0.0,0.0,0.0,0.0,0.0,0.0,0.0,0.0,0.0,0.0,0.0,0.0,0.0,0.0,0.0,0.0,0.0,0.0,0.0,0.0,0.0,0.0,0.0,0.0,0.0,0.0,0.0,0.0,0.0,0.0,0.0,0.0,0.0,0.0,0.0,0.0,0.0,0.0,0.0,0.0,0.0,0.0,0.0,0.0,0.0,0.0,0.0,0.0,0.0,0.0,0.0,0.0,0.0,0.0,0.0,0.0,0.0,0.0,0.0,0.0,0.0,0.0,0.0,0.0,0.0,0.0,0.0,0.0,0.0,0.0,0.0,0.0,0.0,0.0,0.0,0.0,0.0,0.0,0.0,0.0,0.0,0.0,0.0,0.0,0.0,0.0,0.0,0.0,0.0,0.0,0.0,0.0,0.0,0.0,0.0,0.0,0.0,0.0,0.0,0.0,0.0,0.0,0.0,0.0,0.0,0.0,0.0,0.0,0.0,0.0,0.0,0.0,0.0,0.0,0.0,0.0,0.0,0.0,0.0,0.0,0.0,0.0,0.0,0.0,0.0,0.0,0.0,0.0,0.0,0.0,0.0,0.0,0.0,0.0,0.0,0.0,0.0,0.0,0.0,0.0,0.0,0.0,0.0,0.0,0.0,0.0,0.0,0.0,0.0,0.0,0.0,0.0,0.0,0.0,0.0,0.0,0.0,0.0,0.0,0.0,0.0,0.0,0.0,0.0,0.0,0.0,0.0,0.0,0.0,0.0,0.0,0.0,0.0,0.0,0.0,0.0,0.0,0.0,0.0,0.0,0.0,0.0,0.0,0.0,0.0,0.0,0.0,0.0,0.0,0.0,0.0,0.0,0.0,0.0,0.0,0.0,0.0,0.0,0.0,0.0,0.0,0.0,0.0,0.0,0.0,0.0,0.0,0.0,0.0,0.0,0.0,0.0,0.0,0.0,0.0,0.0,0.0,0.0,0.0,0.0,0.0,1.7544,0.0,0.0,0.0,0.0,0.0,0.0,0.0,0.0,0.0,0.0,0.0,0.0,0.0,0.0,0.0,0.0,0.0,0.0,0.0,0.0,0.0,0.0,0.0,0.0,0.0,0.0,0.0,0.0,0.0,0.0,0.0,0.0,0.0,0.0,0.0,0.0,0.0,0.0,0.0,0.0,0.0,0.0,0.0,0.0,0.0,0.0,0.0,0.0,0.0,0.0,0.0,0.0,0.0,0.0,0.0,0.0,0.0,0.0,0.0,0.0,0.0,0.0,0.0,0.0,0.0,0.0,0.0,0.0,0.0,0.0,0.0,0.0,0.0,0.0,0.0,0.0,0.0,0.0,0.0,0.0,0.0,0.0,0.0,0.0,0.0,0.0,0.0,0.0,0.0,0.0,0.0,0.0,0.0,0.0,0.0,0.0,0.0,0.0,0.0,0.0,0.0,0.0,0.0,0.0,0.0,0.0,0.0,0.0,0.0,0.0,0.0,0.0,0.0,0.0,0.0,0.0,1.7827,0.0,0.0,0.0,0.0,0.0,0.0,0.0,0.0,0.0,0.0,0.0,0.0,0.0,0.0,0.0,0.0,0.0,0.0,0.0,0.0,0.0,0.0,0.0,0.0,0.0,0.0,0.0,0.0,0.0,0.0,0.0,0.0,0.0,0.0,0.0,0.0,0.0,0.0,0.0,0.0,0.0,0.0,0.0,0.0,0.0,0.0,0.0,0.0,0.0,0.0,0.0,0.0,0.0,0.0,0.0,0.0,0.0,0.0,0.0,0.0,0.0,0.0,0.0,0.0,0.0,0.0,0.0,0.0,0.0,0.0,0.0,0.0,0.0,0.0,0.0,0.0,0.0,0.0,0.0,0.0,0.0,0.0,0.0,0.0,0.0,0.0,0.0,0.0,0.0,0.0,0.0,0.0,0.0,0.0,0.0,0.0,0.0,0.0,0.0,0.0,0.0,0.0,0.0,0.0,0.0,0.0,0.0,0.0,1.7848,1.8186,1.8722,1.8722,1.8972,1.9358,1.8933,1.8805,1.8874,0.0,0.0,0.0,0.0,0.0,0.0,0.0,0.0,0.0,0.0,0.0,0.0,0.0,0.0,0.0,0.0,0.0,0.0,0.0,0.0,0.0,0.0,0.0,0.0,0.0,0.0,0.0,0.0,0.0,0.0,0.0,0.0,0.0,0.0,0.0,0.0,0.0,0.0,0.0,1.65,1.65,1.6423,1.6272,0.0,0.0,0.0,0.0,0.0,0.0,0.0,0.0,0.0,0.0,0.0,0.0,0.0,0.0,0.0,0.0,0.0,0.0,0.0,0.0,0.0,0.0,0.0,0.0,0.0,0.0,0.0,0.0,0.0,0.0,0.0,0.0,0.0,0.0,0.0,0.0,0.0,0.0,0.0,0.0,0.0,0.0,0.0,0.0,1.65,1.65,0.0,0.0,0.0,0.0,0.0,0.0,0.0,0.0,0.0,0.0,0.0,0.0,0.0,1.7987,1.7987,1.8458,1.8974,1.9564,2.0026,2.0606,2.1233,2.1233,2.1253,2.1327,2.1268,0.0,1.8893,1.8817,0.0,0.0,0.0,0.0,0.0,0.0,0.0,0.0,0.0,0.0,0.0,0.0,0.0,0.0,0.0,0.0,0.0,0.0,0.0,0.0,0.0,0.0,0.0,0.0,0.0,0.0,0.0,0.0,0.0,0.0,0.0,0.0,0.0,0.0,0.0,0.0,1.65,1.65,1.65,1.65,1.65,1.65,1.65,1.65,1.65,1.65,0.0,0.0,0.0,0.0,0.0,0.0,0.0,0.0,0.0,0.0,0.0,0.0,0.0,0.0,0.0,0.0,0.0,0.0,0.0,0.0,0.0,0.0,0.0,0.0,0.0,0.0,0.0,0.0,0.0,0.0,0.0,0.0,0.0,0.0,0.0,0.0,0.0,0.0,0.0,1.65,1.65,1.65,1.65,1.65,0.0,0.0,0.0,0.0,0.0,0.0,0.0,0.0,0.0,1.8535,1.8908,1.9106,1.9106,1.9721,2.0171,2.0445,2.0702,2.1104,2.1695,2.1695,2.1695,2.1695,2.1695,2.1233,2.0445,2.0072,1.9372,1.8574,0.0,0.0,0.0,0.0,1.9849,2.0331,0.0,0.0,0.0,0.0,0.0,0.0,0.0,0.0,0.0,0.0,0.0,0.0,0.0,0.0,0.0,1.5776,0.0,0.0,0.0,0.0,0.0,0.0,0.0,0.0,0.0,0.0,0.0,0.0,1.6638,1.6735,1.6735,1.6864,1.6926,1.6926,1.6926,1.6763,1.65,1.65,1.65,0.0,0.0,0.0,0.0,0.0,0.0,0.0,0.0,0.0,0.0,0.0,0.0,0.0,0.0,0.0,0.0,0.0,0.0,0.0,0.0,0.0,0.0,0.0,0.0,0.0,0.0,0.0,0.0,0.0,0.0,0.0,0.0,0.0,0.0,0.0,0.0,0.0,0.0,1.65,1.65,1.65,1.6616,1.6689,0.0,0.0,0.0,0.0,0.0,0.0,1.8545,1.84,1.8708,1.9589,1.9937,2.0177,2.0351,2.0852,2.1178,2.1374,2.1535,2.1898,2.2458,2.2622,2.2607,2.2443,2.2443,2.2263,2.1889,2.1231,2.0438,1.9628,1.9628,1.9628,1.9599,1.9541,1.9963,2.0564,0.0,0.0,0.0,0.0,0.0,0.0,0.0,0.0,0.0,0.0,0.0,0.0,0.0,0.0,1.5798,1.6402,1.6445,1.6466,0.0,0.0,0.0,0.0,0.0,0.0,0.0,0.0,0.0,1.65,1.7074,1.736,1.7373,1.7877,1.8116,1.8116,1.8116,1.7526,1.65,1.65,1.65,1.65,0.0,0.0,0.0,0.0,0.0,0.0,0.0,0.0,0.0,0.0,0.0,0.0,0.0,0.0,0.0,0.0,0.0,0.0,0.0,0.0,0.0,0.0,0.0,0.0,0.0,0.0,0.0,0.0,0.0,0.0,0.0,0.0,0.0,0.0,0.0,0.0,0.0,0.0,0.0,1.65,1.6951,0.0,0.0,0.0,0.0,1.8066,1.8086,1.8607,1.976,1.9202,1.9694,2.1501,2.0962,2.0956,2.1595,2.164,2.1989,2.2616,2.3199,2.3805,2.4485,2.5098,2.5053,2.4455,2.4455,2.3774,2.2598,2.1939,2.16,2.157,2.157,2.157,2.152,2.1265,2.1203,2.1288,0.0,0.0,0.0,0.0,0.0,0.0,0.0,0.0,0.0,0.0,0.0,0.0,0.0,1.5964,1.6259,1.6466,1.65,1.65,1.65,0.0,0.0,0.0,0.0,0.0,0.0,0.0,1.7074,1.7074,1.7639,1.7903,1.7915,1.8116,1.8204,1.8204,1.8204,1.7978,1.7576,1.7225,1.7074,1.7049,1.6672,1.65,0.0,0.0,0.0,0.0,0.0,0.0,0.0,0.0,0.0,0.0,0.0,0.0,0.0,0.0,0.0,0.0,0.0,0.0,0.0,0.0,0.0,0.0,0.0,0.0,0.0,0.0,0.0,0.0,0.0,0.0,0.0,0.0,0.0,0.0,0.0,0.0,0.0,1.7442,1.7775,0.0,0.0,1.91,1.9716,1.9287,1.9578,1.9965,2.0393,2.0187,2.0369,2.1041,2.1225,2.1621,2.22,2.2724,2.3287,2.3868,2.4557,2.4993,2.5247,2.5495,2.5457,2.5232,2.5232,2.5001,2.4552,2.4313,2.3221,2.1695,2.1695,2.1695,2.1684,2.159,2.1926,2.2477,0.0,0.0,0.0,0.0,0.0,0.0,0.0,0.0,0.0,0.0,0.0,1.5908,1.5908,1.6259,1.65,1.65,1.65,1.65,1.65,0.0,0.0,0.0,0.0,0.0,0.0,1.7209,1.7498,1.7664,1.8216,1.8456,1.8456,1.8668,1.8744,1.8744,1.8744,1.8744,1.8706,1.8166,1.7827,1.7614,1.7036,1.681,1.6785,0.0,0.0,0.0,0.0,0.0,0.0,0.0,0.0,0.0,0.0,0.0,0.0,0.0,0.0,0.0,0.0,0.0,0.0,0.0,0.0,0.0,0.0,0.0,0.0,0.0,0.0,0.0,0.0,0.0,0.0,0.0,0.0,0.0,0.0,0.0,1.7384,1.8085,1.8573,1.8917,1.9094,1.9978,2.0437,2.0181,2.0514,2.0719,2.0741,2.091,2.1218,2.1686,2.213,2.2596,2.3168,2.3707,2.4018,2.4145,2.5107,2.5579,2.5579,2.6057,2.6153,2.5944,2.5944,2.5809,2.5615,2.5615,2.4582,2.2996,2.2772,2.2547,2.2323,2.2099,2.243,2.2982,0.0,0.0,0.0,0.0,0.0,0.0,0.0,0.0,0.0,0.0,1.6139,1.65,1.65,1.65,1.65,1.65,1.65,1.65,1.65,1.65,0.0,0.0,0.0,0.0,1.7423,1.7448,1.7689,1.8229,1.8757,1.9033,1.9058,1.9597,1.9836,1.9849,1.9849,1.9849,1.9823,1.9296,1.877,1.8254,1.7652,1.7423,1.7373,0.0,0.0,0.0,0.0,0.0,0.0,0.0,0.0,0.0,0.0,0.0,0.0,0.0,0.0,0.0,0.0,0.0,0.0,0.0,0.0,0.0,0.0,0.0,0.0,0.0,0.0,0.0,0.0,0.0,0.0,0.0,0.0,0.0,1.6622,1.7553,1.8304,1.8347,1.9277,2.0194,2.0824,2.0307,2.0134,2.0712,2.0754,2.0769,2.0864,2.1372,2.2285,2.3621,2.3624,2.3884,2.4461,2.4486,2.4162,2.3487,2.4887,2.5571,2.5611,2.6984,2.7255,2.6641,2.6641,2.6258,2.5674,2.5674,2.5659,2.557,2.4889,2.4231,2.3595,2.3017,2.2798,2.2807,0.0,0.0,0.0,0.0,0.0,0.0,0.0,0.0,0.0,0.0,1.6402,1.65,1.65,1.65,1.65,1.65,1.65,1.65,1.65,0.0,0.0,0.0,0.0,0.0,1.7965,1.8367,1.8619,1.8782,1.9334,1.9798,2.0251,2.039,2.0666,2.1029,2.1029,2.1029,2.1016,2.0878,2.0727,2.0439,1.8681,1.7978,1.7953,0.0,0.0,0.0,0.0,0.0,0.0,0.0,0.0,0.0,0.0,0.0,0.0,0.0,0.0,0.0,0.0,0.0,0.0,0.0,0.0,0.0,0.0,0.0,0.0,0.0,0.0,0.0,0.0,0.0,0.0,0.0,0.0,1.747,1.7709,1.8019,1.8526,1.9304,2.0108,2.0635,2.0674,2.1773,2.2323,2.1953,2.1929,2.1934,2.1954,2.2653,2.2957,2.2759,2.3326,2.3613,2.3622,2.421,2.4617,2.4873,2.6318,2.7024,2.7039,2.7434,2.7495,2.733,2.733,2.7225,2.7061,2.7061,2.6752,2.6258,2.56,2.5202,2.5031,2.4866,2.4744,2.4724,0.0,0.0,0.0,0.0,0.0,0.0,0.0,0.0,0.0,0.0,1.6117,1.6216,1.6466,1.65,1.65,1.65,1.65,1.65,1.65,0.0,0.0,0.0,0.0,1.799,1.8506,1.8845,1.9221,1.971,2.0012,2.0478,2.1043,2.1043,2.1207,2.1493,2.1493,2.1493,2.1493,2.1493,2.1493,2.138,2.01,1.9296,1.8832,1.838,1.8204,1.8279,1.8807,1.9008,1.9083,1.9623,0.0,0.0,0.0,0.0,0.0,0.0,0.0,0.0,0.0,0.0,0.0,0.0,0.0,0.0,0.0,0.0,0.0,0.0,0.0,0.0,0.0,0.0,0.0,0.0,1.8129,1.8259,1.8778,1.9113,1.9534,2.013,2.0988,2.1587,2.1761,2.2326,2.2599,2.2417,2.239,2.2295,2.2036,2.2937,2.3286,2.2826,2.3514,2.385,2.3736,2.4172,2.4598,2.4951,2.612,2.6837,2.7152,2.7458,2.76,0.0,2.76,2.76,2.76,2.76,2.7375,0.0,0.0,0.0,0.0,0.0,2.5553,2.5547,0.0,0.0,0.0,0.0,0.0,0.0,0.0,0.0,0.0,0.0,0.0,1.582,1.6423,1.65,1.65,1.65,1.65,1.6525,0.0,0.0,0.0,1.7586,1.8041,1.8556,1.9171,1.9183,1.9723,2.0779,2.0779,2.1069,2.1581,2.1581,2.1606,2.1681,2.1681,2.1681,2.1681,2.1681,2.1681,2.1669,2.1606,2.0941,1.9874,1.8869,1.848,1.8543,1.8945,1.9096,1.9158,1.9648,0.0,0.0,0.0,0.0,0.0,0.0,0.0,0.0,0.0,0.0,0.0,0.0,0.0,0.0,0.0,0.0,0.0,0.0,0.0,0.0,0.0,0.0,0.0,0.0,1.8807,1.9296,1.9911,2.0553,2.0947,2.0881,2.1773,2.2618,2.3228,2.2332,2.1916,2.2423,2.249,2.2244,2.1697,0.0,0.0,0.0,0.0,2.4263,2.4176,2.4263,2.4292,2.4321,2.5119,2.5864,2.6537,2.7255,2.76,2.76,2.76,2.76,2.76,2.76,2.76,2.754,2.6956,2.6348,2.5824,2.5749,2.5719,2.5775,0.0,0.0,0.0,0.0,0.0,0.0,0.0,0.0,0.0,1.5443,1.561,1.582,1.6423,1.65,1.65,1.65,1.65,1.6722,0.0,0.0,1.7777,1.8644,1.8795,1.9334,2.0352,2.0377,2.0704,2.1358,2.1358,2.1606,2.2159,2.2159,2.2397,2.2782,2.2782,2.2782,2.2782,2.2782,2.2782,2.2744,2.2334,2.1757,2.1091,2.0465,2.0214,2.0176,1.9773,1.966,1.966,1.9773,1.9798,1.9798,1.9798,0.0,0.0,0.0,0.0,0.0,0.0,0.0,0.0,0.0,0.0,0.0,0.0,0.0,0.0,0.0,0.0,0.0,0.0,0.0,0.0,2.0075,1.9886,1.9999,2.1016,2.1655,2.1853,2.1424,2.1975,2.2423,2.2511,2.279,2.2956,2.2968,2.2947,2.293,2.2794,2.3635,0.0,2.317,2.3907,2.4002,2.3335,2.3972,2.4292,2.4321,0.0,0.0,2.6537,2.7255,2.76,2.76,2.76,2.76,2.76,2.76,2.76,2.7585,2.7465,2.733,2.7151,2.6626,2.6408,2.6414,0.0,0.0,0.0,0.0,0.0,0.0,0.0,0.0,0.0,0.0,1.496,1.5365,1.5986,1.6315,1.65,1.65,1.65,0.0,0.0,1.7662,1.8166,1.897,1.956,2.0138,2.0679,2.0968,2.1343,2.1895,2.1895,2.2184,2.2694,2.2694,2.2844,2.3108,2.3108,2.3108,2.3108,2.3108,2.3108,2.3083,2.2807,2.2531,2.2221,2.1421,2.1106,2.1031,2.0465,2.0264,2.0188,1.9899,1.9798,1.9798,1.9798,1.9798,1.9798,0.0,0.0,0.0,0.0,0.0,0.0,0.0,0.0,0.0,0.0,0.0,0.0,0.0,0.0,1.9886,0.0,0.0,2.0125,2.0968,2.0867,2.0941,2.1782,2.2133,2.2209,2.1933,2.2407,2.2745,2.2698,2.2992,2.3165,2.3113,2.3108,2.3108,2.3108,2.3484,2.3514,2.3108,2.3484,2.3514,2.3108,2.3514,2.3884,2.4321,2.5035,2.5591,2.596,2.6322,2.6707,2.7034,2.7034,2.7255,2.76,2.76,2.76,2.76,2.76,2.76,2.7555,2.7225,2.7106,2.7085,0.0,0.0,0.0,0.0,0.0,0.0,0.0,0.0,0.0,0.0,1.4213,1.4755,1.5365,1.5854,1.6207,0.0,0.0,0.0,0.0,1.7953,1.8493,1.9121,2.0163,2.0742,2.0842,2.1395,2.192,2.2472,2.2472,2.2669,2.3108,2.3108,2.3108,2.3108,2.3108,2.3108,2.3108,2.3108,2.3108,2.3108,2.3108,2.3108,2.3007,2.2146,2.1681,2.1446,2.0893,2.0616,2.0453,1.9962,1.9798,1.9798,1.9798,1.9798,1.9798,1.9798,1.9798,0.0,0.0,0.0,0.0,0.0,0.0,0.0,0.0,0.0,1.9836,1.9949,1.9962,2.015,2.0742,2.0855,2.1031,2.1556,2.1644,2.1845,2.2397,2.2472,2.2472,2.2472,2.2832,2.3108,2.3108,2.3108,2.3108,2.3108,2.3108,2.3108,2.3108,2.3108,2.3108,2.3108,2.3108,2.3108,2.3108,2.3108,2.3424,2.406,2.4234,2.4595,2.5175,2.5315,2.5728,2.6283,2.6283,2.6707,2.7382,2.7382,2.7458,2.76,2.76,2.76,2.76,2.76,2.76,2.76,0.0,0.0,0.0,0.0,0.0,0.0,0.0,0.0,0.0,0.0,0.0,0.0,0.0,0.0,0.0,0.0,0.0,0.0,1.8041,1.8179,1.8656,1.9673,2.0352,2.0918,2.1393,2.1945,2.2456,2.3007,2.3007,2.3045,2.3108,2.3108,2.3108,2.3108,2.3108,2.3108,2.3108,2.3108,2.3108,2.3108,2.3108,2.3108,2.3095,2.297,2.2347,2.1446,2.0893,2.0365,1.9886,1.9823,1.9798,1.9798,1.9798,1.9798,1.9798,1.9798,0.0,1.9798,1.9798,1.9798,1.9798,1.9798,1.9798,1.9798,0.0,0.0,1.9949,2.049,2.0591,2.0767,2.132,2.1393,2.1581,2.2133,2.2221,2.241,2.2932,2.3007,2.3007,2.3007,2.3058,2.3108,2.3108,2.3108,2.3108,2.3108,2.3108,2.3108,2.3108,2.3108,2.3108,2.3108,2.3108,2.3108,2.3108,2.3108,2.3138,2.3245,2.3972,2.435,2.4452,2.5091,2.5453,2.5508,2.5508,2.5946,2.6616,2.6616,2.7008,2.76,2.76,2.76,2.76,2.76,2.76,2.76,0.0,0.0,0.0,0.0,0.0,0.0,0.0,0.0,0.0,0.0,0.0,0.0,0.0,0.0,0.0,0.0,0.0,0.0,1.8105,1.8204,1.8681,1.9748,2.0665,2.1282,2.1509,2.2347,2.2882,2.3108,2.3108,2.3108,2.3108,2.3108,2.3108,2.3108,2.3108,2.3108,2.3108,2.3108,2.3108,2.3108,2.3108,2.3108,2.307,2.2744,2.2171,2.1455,2.1257,2.0805,0.0,0.0,1.9798,1.9798,1.9798,1.9798,1.9798,1.9798,1.9798,0.0,1.9798,1.9798,0.0,0.0,2.0049,2.0327,2.0327,2.0578,2.0853,2.1119,2.1169,2.1345,2.187,2.197,2.2146,0.0,2.2757,2.2844,2.307,2.3108,2.3108,2.3108,2.3108,2.3108,2.3108,2.3108,2.3108,2.3108,2.3108,2.3108,2.3108,2.3108,2.3108,2.3108,2.3108,2.3108,2.3108,2.3108,2.3283,2.364,2.3964,2.4282,2.4589,2.4914,2.5282,2.5733,2.6677,2.6976,2.6792,2.6792,2.7256,2.8015,2.8015,2.8314,2.8678,2.7884,2.76,2.76,0.0,0.0,0.0,0.0,0.0,0.0,0.0,0.0,0.0,0.0,0.0,0.0,0.0,0.0,0.0,0.0,0.0,0.0,0.0,1.8129,1.8618,1.9547,2.0665,0.0,2.1282,2.2347,2.2882,2.2882,2.3032,2.3108,2.3108,2.3108,2.3108,2.3108,2.3108,2.3108,2.3108,2.3108,2.3108,2.3108,2.3108,2.3007,2.2832,2.246,2.1882,2.1282,2.1282,2.093,0.0,0.0,1.9798,1.9798,1.9798,1.9798,1.9798,1.9798,1.9798,1.9836,1.9999,0.0,0.0,2.0225,2.0616,2.0918,2.0918,2.1232,2.1531,2.1681,2.1719,2.1882,2.2406,2.2506,0.0,2.3045,2.3108,2.3108,2.3108,2.3108,2.3108,2.3108,2.3108,2.3108,2.3108,2.3108,2.3108,2.3108,2.3108,2.3108,2.3108,2.3108,2.3108,2.3108,2.3258,2.3346,2.3346,2.3496,2.3785,2.423,2.423,2.4431,2.4788,2.4788,2.5071,2.5652,2.6835,2.709,2.6704,2.6957,2.7533,2.8325,2.8566,2.9042,2.9487,2.8513,2.8034,2.7854,0.0,0.0,0.0,0.0,0.0,0.0,0.0,0.0,0.0,0.0,0.0,0.0,0.0,0.0,0.0,0.0,0.0,0.0,0.0,1.7903,1.8455,1.9008,2.0138,2.0717,2.0717,2.1769,2.2305,2.2305,2.2844,2.3108,2.3108,2.3108,2.3108,2.3108,2.3108,2.3108,2.3108,2.3108,2.3108,2.3108,2.3108,2.2782,2.2305,2.2322,2.1631,2.0717,2.0717,0.0,0.0,0.0,1.9798,1.9798,1.9798,1.9798,0.0,1.9798,1.9798,0.0,0.0,0.0,2.0792,2.1333,2.1443,2.1496,2.1496,2.1481,2.1644,2.2184,2.2284,2.2447,2.2982,2.3083,2.3083,2.3108,2.3108,2.3108,2.3108,2.3108,2.3108,2.3108,2.3108,2.3108,0.0,2.3108,2.3108,2.3108,2.3108,2.3108,2.3108,2.3108,2.3108,2.3108,2.3678,2.3966,2.3966,2.4506,2.475,2.4763,2.4763,2.4775,2.4788,2.4788,2.482,2.4852,2.4885,2.5313,2.5999,2.6865,2.7619,2.8382,2.9222,2.9579,2.9606,2.9562,2.9116,2.8472,0.0,0.0,0.0,0.0,0.0,0.0,0.0,0.0,0.0,0.0,0.0,0.0,0.0,0.0,0.0,0.0,0.0,0.0,0.0,1.6302,1.6782,1.7648,1.8392,1.9139,1.9949,2.0682,2.1289,2.1769,2.1945,2.1803,2.1314,2.1577,2.1747,2.1861,2.2153,2.2598,2.304,2.2187,2.1849,2.1782,2.0914,2.0458,2.0317,2.0446,1.9973,1.9253,0.0,0.0,0.0,0.0,0.0,0.0,1.9228,0.0,0.0,1.9071,0.0,0.0,0.0,0.0,2.1282,2.1443,2.1757,2.2033,2.2033,2.2322,2.2606,2.2794,2.2832,2.2882,2.307,2.3108,2.3108,2.3108,2.3108,2.3108,2.3108,2.3108,2.3108,2.3108,2.3108,0.0,0.0,0.0,0.0,2.3108,2.3108,2.3108,2.3108,2.3108,2.3283,2.369,2.3891,2.4167,2.4544,2.47,2.4996,2.5335,2.5724,2.5946,2.5946,2.6475,2.6442,2.598,2.6508,2.6561,2.633,2.6614,2.7188,2.7926,2.8239,2.9052,3.0017,2.955,2.9584,2.9714,0.0,0.0,0.0,0.0,0.0,0.0,0.0,0.0,0.0,0.0,0.0,0.0,0.0,0.0,0.0,0.0,0.0,0.0,0.0,0.0,1.6244,1.6909,1.7429,1.8093,1.8869,1.9439,1.9937,2.0431,2.0625,2.0452,2.0018,2.0287,2.0439,2.0522,2.0831,2.1258,2.1686,2.086,2.051,2.0445,1.9645,1.917,1.9036,1.9176,1.8792,0.0,0.0,0.0,0.0,0.0,0.0,0.0,0.0,0.0,0.0,0.0,0.0,0.0,0.0,2.1297,2.1775,2.1663,2.213,2.2421,2.1831,2.2189,2.2567,2.2279,2.2206,2.2206,2.2206,2.2476,2.2567,2.2249,2.272,2.3017,2.2689,2.2914,2.3108,2.3108,2.3108,0.0,0.0,0.0,0.0,2.3108,2.3108,2.3108,2.3108,2.3296,2.3615,2.3991,2.4368,2.4745,2.5096,2.531,2.5573,2.5946,2.6311,2.6499,2.6521,2.704,2.7007,2.6521,2.704,2.6973,2.6521,2.6816,2.7229,2.7736,2.8051,2.8844,2.9771,2.9343,2.9531,2.9886,0.0,0.0,0.0,0.0,0.0,0.0,0.0,0.0,0.0,0.0,0.0,0.0,0.0,0.0,0.0,0.0,0.0,0.0,0.0,0.0,0.0,1.6709,1.7179,1.7473,1.755,1.8103,1.8418,1.8447,1.8967,1.9204,1.9174,1.9167,1.9208,1.9208,1.9201,1.9253,1.9313,1.9219,1.9208,1.9208,1.9126,1.8805,1.8361,1.839,0.0,0.0,0.0,0.0,0.0,0.0,0.0,0.0,0.0,0.0,0.0,0.0,0.0,1.9764,2.0807,2.164,2.2208,2.1974,2.2506,2.2659,2.0974,2.1259,2.1647,2.0782,2.059,2.059,0.0,0.0,2.1616,2.0751,2.1959,2.2763,2.1939,2.2537,2.3005,0.0,0.0,0.0,0.0,0.0,0.0,2.3085,0.0,2.3145,2.3145,2.3697,2.4054,2.4079,2.5071,2.5611,2.5636,2.6223,2.6499,2.6499,2.6499,2.6499,2.6499,2.6499,2.6499,2.6499,2.6499,2.6499,2.6555,2.7317,2.7637,2.7736,2.8556,2.8907,2.8939,2.8939,2.8971,2.9056,0.0,0.0,0.0,0.0,0.0,0.0,0.0,0.0,0.0,0.0,0.0,0.0,0.0,0.0,0.0,0.0,0.0,0.0,0.0,0.0,0.0,0.0,0.0,0.0,0.0,0.0,0.0,0.0,0.0,1.776,1.7213,1.7576,1.7785,0.0,1.819,1.8673,1.9249,1.828,1.7892,1.7801,0.0,1.63,1.6257,0.0,0.0,0.0,0.0,0.0,0.0,0.0,0.0,0.0,0.0,0.0,1.7568,0.0,0.0,1.9313,2.1395,2.1993,2.1988,2.1916,2.2506,2.2659,2.0974,2.1259,2.1647,2.0782,2.059,2.059,0.0,0.0,0.0,2.0751,2.1479,0.0,2.1037,2.1678,0.0,0.0,0.0,2.2628,2.1353,2.278,0.0,0.0,2.3412,2.3778,2.3778,2.4305,2.4795,2.5172,2.5448,2.5799,2.6273,2.6411,2.6499,2.6499,2.6499,2.6499,2.6499,2.6499,2.6499,2.6499,2.6499,2.6499,2.6521,2.6714,2.6816,2.685,2.704,2.7517,2.8019,2.8019,2.8427,2.9024,0.0,0.0,0.0,0.0,0.0,0.0,0.0,0.0,0.0,0.0,0.0,0.0,0.0,0.0,0.0,0.0,0.0,0.0,0.0,0.0,0.0,0.0,0.0,0.0,0.0,0.0,0.0,0.0,0.0,0.0,0.0,1.63,1.6442,1.6519,1.6756,1.7137,1.7549,0.0,0.0,0.0,0.0,0.0,0.0,0.0,0.0,0.0,0.0,0.0,0.0,0.0,0.0,1.8167,1.7852,1.7501,1.7343,1.8126,0.0,1.9511,2.111,2.1988,2.2249,2.1522,2.2218,2.2463,2.0009,2.043,2.0974,1.9726,1.9464,0.0,0.0,0.0,0.0,0.0,0.0,0.0,2.0139,2.0782,2.1383,0.0,2.1945,0.0,2.1841,2.2946,2.3506,0.0,2.3821,2.4356,2.4356,2.487,2.5297,2.5586,2.585,2.6172,2.6499,2.6499,2.6499,2.6499,2.6499,2.6499,2.6499,2.6499,2.6499,2.6499,0.0,2.6499,2.6499,2.6499,2.6499,2.6499,2.6499,2.6782,2.7162,2.7162,2.7484,2.7887,0.0,0.0,0.0,0.0,0.0,0.0,0.0,0.0,0.0,0.0,0.0,0.0,0.0,0.0,0.0,0.0,0.0,0.0,0.0,0.0,0.0,0.0,0.0,0.0,0.0,0.0,0.0,0.0,0.0,0.0,0.0,0.0,0.0,0.0,0.0,0.0,0.0,0.0,0.0,0.0,0.0,0.0,0.0,0.0,0.0,0.0,0.0,0.0,0.0,0.0,1.7578,1.7633,1.6866,1.6993,1.738,1.7101,1.8354,1.9979,2.0606,2.176,2.2433,2.0974,2.1698,2.1916,1.8721,1.9276,1.9966,1.8257,0.0,0.0,1.793,0.0,1.8938,1.8134,0.0,2.0107,1.9233,1.9879,2.0867,2.2029,2.1572,2.1598,2.2682,2.3169,2.3351,2.325,2.4357,2.5008,2.4888,2.5423,2.5711,2.5711,2.6235,2.6499,2.6499,2.6499,2.6499,2.6499,2.6499,2.6499,2.6499,2.6499,2.6499,2.6499,0.0,0.0,2.6499,2.6499,2.6499,2.6499,2.6499,2.6499,2.6499,2.6499,2.6499,2.6499,0.0,0.0,0.0,0.0,0.0,0.0,0.0,0.0,0.0,0.0,1.541,1.541,0.0,0.0,0.0,0.0,0.0,0.0,0.0,0.0,0.0,0.0,0.0,0.0,0.0,0.0,0.0,0.0,0.0,0.0,0.0,0.0,0.0,0.0,0.0,0.0,0.0,0.0,0.0,0.0,0.0,0.0,0.0,0.0,0.0,0.0,0.0,0.0,0.0,0.0,1.7495,1.8382,1.7633,1.7964,1.8602,1.8671,1.9047,1.9738,2.1279,2.1365,2.0974,2.0655,2.0814,2.0494,1.8462,1.8787,0.0,0.0,0.0,1.749,1.749,1.8171,0.0,1.8075,0.0,0.0,0.0,0.0,1.9467,0.0,0.0,0.0,0.0,0.0,0.0,0.0,0.0,2.5996,2.5485,2.6034,2.6348,2.6348,2.6449,2.6499,2.6499,2.6499,2.6499,2.6499,2.6499,2.6499,2.6499,2.6499,2.6499,2.6499,2.6499,0.0,2.6499,2.6499,2.6499,2.6499,2.6499,2.6499,2.6499,2.6499,2.6499,2.6499,0.0,0.0,0.0,0.0,0.0,0.0,0.0,1.541,1.541,1.541,1.541,1.541,1.541,1.541,0.0,0.0,0.0,0.0,0.0,0.0,0.0,0.0,0.0,0.0,0.0,0.0,0.0,0.0,0.0,0.0,0.0,0.0,0.0,0.0,0.0,0.0,0.0,0.0,0.0,0.0,0.0,0.0,0.0,0.0,0.0,0.0,0.0,0.0,0.0,0.0,1.6641,1.7495,1.7146,1.7625,1.8269,1.7944,1.8553,1.9497,2.0333,2.0558,2.0494,2.0042,2.0268,2.0139,1.8395,0.0,0.0,0.0,0.0,1.7383,1.7383,0.0,0.0,0.0,0.0,0.0,0.0,0.0,0.0,0.0,0.0,0.0,0.0,0.0,0.0,0.0,0.0,2.6373,2.6097,2.6348,2.6499,2.6499,2.6499,2.6499,2.6499,2.6499,2.6499,2.6499,2.6499,2.6499,2.6499,2.6499,2.6499,2.6499,2.6499,0.0,2.6499,2.6499,2.6499,2.6499,2.6499,2.6499,2.6499,2.6499,2.6499,2.6499,0.0,0.0,0.0,0.0,0.0,0.0,0.0,1.541,1.541,1.541,1.541,1.541,1.541,1.541,1.541,0.0,0.0,0.0,0.0,0.0,0.0,0.0,0.0,0.0,0.0,0.0,0.0,0.0,0.0,0.0,0.0,0.0,0.0,0.0,0.0,0.0,0.0,0.0,0.0,0.0,0.0,0.0,0.0,0.0,0.0,0.0,0.0,0.0,0.0,0.0,1.5777,1.6265,1.6265,1.6972,1.7647,1.6908,1.7932,1.9299,1.9299,1.9814,2.0171,1.9464,1.965,1.9683,1.8303,1.8459,0.0,0.0,0.0,0.0,0.0,0.0,0.0,0.0,0.0,0.0,0.0,0.0,0.0,0.0,0.0,0.0,0.0,0.0,0.0,0.0,0.0,0.0,2.6499,2.6499,2.6499,2.6499,2.6499,2.6499,2.6499,2.6499,2.6499,2.6499,2.6499,2.6499,2.6499,2.6499,2.6499,2.6499,2.6499,0.0,0.0,2.6499,2.6499,2.6499,2.6499,2.6499,2.6499,2.6499,2.6499,2.6499,0.0,0.0,0.0,0.0,0.0,0.0,0.0,1.541,1.541,1.541,1.541,1.541,1.541,1.541,1.541,0.0,0.0,0.0,0.0,0.0,0.0,0.0,0.0,0.0,0.0,0.0,0.0,0.0,0.0,0.0,0.0,0.0,0.0,0.0,0.0,0.0,0.0,0.0,0.0,0.0,0.0,0.0,0.0,0.0,0.0,0.0,0.0,0.0,0.0,0.0,0.0,1.5497,1.5497,1.6557,1.7647,1.6908,0.0,0.0,1.9299,1.9365,1.9398,1.9299,1.8754,1.8202,1.8042,0.0,0.0,0.0,1.6465,1.6212,0.0,0.0,0.0,0.0,0.0,0.0,0.0,0.0,0.0,0.0,0.0,0.0,0.0,0.0,0.0,0.0,0.0,0.0,2.6499,2.6499,2.6499,2.6499,2.6499,2.6499,2.6499,2.6499,2.6499,2.6499,2.6499,2.6499,2.6499,2.6499,2.6499,2.6499,2.6499,0.0,0.0,2.6499,2.6499,2.6499,2.6499,2.6499,2.6499,2.6499,2.6499,2.6499,0.0,0.0,0.0,0.0,0.0,0.0,1.541,1.541,1.541,1.541,1.541,1.541,1.541,1.541,1.541,0.0,0.0,0.0,0.0,0.0,0.0,0.0,0.0,0.0,0.0,0.0,0.0,0.0,0.0,0.0,0.0,0.0,0.0,0.0,0.0,0.0,0.0,0.0,0.0,0.0,0.0,0.0,0.0,0.0,0.0,0.0,0.0,0.0,0.0,0.0,0.0,0.0,1.541,1.6029,0.0,0.0,1.7375,1.8319,1.9104,1.8921,1.8654,1.9177,1.8654,1.8008,1.8008,0.0,0.0,1.6794,1.6377,1.6095,1.6095,0.0,0.0,0.0,0.0,0.0,0.0,0.0,0.0,0.0,0.0,0.0,0.0,0.0,0.0,0.0,0.0,0.0,2.6499,2.6499,2.6499,2.6499,2.6499,2.6499,2.6499,2.6499,2.6499,2.6499,2.6499,2.6499,2.6499,2.6499,2.6499,2.6499,2.6499,0.0,0.0,2.6499,2.6499,2.6499,2.6499,2.6499,2.6499,2.6499,2.6499,2.6499,0.0,0.0,0.0,0.0,0.0,1.541,1.541,1.541,1.541,1.541,1.541,1.541,1.541,1.541,1.541,1.541,0.0,0.0,0.0,0.0,0.0,0.0,0.0,0.0,0.0,0.0,0.0,0.0,0.0,0.0,0.0,0.0,0.0,0.0,0.0,0.0,0.0,0.0,0.0,0.0,0.0,0.0,0.0,0.0,0.0,0.0,0.0,0.0,0.0,0.0,0.0,0.0,0.0,0.0,0.0,0.0,1.7115,1.7913,1.8578,1.8562,1.8462,1.8821,1.8362,1.7822,0.0,0.0,1.6904,1.6592,1.6182,1.5899,1.5899,0.0,0.0,0.0,0.0,0.0,0.0,0.0,0.0,0.0,0.0,0.0,0.0,0.0,0.0,0.0,0.0,0.0,0.0,2.6499,2.6499,2.6499,2.6499,2.6499,2.6499,2.6499,2.6499,2.6499,2.6499,2.6499,2.6499,2.6499,2.6499,2.6499,0.0,0.0,0.0,2.6499,2.6499,2.6499,2.6499,2.6499,2.6499,2.6499,2.6499,2.6499,0.0,0.0,0.0,0.0,0.0,0.0,1.541,1.541,1.541,1.541,1.541,1.541,1.541,1.541,1.541,1.541,0.0,0.0,0.0,0.0,0.0,0.0,0.0,0.0,0.0,0.0,1.541,1.541,1.541,0.0,0.0,0.0,0.0,0.0,0.0,0.0,0.0,0.0,0.0,0.0,0.0,0.0,0.0,0.0,0.0,0.0,0.0,0.0,0.0,0.0,0.0,0.0,0.0,0.0,0.0,0.0,1.7286,1.8425,1.7635,1.8329,1.9077,1.8236,1.7695,1.7425,0.0,0.0,1.6105,1.6105,1.5723,1.542,1.542,0.0,0.0,0.0,0.0,0.0,0.0,0.0,0.0,0.0,0.0,0.0,0.0,0.0,0.0,0.0,0.0,0.0,0.0,2.6499,2.6499,2.6499,2.6499,2.6499,2.6499,2.6499,2.6499,2.6499,2.6499,2.6499,2.6499,2.6499,2.6499,0.0,0.0,0.0,0.0,2.6499,2.6499,2.6499,2.6499,2.6499,2.6499,2.6499,2.6499,2.6499,0.0,0.0,0.0,0.0,0.0,0.0,0.0,1.541,1.541,1.541,1.541,1.541,1.541,1.541,1.541,1.541,0.0,0.0,0.0,0.0,0.0,0.0,0.0,0.0,0.0,0.0,1.541,1.541,1.541,1.541,1.541,0.0,0.0,0.0,0.0,0.0,0.0,0.0,0.0,0.0,0.0,0.0,0.0,0.0,0.0,0.0,0.0,0.0,0.0,0.0,0.0,0.0,0.0,0.0,0.0,0.0,0.0,0.0,1.7636,1.7682,1.7602,1.7911,1.747,1.6911,1.6911,0.0,1.6095,1.6095,1.5743,1.541,1.541,0.0,0.0,0.0,0.0,0.0,0.0,0.0,0.0,0.0,0.0,0.0,0.0,0.0,0.0,0.0,0.0,0.0,0.0,2.6499,2.6499,2.6499,2.6499,2.6499,2.6499,2.6499,2.6499,2.6499,2.6499,2.6499,2.6499,2.6499,0.0,0.0,0.0,0.0,0.0,2.6499,2.6499,2.6499,2.6499,2.6725,2.7052,2.7052,2.7291,2.7582,0.0,0.0,0.0,0.0,0.0,0.0,0.0,1.541,1.541,1.541,1.541,1.541,1.541,1.541,1.541,1.541,0.0,0.0,0.0,0.0,0.0,0.0,0.0,0.0,0.0,1.541,1.541,1.541,1.541,1.541,1.541,1.541,1.541,0.0,0.0,0.0,0.0,0.0,0.0,0.0,0.0,0.0,1.5864,0.0,0.0,0.0,0.0,0.0,0.0,0.0,0.0,0.0,0.0,0.0,0.0,0.0,0.0,0.0,0.0,1.7236,1.7243,1.7451,1.6988,0.0,0.0,0.0,0.0,1.585,1.5596,1.541,0.0,0.0,0.0,0.0,0.0,0.0,0.0,0.0,0.0,0.0,0.0,0.0,0.0,0.0,0.0,0.0,0.0,0.0,0.0,2.6499,2.6499,2.6499,2.6499,2.6499,2.6499,2.6499,2.6499,2.6499,2.6499,2.6499,2.6499,2.6499,0.0,0.0,0.0,0.0,0.0,2.6499,2.6499,2.6512,2.6725,2.7014,2.7306,2.7519,2.7808,2.8109,0.0,0.0,0.0,0.0,0.0,0.0,0.0,0.0,1.541,1.541,1.5439,1.5468,1.5468,1.5468,1.5468,1.5468,0.0,0.0,0.0,0.0,0.0,0.0,0.0,0.0,1.541,1.541,1.541,1.541,1.541,1.5439,1.5468,1.5468,1.5497,1.5575,1.6255,1.6595,1.6708,1.7385,1.7688,1.7688,1.7688,1.7246,0.0,0.0,0.0,0.0,0.0,0.0,0.0,0.0,0.0,0.0,0.0,0.0,0.0,0.0,0.0,0.0,0.0,0.0,0.0,0.0,0.0,0.0,0.0,0.0,0.0,0.0,0.0,0.0,0.0,0.0,0.0,0.0,0.0,0.0,0.0,0.0,0.0,0.0,0.0,0.0,0.0,0.0,0.0,0.0,0.0,0.0,0.0,2.6418,2.6418,2.6499,2.6499,2.6499,2.6499,2.6499,2.6499,2.6499,2.6499,2.6499,2.6499,2.6499,0.0,0.0,0.0,0.0,0.0,2.6499,2.6499,2.6549,2.7102,2.7306,2.7406,2.7959,2.8185,2.8222,0.0,0.0,0.0,0.0,0.0,0.0,0.0,0.0,0.0,0.0,1.5892,1.6226,1.6226,1.6226,1.6226,0.0,0.0,0.0,0.0,0.0,0.0,0.0,0.0,0.0,1.541,1.541,1.541,1.541,1.541,1.57,1.6226,1.6226,1.6539,1.7079,1.7246,1.766,1.8194,1.8367,1.8447,1.8447,1.8447,1.8015,0.0,0.0,0.0,0.0,1.755,1.7146,0.0,0.0,0.0,0.0,0.0,0.0,0.0,0.0,1.541,0.0,0.0,0.0,0.0,0.0,0.0,0.0,0.0,0.0,0.0,0.0,0.0,0.0,0.0,0.0,0.0,0.0,0.0,0.0,0.0,0.0,0.0,0.0,0.0,0.0,0.0,0.0,0.0,0.0,0.0,0.0,0.0,2.5769,2.5699,2.6499,2.6499,2.6499,2.6499,2.6499,2.6499,2.6499,2.6499,2.6499,2.6499,2.6499,0.0,0.0,0.0,0.0,2.6499,2.6499,2.6499,2.6549,2.7102,2.7544,2.7984,2.8499,2.9013,2.9402,0.0,0.0,0.0,0.0,0.0,0.0,0.0,0.0,0.0,0.0,0.0,0.0,0.0,0.0,0.0,0.0,0.0,0.0,0.0,0.0,0.0,0.0,0.0,1.6417,1.6016,1.5811,1.5703,1.5703,1.5508,1.5777,1.6492,1.6492,1.6894,1.7605,1.795,1.8501,1.9202,1.9202,1.9202,1.9202,1.9202,0.0,0.0,0.0,0.0,0.0,1.8501,1.8151,0.0,1.7977,1.7605,1.7006,0.0,0.0,0.0,0.0,1.5671,0.0,0.0,0.0,0.0,0.0,0.0,0.0,0.0,0.0,0.0,0.0,0.0,0.0,0.0,0.0,0.0,0.0,0.0,0.0,0.0,0.0,0.0,0.0,0.0,0.0,0.0,0.0,0.0,0.0,0.0,0.0,0.0,2.4624,2.4552,2.5099,2.5122,2.5569,2.6499,2.6499,2.6499,2.6499,2.6499,2.6499,2.6499,2.6499,2.6499,0.0,0.0,0.0,2.6499,2.6499,2.665,2.6927,2.7444,2.7996,2.8549,2.9114,2.9528,2.9792,0.0,0.0,0.0,0.0,0.0,0.0,0.0,0.0,0.0,0.0,0.0,0.0,0.0,0.0,0.0,0.0,0.0,0.0,0.0,0.0,0.0,0.0,0.0,1.7842,1.7118,1.6625,1.6366,1.6297,1.5782,1.5905,1.668,1.668,1.7118,1.7961,1.8581,1.9202,1.9798,1.9798,1.9798,1.9798,1.9798,0.0,0.0,0.0,0.0,0.0,0.0,0.0,0.0,1.8821,1.8382,1.777,1.777,0.0,0.0,0.0,0.0,0.0,0.0,0.0,0.0,0.0,0.0,0.0,0.0,0.0,0.0,0.0,0.0,0.0,0.0,0.0,0.0,0.0,0.0,0.0,0.0,0.0,0.0,0.0,0.0,0.0,0.0,0.0,0.0,0.0,0.0,0.0,0.0,2.3331,2.3331,2.3514,2.3672,2.4469,2.6013,2.6198,2.6349,2.6499,2.6499,2.6499,2.6499,2.6499,2.6499,0.0,0.0,0.0,2.6499,2.6499,2.6826,2.7344,2.7896,2.8448,2.8963,2.9578,2.9792,2.9792,0.0,0.0,0.0,0.0,0.0,0.0,0.0,0.0,0.0,0.0,0.0,0.0,0.0,0.0,0.0,0.0,0.0,0.0,0.0,0.0,0.0,1.9371,1.9182,1.9033,1.8884,1.8135,1.7539,1.7191,1.6397,1.649,1.744,1.744,1.8167,1.9475,1.9579,1.9695,1.9798,1.9798,1.9798,1.9798,0.0,0.0,0.0,0.0,0.0,0.0,0.0,0.0,0.0,1.9423,1.915,1.8528,1.8528,0.0,0.0,0.0,0.0,0.0,1.5584,0.0,0.0,0.0,0.0,0.0,0.0,0.0,0.0,0.0,0.0,0.0,0.0,0.0,0.0,0.0,0.0,0.0,0.0,0.0,0.0,0.0,0.0,0.0,0.0,0.0,0.0,0.0,0.0,0.0,0.0,2.2702,2.2627,2.3478,2.4337,2.4516,2.3952,2.4814,2.5664,2.6499,2.6499,2.6499,2.6499,2.6499,2.6499,0.0,0.0,2.6499,2.6499,2.6499,2.6826,2.7344,2.7896,2.8448,2.8963,2.9578,2.9792,2.9792,0.0,0.0,0.0,0.0,0.0,0.0,0.0,0.0,0.0,0.0,0.0,0.0,0.0,0.0,0.0,0.0,0.0,0.0,0.0,0.0,0.0,2.1637,2.1464,2.0929,2.0011,1.9342,1.8947,1.8747,1.8137,1.8112,1.8677,1.8738,1.915,1.9798,1.9798,1.9798,1.9798,1.9798,1.9798,1.9798,0.0,0.0,0.0,0.0,0.0,0.0,0.0,0.0,0.0,0.0,1.9579,1.9281,1.9281,0.0,0.0,0.0,0.0,0.0,1.6197,1.6528,0.0,0.0,0.0,0.0,0.0,0.0,0.0,0.0,0.0,0.0,0.0,0.0,0.0,0.0,0.0,0.0,0.0,0.0,0.0,0.0,0.0,0.0,0.0,0.0,0.0,0.0,0.0,0.0,0.0,0.0,2.1451,2.1935,2.2376,2.2638,2.2702,2.3147,2.3879,2.4874,2.4874,2.517,2.5699,2.5699,2.599,2.6499,0.0,2.6499,2.6512,2.6813,2.7231,2.7783,2.8335,2.89,2.9428,2.9691,2.9792,2.9792,0.0,0.0,0.0,0.0,0.0,0.0,0.0,0.0,0.0,0.0,0.0,0.0,0.0,0.0,0.0,0.0,0.0,0.0,0.0,0.0,2.2656,2.3083,2.3108,2.2494,2.1195,2.0648,2.0304,2.0209,1.9693,1.9488,1.9594,1.9735,1.9798,1.9798,1.9798,1.9798,1.9798,1.9798,1.9798,1.9798,0.0,0.0,0.0,0.0,0.0,0.0,0.0,0.0,0.0,0.0,0.0,0.0,0.0,0.0,0.0,0.0,1.8313,1.766,1.6765,1.7174,1.7688,0.0,0.0,0.0,0.0,0.0,0.0,0.0,0.0,0.0,0.0,0.0,0.0,0.0,0.0,0.0,0.0,0.0,0.0,0.0,0.0,0.0,0.0,0.0,0.0,0.0,0.0,0.0,0.0,0.0,2.0605,2.0605,2.0828,2.1155,2.1669,2.1886,2.2515,2.3514,2.3514,2.4036,2.5004,2.5004,2.5558,2.6499,2.6499,2.6562,2.6713,2.714,2.7682,2.8348,2.8725,2.9289,2.9792,2.9792,2.9792,2.9792,0.0,0.0,0.0,0.0,0.0,0.0,0.0,0.0,0.0,0.0,0.0,0.0,0.0,0.0,0.0,0.0,0.0,0.0,0.0,0.0,2.3058,2.3108,2.3108,2.3035,2.2914,2.2163,2.1549,2.1111,2.0278,1.9762,1.9594,1.9735,1.9798,1.9798,1.9798,1.9798,1.9798,1.9798,1.9798,1.9798,1.9798,0.0,0.0,0.0,0.0,0.0,0.0,0.0,0.0,0.0,0.0,0.0,0.0,0.0,0.0,0.0,1.8661,1.8301,1.6894,1.755,1.8447,1.7715,0.0,0.0,0.0,0.0,0.0,0.0,0.0,0.0,0.0,0.0,0.0,0.0,0.0,0.0,0.0,0.0,0.0,0.0,0.0,0.0,0.0,0.0,0.0,0.0,0.0,0.0,0.0,0.0,0.0,2.0605,2.1441,2.1517,2.0712,2.1555,2.2515,2.3514,2.3514,2.4036,2.5004,2.5004,2.5558,2.6499,2.6499,2.6788,2.7266,2.7268,2.7908,2.8838,2.8875,2.9289,2.9792,2.9792,2.9792,2.9792,0.0,0.0,0.0,0.0,0.0,0.0,0.0,0.0,0.0,0.0,0.0,0.0,0.0,0.0,0.0,0.0,0.0,0.0,0.0,2.2794,2.3108,2.3108,2.3108,2.3108,2.3108,2.2793,2.256,2.2381,2.137,2.0864,2.0782,2.012,1.9798,1.9798,1.9798,1.9798,1.9798,1.9798,1.9798,1.9798,1.9798,1.9798,0.0,0.0,0.0,0.0,0.0,0.0,0.0,0.0,0.0,0.0,0.0,0.0,0.0,0.0,0.0,1.9176,1.814,1.8608,0.0,0.0,0.0,0.0,0.0,0.0,0.0,0.0,0.0,0.0,0.0,0.0,0.0,0.0,0.0,0.0,0.0,0.0,0.0,0.0,0.0,0.0,0.0,0.0,0.0,0.0,0.0,0.0,0.0,0.0,0.0,2.0605,2.0934,2.0972,2.0605,2.0934,2.1336,2.1718,2.2301,2.311,2.4084,2.4707,2.5558,2.6512,2.6851,2.7128,2.7331,2.8021,2.8512,2.8925,2.9327,2.9603,2.9792,2.9792,2.9792,2.9792,0.0,0.0,0.0,0.0,0.0,0.0,0.0,0.0,0.0,0.0,0.0,0.0,0.0,0.0,0.0,0.0,0.0,0.0,2.2531,2.2895,2.3108,2.3108,2.3108,2.3108,2.3108,2.3108,2.3108,2.3108,2.2033,2.1493,2.1496,2.0326,1.9798,1.9798,1.9798,1.9798,1.9798,1.9798,1.9798,1.9798,1.9798,1.9798,0.0,0.0,0.0,0.0,0.0,0.0,0.0,0.0,0.0,0.0,0.0,0.0,0.0,0.0,0.0,0.0,1.89,1.9228,0.0,0.0,0.0,0.0,0.0,0.0,0.0,0.0,0.0,0.0,0.0,0.0,0.0,0.0,0.0,0.0,0.0,0.0,0.0,0.0,0.0,0.0,0.0,0.0,0.0,0.0,0.0,0.0,0.0,0.0,0.0,0.0,2.0605,2.0605,2.0605,2.0605,2.0605,2.0605,2.1555,2.2366,2.3073,2.4072,2.5159,2.6284,2.6655,2.7206,2.7858,2.8612,2.9001,2.9239,2.9641,2.9792,2.9792,2.9792,2.9792,2.9792,0.0,0.0,0.0,0.0,0.0,0.0,0.0,0.0,0.0,0.0,0.0,0.0,0.0,0.0,0.0,0.0,0.0,0.0,2.307,2.3108,2.3108,2.3108,2.3108,2.3108,2.3108,2.3108,2.3108,2.3108,2.2033,2.1493,2.1496,2.0326,1.9798,1.9798,1.9798,1.9798,1.9798,1.9798,1.9798,1.9798,1.9798,1.9798,1.9798,0.0,0.0,0.0,0.0,0.0,0.0,0.0,0.0,0.0,0.0,0.0,0.0,0.0,1.9798,1.9643,1.89,0.0,0.0,0.0,0.0,0.0,0.0,0.0,0.0,0.0,0.0,0.0,0.0,0.0,0.0,0.0,0.0,0.0,0.0,0.0,0.0,0.0,0.0,0.0,0.0,0.0,0.0,0.0,0.0,0.0,0.0,0.0,0.0,0.0,2.0605,2.0605,2.0605,2.0605,2.0605,2.0605,2.1555,2.1989,2.2027,2.3036,2.4336,2.5815,2.5827,2.7004,2.8888,2.89,2.9277,2.9792,2.9792,2.9792,2.9792,2.9792,2.9792,2.9792,0.0,0.0,0.0,0.0,0.0,0.0,0.0,0.0,0.0,0.0,0.0,0.0,0.0,0.0,0.0,0.0,0.0,0.0,2.3095,2.3108,2.3108,2.3108,2.3108,2.3108,2.3108,2.3108,2.3108,2.3108,2.2033,2.1493,2.1496,2.0326,1.9798,1.9798,1.9798,1.9798,1.9798,1.9798,1.9798,1.9798,1.9798,1.9798,1.9798,0.0,0.0,0.0,0.0,0.0,0.0,0.0,0.0,0.0,0.0,0.0,0.0,1.9798,1.9798,1.9747,1.9527,0.0,0.0,0.0,0.0,0.0,0.0,0.0,0.0,0.0,0.0,0.0,0.0,0.0,0.0,0.0,0.0,0.0,0.0,0.0,0.0,0.0,0.0,0.0,0.0,0.0,0.0,0.0,0.0,0.0,0.0,0.0,0.0,0.0,2.0605,2.0605,2.0605,2.0605,2.0605,2.0605,2.1555,2.1989,2.2038,2.3387,2.4631,2.5862,2.6564,2.7623,2.8925,2.9365,2.9641,2.9792,2.9792,2.9792,2.9792,2.9792,2.9792,2.9792,0.0,0.0,0.0,0.0,0.0,0.0,0.0,0.0,0.0,0.0,0.0,0.0,0.0,0.0,0.0,0.0,0.0,0.0,0.0,2.3108,2.3108,2.3108,2.3108,2.3108,2.3108,2.3108,2.3108,2.3108,2.2246,2.1707,2.1468,2.0564,2.0024,1.9798,1.9798,1.9798,1.9798,1.9798,1.9798,1.9798,1.9798,1.9798,1.9798,0.0,0.0,0.0,0.0,0.0,0.0,0.0,0.0,0.0,0.0,0.0,0.0,1.9798,1.9798,1.9798,0.0,0.0,0.0,0.0,0.0,0.0,0.0,0.0,0.0,0.0,0.0,0.0,0.0,0.0,0.0,0.0,0.0,0.0,0.0,0.0,0.0,0.0,0.0,0.0,0.0,0.0,0.0,0.0,0.0,0.0,0.0,0.0,0.0,0.0,2.0605,2.0605,2.0605,2.0605,2.0605,2.0605,2.1155,2.1543,2.1737,2.3438,2.4706,2.555,2.6535,2.7593,2.8588,2.8971,2.9404,2.9792,2.9792,2.9792,2.9792,2.9792,2.9792,2.9792,0.0,0.0,0.0,0.0,0.0,0.0,0.0,0.0,0.0,0.0,0.0,0.0,0.0,0.0,0.0,0.0,0.0,0.0,0.0,0.0,2.3108,2.3108,2.3108,2.3108,2.3108,2.3108,2.3108,2.3108,2.2556,2.2033,2.1481,2.0943,2.0377,1.9798,1.9798,1.9798,1.9798,1.9798,1.9798,1.9798,1.9798,1.9798,1.9798,1.9798,0.0,0.0,0.0,0.0,0.0,0.0,0.0,0.0,0.0,0.0,0.0,1.9798,1.9798,1.9798,0.0,0.0,0.0,0.0,0.0,0.0,0.0,0.0,0.0,0.0,0.0,0.0,0.0,0.0,0.0,0.0,0.0,0.0,0.0,0.0,0.0,0.0,0.0,0.0,0.0,0.0,0.0,0.0,0.0,0.0,0.0,0.0,0.0,2.0605,2.0605,2.0605,2.0605,2.0605,2.0605,0.0,2.0605,2.0879,2.1381,2.3238,2.4459,2.5184,2.6213,2.725,2.8255,2.8255,2.8858,2.9792,2.9792,2.9792,2.9792,2.9792,2.9792,2.9792,0.0,0.0,0.0,0.0,0.0,0.0,0.0,0.0,0.0,0.0,0.0,0.0,0.0,0.0,0.0,0.0,0.0,0.0,0.0,0.0,2.3108,2.3108,2.3108,2.3108,2.3108,2.3108,2.3108,2.3108,2.2556,2.2033,2.1481,2.0943,2.0377,1.9798,1.9798,1.9798,1.9798,1.9798,1.9798,1.9798,1.9798,1.9798,1.9798,1.9798,1.9798,0.0,0.0,0.0,0.0,0.0,0.0,0.0,0.0,1.9798,1.9798,1.9798,1.9798,0.0,0.0,0.0,0.0,0.0,0.0,0.0,0.0,0.0,0.0,0.0,0.0,0.0,0.0,0.0,0.0,0.0,0.0,0.0,0.0,0.0,0.0,0.0,0.0,0.0,0.0,0.0,0.0,0.0,0.0,0.0,0.0,0.0,0.0,2.0605,2.0605,2.0605,2.0605,2.0605,2.0605,0.0,2.0605,2.1202,2.2371,2.2392,2.3789,2.6251,2.7308,2.8398,2.9443,2.9443,2.9573,2.9792,2.9792,2.9792,2.9792,2.9792,2.9792,2.9792,0.0,0.0,0.0,0.0,0.0,0.0,0.0,0.0,0.0,0.0,0.0,0.0,0.0,0.0,0.0,0.0,0.0,0.0,0.0,0.0,2.3108,2.3108,2.3108,2.3108,2.3108,2.3108,2.3108,2.3108,2.2819,2.2393,2.187,2.1345,2.0779,2.0226,1.9924,1.9798,1.9798,1.9798,1.9798,1.9798,1.9798,1.9798,1.9798,1.9798,1.9798,1.9798,1.9798,0.0,0.0,0.0,0.0,0.0,0.0,0.0,1.9798,1.9798,1.9798,1.9798,0.0,0.0,0.0,0.0,0.0,0.0,0.0,0.0,0.0,0.0,0.0,0.0,0.0,0.0,0.0,0.0,0.0,0.0,0.0,0.0,0.0,0.0,0.0,0.0,0.0,0.0,0.0,0.0,0.0,0.0,0.0,2.0605,2.0605,2.0605,2.0605,2.0605,2.0605,2.0605,2.0605,2.0605,2.0605,2.1204,2.2321,2.2746,2.4199,2.6524,2.6491,2.7481,2.8988,2.8988,2.9326,2.9792,2.9792,2.9792,2.9792,2.9792,2.9792,2.9792,0.0,0.0,0.0,0.0,0.0,0.0,0.0,0.0,0.0,0.0,0.0,0.0,0.0,0.0,0.0,0.0,0.0,0.0,0.0,0.0,0.0,2.3108,2.3108,2.3108,2.3108,2.3108,2.3108,2.3108,2.3108,0.0,0.0,0.0,2.1219,2.0666,2.0062,1.9798,1.9798,1.9798,1.9798,1.9798,1.9798,1.9798,1.9798,1.9798,1.9798,1.9798,1.9798,1.9798,1.9798,1.9798,0.0,0.0,0.0,0.0,1.9798,1.9798,1.9798,1.9798,0.0,0.0,0.0,0.0,0.0,0.0,0.0,0.0,0.0,0.0,0.0,0.0,0.0,0.0,0.0,0.0,0.0,0.0,0.0,0.0,0.0,0.0,0.0,0.0,0.0,0.0,0.0,0.0,0.0,0.0,2.0605,2.0605,2.0605,2.0605,2.0605,2.0605,2.0605,2.0605,2.0605,2.0605,2.0762,2.1292,2.2215,2.3525,2.4993,2.6483,2.5714,2.6521,2.8386,2.8386,2.8937,2.9792,2.9792,2.9792,2.9792,2.9792,2.9792,2.9792,0.0,0.0,0.0,0.0,0.0,0.0,0.0,0.0,0.0,0.0,0.0,0.0,0.0,0.0,0.0,0.0,0.0,0.0,0.0,0.0,0.0,2.3108,2.3108,2.3108,2.3108,2.3108,2.3108,2.3108,0.0,0.0,0.0,0.0,0.0,2.0666,0.0,1.9798,1.9798,1.9798,1.9798,1.9798,1.9798,1.9798,1.9798,1.9798,1.9798,1.9798,1.9798,1.9798,1.9798,1.9798,1.9798,0.0,0.0,0.0,0.0,0.0,0.0,0.0,0.0,0.0,0.0,0.0,0.0,0.0,0.0,0.0,0.0,0.0,0.0,0.0,0.0,0.0,0.0,0.0,0.0,0.0,0.0,0.0,0.0,0.0,0.0,0.0,0.0,0.0,0.0,0.0,0.0,0.0,2.0605,2.0605,2.0605,2.0605,2.0605,2.0605,2.0605,2.0605,2.0605,2.0615,2.1378,2.227,2.3334,2.4263,2.5367,2.6565,2.7319,2.8398,2.9573,2.9573,2.9663,2.9792,2.9792,2.9792,2.9792,2.9792,2.9792,2.9792,0.0,0.0,0.0,0.0,0.0,0.0,0.0,0.0,0.0,0.0,0.0,0.0,0.0,0.0,0.0,0.0,0.0,0.0,0.0,0.0,0.0,2.3108,2.3108,2.3108,2.3108,2.3108,2.3108,2.3108,0.0,0.0,0.0,2.2322,2.1656,0.0,0.0,0.0,0.0,0.0,1.9798,1.9798,1.9798,1.9798,1.9798,1.9798,1.9798,1.9798,1.9798,1.9798,1.9798,1.9798,0.0,0.0,0.0,0.0,0.0,0.0,0.0,0.0,0.0,0.0,0.0,0.0,0.0,0.0,0.0,0.0,0.0,0.0,0.0,0.0,0.0,0.0,0.0,0.0,0.0,0.0,0.0,0.0,0.0,0.0,0.0,0.0,0.0,0.0,0.0,0.0,0.0,2.0605,2.0605,2.0605,2.0605,2.0605,2.0605,2.0605,2.0605,2.0605,2.0605,2.0615,2.211,2.3031,2.3564,2.5706,2.6942,2.74,2.7884,2.8767,2.9792,2.9792,2.9792,2.9792,2.9792,2.9792,2.9792,2.9792,2.9792,2.9792,0.0,0.0,0.0,0.0,0.0,0.0,0.0,0.0,0.0,0.0,0.0,0.0,0.0,0.0,0.0,0.0,0.0,0.0,0.0,0.0,0.0,0.0,0.0,2.3108,2.3108,2.3108,2.3108,0.0,0.0,0.0,2.3095,2.2681,2.2234,0.0,2.1006,0.0,0.0,0.0,0.0,0.0,0.0,0.0,0.0,0.0,0.0,0.0,0.0,0.0,0.0,0.0,0.0,0.0,0.0,0.0,0.0,0.0,0.0,0.0,0.0,0.0,0.0,0.0,0.0,0.0,0.0,0.0,0.0,0.0,0.0,0.0,0.0,0.0,0.0,0.0,0.0,0.0,0.0,0.0,0.0,0.0,0.0,0.0,0.0,0.0,0.0,0.0,0.0,2.1126,2.0644,2.0828,2.0857,2.0605,2.0605,2.0605,2.0605,2.0828,2.0972,2.0982,2.2943,2.4,2.4388,2.6645,2.7844,2.8136,2.8426,2.9028,2.9792,2.9792,2.9792,2.9792,2.9792,2.9792,2.9792,2.9792,2.9792,2.9792,0.0,0.0,0.0,0.0,0.0,0.0,0.0,0.0,0.0,0.0,0.0,0.0,0.0,0.0,0.0,0.0,0.0,0.0,0.0,0.0,0.0,0.0,0.0,0.0,2.3108,2.3108,0.0,0.0,0.0,0.0,2.3108,2.307,2.2769,2.2221,2.1169,2.0679,2.0616,0.0,0.0,0.0,0.0,0.0,0.0,0.0,0.0,0.0,0.0,0.0,0.0,0.0,0.0,0.0,0.0,0.0,0.0,0.0,0.0,0.0,0.0,0.0,0.0,0.0,0.0,0.0,0.0,0.0,0.0,0.0,0.0,0.0,0.0,0.0,0.0,0.0,0.0,0.0,0.0,0.0,0.0,0.0,0.0,0.0,0.0,0.0,0.0,0.0,0.0,2.2526,2.0712,2.1441,2.1517,2.0644,2.0605,2.0605,2.0605,2.1479,2.1924,2.1973,2.3946,2.5447,2.6437,2.6537,2.7128,2.8176,2.9236,2.9753,2.9792,2.9792,2.9792,2.9792,2.9792,2.9792,2.9792,2.9792,2.9792,2.9792,0.0,0.0,0.0,0.0,0.0,0.0,0.0,0.0,0.0,0.0,0.0,0.0,0.0,2.3108,2.3108,2.3108,0.0,0.0,0.0,0.0,0.0,0.0,0.0,0.0,0.0,0.0,0.0,0.0,0.0,2.3108,2.3108,2.3108,2.2995,2.2782,2.2058,2.133,2.0679,2.0465,0.0,0.0,0.0,0.0,0.0,0.0,0.0,0.0,0.0,0.0,0.0,0.0,0.0,0.0,0.0,0.0,0.0,0.0,0.0,0.0,0.0,0.0,0.0,0.0,0.0,0.0,0.0,0.0,0.0,0.0,0.0,0.0,0.0,0.0,0.0,0.0,0.0,0.0,0.0,0.0,0.0,0.0,0.0,0.0,0.0,0.0,0.0,0.0,0.0,0.0,2.1545,2.1811,2.1555,2.0644,2.0605,2.0895,2.1479,2.1849,2.2328,2.2973,2.5043,2.6212,2.6637,2.7254,2.8148,2.9157,2.8858,2.8727,2.8767,2.9495,2.9792,2.9792,2.9792,2.9792,2.9792,2.9792,2.9792,2.9792,0.0,0.0,0.0,0.0,0.0,0.0,0.0,0.0,0.0,0.0,0.0,0.0,0.0,0.0,2.3754,2.3501,2.4002,0.0,0.0,0.0,0.0,0.0,0.0,0.0,0.0,0.0,0.0,0.0,0.0,0.0,0.0,2.3215,2.3108,2.3083,2.2719,2.2083,0.0,0.0,0.0,2.0363,0.0,0.0,2.0363,0.0,0.0,0.0,0.0,0.0,0.0,0.0,0.0,0.0,0.0,0.0,0.0,0.0,0.0,0.0,0.0,0.0,0.0,0.0,0.0,0.0,0.0,0.0,0.0,0.0,0.0,0.0,0.0,0.0,0.0,0.0,0.0,0.0,0.0,0.0,0.0,0.0,0.0,0.0,0.0,0.0,0.0,0.0,0.0,0.0,2.1786,2.2206,2.2075,2.1116,2.1078,2.1517,2.2478,2.285,2.3331,2.4011,2.6113,2.7113,2.7149,2.7816,2.8505,2.9197,2.8426,2.8307,2.8727,2.9495,2.9792,2.9792,2.9792,2.9792,2.9792,2.9792,2.9792,2.9792,0.0,0.0,0.0,0.0,0.0,0.0,0.0,0.0,0.0,0.0,0.0,0.0,0.0,0.0,0.0,2.4408,2.435,2.4031,2.3215,0.0,0.0,0.0,0.0,0.0,0.0,0.0,0.0,0.0,0.0,0.0,0.0,0.0,2.3108,2.3108,2.3108,2.2807,2.2297,0.0,2.1506,2.1493,0.0,2.1493,2.1493,0.0,0.0,0.0,2.0932,2.0743,0.0,0.0,0.0,0.0,0.0,0.0,0.0,0.0,0.0,0.0,0.0,0.0,0.0,0.0,0.0,0.0,0.0,0.0,0.0,0.0,0.0,0.0,0.0,0.0,0.0,0.0,0.0,0.0,0.0,0.0,0.0,0.0,0.0,0.0,0.0,0.0,0.0,0.0,0.0,2.4297,2.1418,2.2663,2.3036,2.2065,2.2027,2.2515,2.3514,2.4528,2.5004,2.5064,2.7125,2.8109,2.8098,2.8101,2.8136,2.8136,2.8124,2.8767,2.9792,2.9792,2.9792,2.9792,2.9792,2.9792,2.9792,2.9792,2.9792,2.9792,0.0,0.0,0.0,0.0,0.0,0.0,0.0,0.0,0.0,0.0,0.0,0.0,2.5091,2.5287,2.5315,2.5119,2.5563,2.5563,2.4809,2.5741,2.589,2.4809,2.5782,0.0,0.0,0.0,0.0,0.0,0.0,0.0,0.0,0.0,0.0,0.0,2.3108,2.302,2.2844,2.2322,0.0,0.0,2.1493,2.1493,0.0,0.0,0.0,0.0,0.0,2.1722,0.0,0.0,2.1208,2.0377,0.0,0.0,0.0,0.0,0.0,0.0,1.9798,0.0,0.0,0.0,0.0,0.0,0.0,0.0,0.0,0.0,0.0,0.0,0.0,0.0,0.0,0.0,0.0,0.0,0.0,0.0,0.0,0.0,0.0,0.0,0.0,0.0,0.0,0.0,2.4471,2.4232,2.2372,2.2368,2.2627,2.3073,2.3073,2.3551,2.4564,2.4862,2.537,2.6107,2.7462,2.8109,2.8098,2.8101,2.8557,2.9275,2.8478,2.8767,2.9792,2.9792,2.9792,2.9792,2.9792,2.9792,2.9792,2.9792,2.9792,2.9792,0.0,0.0,0.0,0.0,0.0,0.0,0.0,0.0,0.0,0.0,0.0,0.0,2.6269,2.6322,2.6188,2.5892,2.6256,2.6203,2.5453,2.6215,2.6295,2.5425,2.6215,2.6269,0.0,0.0,0.0,0.0,0.0,0.0,0.0,0.0,0.0,0.0,0.0,0.0,0.0,0.0,0.0,0.0,2.2531,0.0,0.0,2.2531,2.2458,0.0,0.0,0.0,2.1895,2.2427,2.21,0.0,0.0,0.0,0.0,0.0,0.0,0.0,0.0,0.0,0.0,0.0,0.0,0.0,0.0,1.9798,0.0,0.0,0.0,0.0,0.0,0.0,0.0,0.0,0.0,0.0,0.0,0.0,0.0,0.0,0.0,0.0,0.0,0.0,0.0,2.3615,2.4155,2.4132,2.3363,2.2882,2.3073,2.4072,2.412,2.46,2.5629,2.5629,2.5921,2.6512,2.7582,2.8109,2.811,2.8602,2.9157,2.9753,2.9106,2.9197,2.9792,2.9792,2.9792,2.9792,2.9792,2.9792,2.9792,2.9792,2.9792,2.9792,0.0,0.0,0.0,0.0,0.0,0.0,0.0,0.0,0.0,0.0,2.6229,2.6878,2.7524,2.76,2.7331,2.6695,2.6616,2.6336,2.5701,2.5646,2.5646,2.5646,2.5646,2.5646,2.5646,0.0,0.0,0.0,0.0,0.0,0.0,0.0,0.0,0.0,0.0,0.0,0.0,0.0,0.0,2.3275,2.3914,2.3738,0.0,0.0,2.3855,0.0,2.2881,2.2703,2.2643,2.2678,2.2616,0.0,0.0,0.0,0.0,0.0,2.0415,0.0,0.0,0.0,0.0,0.0,0.0,0.0,1.9798,1.9798,1.9798,0.0,0.0,0.0,0.0,0.0,0.0,0.0,0.0,0.0,0.0,0.0,0.0,0.0,0.0,0.0,0.0,2.3108,2.3108,2.3108,2.3592,2.407,2.4344,2.3916,2.412,2.5111,2.5158,2.5594,2.6499,2.6499,2.6499,2.6512,2.7582,2.8109,2.8147,2.9277,2.9792,2.9792,2.9792,2.9792,2.9792,2.9792,2.9792,2.9792,2.9792,2.9792,2.9792,2.9792,2.9792,2.9792,0.0,0.0,0.0,0.0,0.0,0.0,0.0,0.0,0.0,0.0,2.7306,2.7433,2.7575,2.76,2.7534,2.7408,2.7382,2.7331,2.7188,2.7163,2.7163,2.7163,2.7163,2.7163,2.7163,2.7198,0.0,0.0,0.0,0.0,0.0,0.0,0.0,0.0,0.0,0.0,0.0,0.0,0.0,2.4031,2.3531,0.0,2.3198,2.4002,2.4205,2.4208,2.5287,2.5301,2.4623,0.0,2.2847,2.2258,0.0,0.0,0.0,0.0,0.0,0.0,0.0,0.0,0.0,0.0,0.0,0.0,1.9798,1.9798,1.9798,0.0,0.0,0.0,0.0,0.0,0.0,0.0,0.0,0.0,0.0,0.0,0.0,0.0,0.0,0.0,0.0,2.3108,2.3108,2.3108,2.3303,2.3987,2.5261,2.4929,2.5182,2.6176,2.6198,2.6314,2.6499,2.6499,2.6499,2.6512,2.7582,2.8109,2.8147,2.9277,2.9792,2.9792,2.9792,2.9792,2.9792,2.9792,2.9792,2.9792,2.9792,2.9792,2.9792,2.9792,2.9792,2.9792,0.0,0.0,0.0,0.0,0.0,0.0,0.0,0.0,0.0,0.0,2.76,2.76,0.0,0.0,0.0,0.0,2.76,2.76,0.0,2.76,2.76,2.76,2.76,2.76,2.76,2.76,0.0,0.0,0.0,0.0,0.0,0.0,0.0,0.0,0.0,0.0,0.0,0.0,2.3335,2.3738,2.4105,0.0,2.4323,2.5119,2.5175,2.4908,2.5259,2.5398,2.5245,2.4206,2.383,0.0,0.0,2.2121,2.1895,0.0,2.1707,2.143,0.0,0.0,0.0,2.0715,0.0,0.0,0.0,2.0264,2.015,1.9861,0.0,0.0,0.0,0.0,0.0,0.0,0.0,0.0,0.0,0.0,0.0,0.0,0.0,0.0,0.0,2.3108,2.3108,2.3108,2.3453,2.4079,2.5151,2.5274,2.566,2.6487,2.6499,2.6499,2.6499,2.6499,2.6499,2.6512,2.7582,2.8109,2.8147,2.9277,2.9792,2.9792,2.9792,2.9792,2.9792,2.9792,2.9792,2.9792,2.9792,2.9792,2.9792,2.9792,2.9792,2.9792,0.0,0.0,0.0,0.0,0.0,0.0,0.0,0.0,0.0,0.0,0.0,0.0,0.0,0.0,0.0,0.0,0.0,0.0,0.0,0.0,0.0,2.76,2.76,2.76,2.76,2.76,2.76,0.0,0.0,0.0,0.0,0.0,0.0,0.0,0.0,0.0,0.0,0.0,0.0,2.3636,0.0,2.5231,2.5063,2.596,2.5933,2.537,2.5063,2.5231,2.5508,2.4766,0.0,2.4951,2.3531,2.2794,0.0,0.0,0.0,0.0,0.0,0.0,0.0,0.0,0.0,2.1408,0.0,0.0,0.0,2.0225,0.0,0.0,0.0,0.0,0.0,0.0,0.0,0.0,0.0,0.0,0.0,0.0,0.0,0.0,0.0,2.3108,2.3108,2.3108,2.3665,2.4243,2.4763,2.531,2.5862,2.6474,2.6499,2.6499,2.6499,2.6499,2.6499,2.6512,2.7582,2.8109,2.8147,2.9277,2.9792,2.9792,2.9792,2.9792,2.9792,2.9792,2.9792,2.9792,2.9792,2.9792,2.9792,2.9792,2.9792,2.9792,0.0,0.0,0.0,0.0,0.0,0.0,0.0,0.0,0.0,0.0,0.0,0.0,0.0,0.0,0.0,0.0,0.0,0.0,2.76,0.0,0.0,0.0,2.76,2.76,2.76,2.76,2.76,0.0,0.0,0.0,0.0,0.0,0.0,0.0,2.4922,0.0,0.0,0.0,2.4538,0.0,2.5315,2.4582,0.0,2.4965,2.5481,2.5563,2.6785,2.6864,2.6256,0.0,2.4908,2.4263,0.0,2.3058,0.0,0.0,0.0,0.0,0.0,0.0,0.0,0.0,2.1493,0.0,0.0,0.0,2.1408,2.1305,0.0,0.0,0.0,0.0,0.0,0.0,0.0,0.0,0.0,0.0,0.0,0.0,0.0,0.0,0.0,0.0,2.3108,2.3108,2.3665,2.4243,2.4763,2.531,2.5862,2.6474,2.6499,2.6499,2.6499,2.6499,2.6499,2.6512,2.7582,2.8109,2.8147,2.9277,2.9792,2.9792,2.9792,2.9792,2.9792,2.9792,2.9792,2.9792,2.9792,2.9792,2.9792,2.9792,2.9792,2.9792,0.0,0.0,0.0,0.0,0.0,0.0,0.0,0.0,0.0,0.0,0.0,0.0,0.0,0.0,0.0,0.0,0.0,2.76,0.0,0.0,0.0,0.0,0.0,0.0,0.0,2.76,2.76,0.0,2.728,0.0,0.0,0.0,0.0,0.0,2.5007,0.0,2.505,0.0,0.0,0.0,0.0,0.0,0.0,2.5945,2.6162,2.5536,2.6575,2.6496,2.5864,0.0,2.5536,0.0,0.0,0.0,0.0,0.0,0.0,0.0,0.0,0.0,0.0,0.0,0.0,0.0,0.0,0.0,2.1882,0.0,0.0,0.0,0.0,0.0,0.0,0.0,0.0,0.0,0.0,0.0,0.0,0.0,0.0,0.0,0.0,0.0,0.0,0.0,0.0,2.3847,2.4738,2.4988,2.5548,2.6461,2.6499,2.6499,2.6499,2.6499,2.6499,2.6512,2.7582,2.8109,2.8147,2.9277,2.9792,2.9792,2.9792,2.9792,2.9792,2.9792,2.9792,2.9792,2.9792,2.9792,2.9792,2.9792,2.9792,2.9792,0.0,0.0,0.0,0.0,0.0,0.0,0.0,0.0,0.0,0.0,0.0,0.0,2.8154,2.8154,0.0,0.0,0.0,2.8154,0.0,0.0,2.8154,2.8154,2.8154,0.0,0.0,0.0,0.0,0.0,0.0,0.0,0.0,0.0,0.0,0.0,0.0,2.5398,2.6122,0.0,0.0,2.4908,2.4908,2.5035,2.5356,2.6745,2.6759,2.6081,2.6602,2.6469,2.6027,2.6149,2.5837,0.0,2.4538,0.0,0.0,0.0,0.0,0.0,2.3424,0.0,0.0,0.0,0.0,0.0,0.0,0.0,0.0,0.0,0.0,0.0,0.0,0.0,0.0,0.0,0.0,0.0,0.0,0.0,0.0,0.0,0.0,0.0,0.0,0.0,0.0,2.3108,2.3108,2.3597,2.4725,2.4788,2.5322,2.6461,2.6499,2.6499,2.6499,2.6499,2.6499,2.6512,2.7582,2.8109,2.8147,2.9277,2.9792,2.9792,2.9792,2.9792,2.9792,2.9792,2.9792,2.9792,2.9792,2.9792,2.9792,2.9792,2.9792,2.9792,0.0,2.76,0.0,0.0,0.0,0.0,0.0,0.0,0.0,0.0,0.0,0.0,0.0,0.0,0.0,0.0,0.0,2.9547,2.9547,0.0,2.9547,0.0,2.9547,2.922,0.0,0.0,0.0,0.0,0.0,0.0,0.0,0.0,0.0,0.0,0.0,2.6068,2.5425,2.537,2.5783,2.6431,2.6431,2.6852,2.7408,0.0,2.6956,2.7534,2.7575,0.0,0.0,2.5919,2.5425,0.0,0.0,0.0,0.0,0.0,0.0,0.0,0.0,0.0,0.0,2.3108,0.0,0.0,0.0,0.0,2.307,0.0,0.0,0.0,0.0,0.0,0.0,0.0,0.0,0.0,0.0,0.0,0.0,0.0,0.0,0.0,0.0,0.0,0.0,2.3108,2.3108,2.3597,2.4725,2.4788,2.5322,2.6461,2.6499,2.6499,2.6499,2.6499,2.6499,2.6512,2.7582,2.8109,2.8147,2.9277,2.9792,2.9792,2.9792,2.9792,2.9792,2.9792,2.9792,2.9792,2.9792,2.9792,2.9792,2.9792,2.9792,2.9792,0.0,0.0,0.0,0.0,0.0,0.0,0.0,2.925,0.0,0.0,0.0,0.0,0.0,0.0,2.9606,0.0,0.0,2.9606,2.9606,2.9606,0.0,0.0,0.0,2.9475,0.0,0.0,0.0,0.0,0.0,0.0,0.0,0.0,0.0,0.0,0.0,2.7581,0.0,0.0,0.0,0.0,0.0,2.7872,2.791,0.0,0.0,2.6878,2.6878,2.6878,0.0,2.6864,2.6549,2.6095,2.5837,2.5425,2.4979,2.4738,2.4509,0.0,0.0,0.0,2.3884,2.3884,0.0,0.0,0.0,0.0,0.0,0.0,0.0,0.0,0.0,0.0,0.0,0.0,0.0,0.0,0.0,0.0,0.0,0.0,0.0,0.0,0.0,0.0,0.0,2.3108,2.3108,2.3597,0.0,2.4788,2.5322,2.6461,2.6499,2.6499,2.6499,2.6499,2.6499,2.6512,2.7582,2.8109,2.8147,2.9277,2.9792,2.9792,2.9792,2.9792,2.9792,2.9792,2.9792,2.9792,2.9792,2.9792,2.9792,2.9792,2.9792,2.9792,2.9606,0.0,0.0,0.0,0.0,0.0,0.0,0.0,0.0,0.0,3.0283,0.0,3.0283,0.0,3.0283,0.0,3.0283,3.0283,3.0283,3.0283,0.0,3.0283,3.0283,0.0,0.0,0.0,0.0,0.0,0.0,2.907,0.0,0.0,0.0,0.0,0.0,0.0,0.0,0.0,2.8297,0.0,0.0,2.8819,0.0,0.0,2.7009,2.7173,0.0,2.7606,2.7632,2.7815,2.7374,2.6803,2.7077,2.665,2.6061,2.616,2.579,2.5287,2.5101,2.4816,0.0,2.4345,2.4509,0.0,2.3708,0.0,0.0,0.0,0.0,0.0,0.0,0.0,0.0,0.0,0.0,0.0,0.0,0.0,0.0,0.0,0.0,0.0,0.0,0.0,2.3108,2.3108,2.3108,2.3597,0.0,0.0,2.5322,2.6461,2.6499,2.6499,2.6499,2.6499,2.6499,2.6512,2.7582,2.8109,2.8147,2.9277,2.9792,2.9792,2.9792,2.9792,2.9792,2.9792,2.9792,2.9792,2.9792,2.9792,2.9792,2.9792,2.9792,2.9792,0.0,0.0,0.0,0.0,2.9696,0.0,0.0,0.0,3.0791,0.0,3.1511,3.1511,3.1511,3.1511,3.1511,3.1511,3.1511,0.0,3.1511,3.1511,0.0,0.0,3.1511,3.1197,3.0567,0.0,0.0,0.0,0.0,0.0,0.0,0.0,0.0,0.0,2.8038,0.0,2.9518,2.8009,2.8269,2.9696,2.9696,2.9684,2.9642,2.9642,2.9103,2.844,2.9307,2.9606,2.9483,2.8706,2.7939,2.7429,2.8168,2.7853,2.7531,2.8972,2.8325,2.7039,2.656,2.5828,2.5087,2.4562,0.0,0.0,0.0,0.0,2.4292,0.0,0.0,0.0,0.0,0.0,0.0,0.0,0.0,0.0,0.0,0.0,0.0,0.0,0.0,0.0,0.0,2.3108,2.3108,2.3108,2.3108,0.0,0.0,0.0,2.5322,2.6461,2.6499,2.6499,2.6499,2.6499,2.6512,2.6549,2.7595,2.8122,2.8185,2.9289,2.9792,2.9792,2.9792,2.9792,2.9792,2.9792,2.9792,2.9792,2.9792,2.9792,2.9792,2.9792,2.9792,2.9792,3.1002,3.1002,3.1002,0.0,3.1002,3.1062,0.0,0.0,0.0,0.0,3.1511,3.1511,3.1511,3.1511,3.1511,3.1511,3.1511,0.0,0.0,0.0,0.0,3.1511,3.1511,3.1421,3.1241,3.1241,0.0,3.1002,0.0,0.0,3.0119,0.0,0.0,0.0,0.0,0.0,3.0089,2.969,3.0104,3.1002,3.1002,3.0658,0.0,0.0,2.957,2.8884,2.9409,2.9606,2.9579,2.9359,2.9153,2.8917,2.8467,2.8169,2.7852,2.7076,2.6566,2.634,2.6852,2.6825,2.6635,2.6485,2.6319,2.5918,0.0,0.0,0.0,0.0,0.0,0.0,0.0,0.0,0.0,0.0,0.0,0.0,0.0,0.0,0.0,0.0,0.0,0.0,0.0,2.3108,2.3108,2.3108,2.3108,0.0,0.0,0.0,0.0,2.6461,2.6499,2.6499,2.6499,2.6499,2.67,2.7115,2.777,2.8323,2.87,2.9465,2.9792,2.9792,2.9792,2.9792,2.9792,2.9792,2.9792,2.9792,2.9792,2.9792,2.9792,2.9792,2.9792,2.9792,3.1511,0.0,0.0,3.1511,0.0,0.0,3.1511,0.0,0.0,3.1511,3.175,0.0,3.1929,3.2183,3.2363,3.2363,3.2363,0.0,3.1959,0.0,0.0,3.1511,3.1511,3.1511,3.1511,3.1511,0.0,3.1511,0.0,0.0,3.0837,0.0,0.0,0.0,0.0,3.0494,0.0,3.0807,3.0866,3.0999,3.1351,0.0,0.0,3.0807,3.0524,3.0107,3.0361,2.9966,2.9334,2.9334,2.9086,2.8821,2.9086,2.8895,2.8554,2.839,2.8119,2.782,2.7663,2.7863,2.7985,2.7351,2.7497,2.7598,2.6726,2.6112,2.5714,0.0,0.0,0.0,0.0,0.0,0.0,0.0,0.0,0.0,0.0,0.0,0.0,0.0,0.0,0.0,2.3108,2.3108,2.3108,2.3108,0.0,0.0,0.0,0.0,0.0,2.6461,2.6499,2.6499,2.6499,2.6499,2.6776,2.7329,2.7846,2.8398,2.8913,2.9528,2.9792,2.9792,2.9792,2.9792,2.9792,2.9792,2.9792,2.9792,2.9792,2.9792,2.9792,2.9792,2.9792,2.9792,0.0,0.0,0.0,0.0,0.0,0.0,0.0,3.169,0.0,3.175,0.0,3.2647,3.2647,3.3155,3.3499,3.3499,0.0,3.3245,3.2677,3.2647,3.2318,3.166,3.163,3.1585,3.1511,3.1511,0.0,0.0,0.0,0.0,0.0,0.0,0.0,0.0,0.0,0.0,0.0,3.1467,3.1087,0.0,3.1219,3.1511,3.1511,3.138,3.1351,3.1322,3.1219,3.0389,2.9317,2.9223,2.8684,2.8266,2.9535,2.9442,2.9097,3.045,3.0359,2.9577,2.8583,2.8687,2.8831,2.7716,2.8426,2.9215,2.8497,2.7965,2.7603,2.7479,2.6048,2.4953,0.0,0.0,0.0,0.0,0.0,0.0,0.0,0.0,0.0,0.0,0.0,0.0,0.0,0.0,0.0,0.0,0.0,0.0,0.0,0.0,0.0,2.6461,2.6499,0.0,2.6499,0.0,2.6876,2.7394,2.7946,2.8499,2.9026,2.9566,2.9792,2.9792,2.9792,2.9792,2.9792,2.9792,2.9792,2.9792,2.9792,2.9792,2.9792,2.9792,2.9792,2.9792,0.0,0.0,0.0,0.0,0.0,3.3155,3.3155,3.2691,3.2512,3.308,3.3245,3.332,3.332,3.3425,3.3499,3.3499,3.3499,0.0,0.0,0.0,0.0,3.2333,3.2303,3.2064,3.1511,3.1511,3.1511,0.0,0.0,0.0,0.0,0.0,0.0,0.0,0.0,0.0,3.0554,3.1219,0.0,3.1307,3.1438,3.1511,3.1438,3.0777,3.0524,3.0419,2.969,3.0133,3.097,3.0299,2.9981,2.9659,2.8524,2.8051,2.7855,2.7484,2.7297,2.7425,2.8561,2.8438,2.8091,2.8555,2.8558,2.8362,2.8121,2.8165,2.8039,2.7393,2.7497,2.7312,2.6176,0.0,0.0,0.0,0.0,0.0,0.0,0.0,0.0,0.0,0.0,0.0,0.0,0.0,0.0,0.0,0.0,0.0,0.0,0.0,0.0,0.0,2.6499,0.0,0.0,0.0,2.7419,2.7971,2.8511,2.9089,2.9641,2.9741,2.9792,2.9792,2.9792,2.9792,2.9792,2.9792,2.9792,2.9792,2.9792,2.9792,2.9792,2.9792,2.9792,2.9792,0.0,0.0,0.0,0.0,0.0,0.0,0.0,3.3739,0.0,3.3499,3.3784,3.4039,3.4039,3.4322,3.4532,3.4532,3.4532,3.4382,3.4023,3.4039,3.3709,3.3051,3.3021,0.0,3.2527,3.2183,3.2004,3.2004,0.0,0.0,0.0,0.0,0.0,0.0,0.0,3.0673,0.0,0.0,0.0,3.0896,3.1322,3.1511,3.1467,3.1058,3.0925,3.0866,3.045,3.0807,3.1307,3.0042,2.9628,2.9566,2.916,2.9066,2.8971,2.8588,2.846,2.846,2.833,2.8684,2.9034,2.9002,2.9464,2.9882,2.9838,2.9638,2.9371,2.8987,2.8641,2.7925,2.6394,2.5862,0.0,0.0,0.0,0.0,0.0,0.0,0.0,0.0,0.0,0.0,0.0,0.0,0.0,0.0,0.0,0.0,0.0,0.0,0.0,0.0,0.0,0.0,0.0,0.0,0.0,2.8109,2.8624,2.9239,2.9792,2.9792,2.9792,2.9792,2.9792,2.9792,2.9792,2.9792,2.9792,2.9792,2.9792,2.9792,2.9792,2.9792,2.9792,2.9792,0.0,3.3604,0.0,0.0,3.3829,0.0,3.4622,3.4728,3.4502,3.3993,3.4367,3.4728,3.4728,3.5175,3.5504,3.5504,3.5504,3.528,3.4758,3.4728,3.4397,3.3724,3.3709,3.3649,3.3499,3.2991,3.2721,0.0,0.0,0.0,0.0,0.0,0.0,0.0,0.0,0.0,0.0,0.0,3.1575,3.1052,3.1664,3.1929,3.1929,3.1929,3.1929,3.1929,3.1929,3.1929,3.1723,3.0411,2.9526,2.9066,2.938,2.9473,2.9473,2.9473,2.9597,2.9473,2.8298,2.8971,2.9858,2.916,3.0133,3.119,3.0999,3.0833,3.066,3.0504,2.9578,2.8381,2.7039,2.6674,0.0,0.0,0.0,0.0,0.0,0.0,0.0,0.0,0.0,0.0,0.0,0.0,0.0,0.0,0.0,2.4707,2.5548,2.5711,0.0,0.0,0.0,2.6549,2.6663,0.0,2.7733,0.0,2.885,2.9352,2.9792,2.9792,2.9792,2.9792,2.9792,2.9792,2.9792,2.9792,2.9792,2.9792,2.9792,2.9792,2.9792,2.9792,2.9792,2.9792,0.0,0.0,0.0,0.0,0.0,0.0,3.54,3.5415,3.5385,3.5325,3.537,3.5415,3.5415,3.5474,3.5504,3.5504,3.5504,3.5474,3.5415,3.5415,3.51,3.4444,3.4414,3.4098,3.3499,3.344,3.341,0.0,0.0,0.0,0.0,0.0,0.0,0.0,0.0,0.0,0.0,3.3274,3.3274,3.3213,3.3274,3.3305,3.3305,3.3305,3.3305,3.3305,3.3305,3.3305,3.3274,3.3137,3.1281,2.8748,2.7317,2.685,2.685,2.685,2.7384,2.8084,2.8716,2.9002,2.9097,2.9034,2.969,3.0208,2.9411,3.0346,3.1188,3.0452,3.0215,2.9894,2.9216,2.8493,2.7598,0.0,0.0,0.0,0.0,0.0,0.0,0.0,0.0,0.0,0.0,0.0,0.0,0.0,0.0,2.5485,2.5586,2.6135,2.6436,2.6499,0.0,2.6738,2.7241,2.7758,2.8298,2.8813,2.944,2.9741,2.9792,2.9792,2.9792,2.9792,2.9792,2.9792,2.9792,2.9792,2.9792,2.9792,2.9792,2.9792,2.9792,2.9792,2.9792,2.9792,0.0,0.0,0.0,0.0,0.0,0.0,0.0,3.5504,3.5504,3.5504,3.5504,3.5504,3.5504,3.5504,3.5504,3.5504,3.5504,3.5504,3.5504,3.5504,3.5385,3.51,3.51,3.4966,3.4711,3.4307,3.4114,0.0,0.0,0.0,0.0,0.0,0.0,0.0,0.0,3.3499,3.3499,3.3499,3.3499,3.3499,3.3499,3.3499,3.3499,3.3499,3.3499,3.3499,3.3499,3.3499,3.3423,3.2882,3.228,3.1594,3.0903,3.0697,3.0471,2.9396,2.9717,3.0243,2.9483,2.9803,3.0321,3.0321,3.065,3.0925,3.0584,3.1029,3.1409,3.1087,3.1029,3.0793,3.0072,2.9686,2.9282,0.0,0.0,0.0,0.0,0.0,0.0,0.0,0.0,0.0,0.0,0.0,0.0,0.0,0.0,2.5749,2.6135,2.6361,2.6499,2.6499,0.0,2.709,2.7281,2.816,2.8675,2.89,2.9515,2.9792,2.9792,2.9792,2.9792,2.9792,2.9792,2.9792,2.9792,2.9792,2.9792,2.9792,2.9792,2.9792,2.9792,2.9792,2.9792,2.9792,3.5504,0.0,3.5504,0.0,3.5504,3.5504,3.5504,3.5504,3.5504,3.5504,3.5504,3.5504,3.5504,3.5504,3.5504,3.5504,3.5504,3.5504,3.5504,3.5504,3.5504,3.5504,3.5504,0.0,3.5504,3.5026,3.4771,3.4771,3.4322,0.0,0.0,0.0,0.0,0.0,3.4083,3.4083,3.4083,3.4083,3.4083,3.4083,3.4083,3.4083,3.4083,3.4083,3.4083,3.4083,3.4083,3.4083,3.3974,3.336,3.3566,3.3915,3.3046,3.2757,3.2521,3.1231,3.1509,3.1868,3.029,3.0876,3.1745,3.1214,3.1579,3.196,3.1501,3.1589,3.1735,3.154,3.1511,3.1322,3.0777,3.045,3.0238,2.995,0.0,0.0,0.0,0.0,0.0,0.0,0.0,2.5699,2.5845,0.0,0.0,0.0,0.0,0.0,2.6474,2.6499,0.0,0.0,0.0,0.0,0.0,2.8499,2.8976,2.9189,2.9591,2.9792,2.9792,2.9792,2.9792,2.9792,2.9792,2.9792,2.9792,2.9792,2.9792,2.9792,2.9792,2.9792,2.9792,2.9792,2.9792,2.9792,3.5504,3.5504,3.5504,3.5504,3.5504,3.5504,3.5504,3.5504,3.5504,3.5504,3.5504,3.5504,3.5504,3.5504,3.5504,3.5504,3.5504,3.5504,3.5504,3.5504,3.5504,0.0,0.0,3.5504,3.5504,3.5489,3.5489,3.5489,0.0,0.0,3.3499,0.0,3.4203,3.5489,3.5489,3.5489,3.5489,3.5489,3.5489,3.5489,3.5489,3.5489,3.5489,3.5489,3.5489,3.5489,3.5489,3.5489,3.5474,3.5442,3.5489,3.4961,3.1971,3.1032,3.1032,3.0999,3.1575,3.1979,3.1032,3.2108,3.3038,3.1264,3.2158,3.3092,3.1555,3.1851,3.2288,3.1645,3.1511,3.1511,3.1511,3.0837,3.0011,2.916,0.0,0.0,0.0,0.0,0.0,0.0,2.717,2.7371,2.6577,0.0,0.0,0.0,0.0,0.0,0.0,0.0,0.0,2.7256,2.7281,0.0,2.8863,2.8888,2.9214,2.9779,2.9792,2.9792,2.9792,2.9792,2.9792,2.9792,2.9792,2.9792,2.9792,2.9792,2.9792,2.9792,2.9792,2.9792,2.9792,2.9792,2.9792,2.9792,3.5504,3.5504,3.5504,3.5504,3.5504,3.5504,3.5504,3.5504,3.5504,3.5504,3.5504,3.5504,3.5504,3.5504,3.5504,0.0,3.5504,3.5504,0.0,3.5504,3.5504,3.5504,3.5504,3.5504,3.5504,3.5504,3.5504,3.5504,0.0,0.0,0.0,3.4861,3.51,3.5504,3.5504,3.5504,3.5504,3.5504,3.5504,3.5504,3.5504,3.5504,3.5504,3.5504,3.5504,3.5504,3.5504,3.5504,3.5504,3.5504,3.5504,3.5317,3.4368,3.4058,3.3944,3.3255,3.3717,3.4221,3.3255,3.3561,3.4049,3.348,3.341,3.3363,3.2879,3.2972,3.2991,3.2303,3.2168,3.2034,3.1585,3.1278,3.1029,3.0748,3.0464,0.0,0.0,0.0,0.0,0.0,2.6714,2.6782,0.0,2.6499,0.0,0.0,0.0,0.0,0.0,0.0,0.0,0.0,2.8009,0.0,2.8888,2.9315,2.9616,2.9792,2.9792,2.9792,2.9792,2.9792,2.9792,2.9792,2.9792,2.9792,2.9792,2.9792,2.9792,2.9792,2.9792,2.9792,2.9792,2.9792,2.9792,2.9792,3.5504,3.5504,3.5504,3.5504,3.5504,3.5504,3.5504,3.5504,3.5504,3.5504,3.5504,3.5504,3.5504,3.5504,0.0,3.5504,3.5504,3.5504,3.5504,3.5504,3.5504,3.5504,3.5504,3.5504,3.5504,0.0,0.0,3.5504,3.5504,3.5504,3.5504,3.5504,3.5504,3.5504,3.5504,3.5504,3.5504,3.5504,3.5504,3.5504,3.5504,3.5504,3.5504,3.5504,3.5504,3.5504,3.5504,3.5504,3.5504,3.5504,3.5504,3.5504,3.5504,3.5504,3.5359,3.4758,3.5019,3.5279,3.4279,3.4416,3.4782,3.4431,3.4263,3.4188,3.3918,3.3664,3.338,3.2961,3.2886,3.2766,3.2318,3.2049,3.1766,3.1442,3.1205,3.0584,2.9192,0.0,0.0,0.0,0.0,0.0,0.0,2.6869,0.0,0.0,0.0,0.0,0.0,0.0,0.0,2.7896,2.8561,0.0,2.9252,2.9616,2.9792,2.9792,2.9792,2.9792,2.9792,2.9792,2.9792,2.9792,2.9792,2.9792,2.9792,2.9792,2.9792,2.9792,2.9792,2.9792,2.9792,2.9792,2.9792,2.9792,3.5504,3.5504,3.5504,0.0,3.5504,0.0,3.5504,3.5504,3.5504,3.5504,3.5504,3.5504,3.5504,3.5504,3.5504,3.5504,0.0,0.0,0.0,3.5504,3.5504,3.5504,3.5504,3.5504,3.5504,3.5504,3.5504,3.5504,3.5504,3.5504,3.5504,3.5504,3.5504,3.5504,3.5504,3.5504,3.5504,3.5504,3.5504,3.5504,3.5504,3.5504,3.5504,3.5504,3.5504,3.5504,3.5504,3.5504,3.5504,3.5504,3.5504,3.5504,3.5504,3.5504,3.5504,3.5504,3.5504,3.5294,3.4361,3.4806,3.5279,3.4361,3.4806,3.534,3.4728,3.4083,3.3619,3.3574,3.3559,3.3544,3.3499,3.2991,3.2302,3.1482,3.0881,3.0201,2.9348,0.0,0.0,0.0,0.0,0.0,0.0,2.7631,2.7473,0.0,0.0,0.0,0.0,0.0,2.8497,2.8875,2.8938,2.9252,2.9779,2.9856,2.9895,2.9895,2.9895,2.9856,2.9792,2.9792,2.9792,2.9792,2.9792,2.9792,2.9792,2.9792,2.9792,2.9792,2.9792,2.9792,2.9792,2.9792,2.9792,2.9792,0.0,0.0,3.5504,3.5504,3.5504,3.5504,3.5504,3.5504,3.5504,3.5504,3.5504,3.5504,3.5504,3.5504,3.5504,3.5504,3.5504,3.5504,3.5504,3.5504,3.5504,3.5504,3.5504,3.5504,3.5504,3.5504,3.5504,3.5504,3.5504,3.5504,3.5504,3.5504,3.5504,3.5504,3.5504,3.5504,3.5504,3.5504,3.5504,3.5504,3.5504,3.5504,3.5504,3.5504,3.5504,3.5504,3.5504,3.5504,3.5504,3.5504,3.5504,3.5504,3.5504,3.5504,3.5504,3.5504,3.5504,3.5439,3.5213,3.5326,3.5424,3.5213,3.5311,3.5459,3.5295,3.5145,3.4876,3.4352,3.4279,3.4098,3.3589,3.3365,3.3199,3.2986,3.2836,3.2426,3.1567,3.144,0.0,0.0,3.0336,3.0204,3.0204,2.9472,2.9288,0.0,0.0,0.0,0.0,3.0231,3.0002,2.8938,2.9365,2.9654,2.9792,3.052,3.0871,3.0871,3.0871,3.0482,2.9792,2.9792,2.9792,2.9792,2.9792,2.9792,2.9792,2.9792,2.9792,2.9792,2.9792,2.9792,2.9792,2.9792,2.9792,2.9792,3.5504,3.5504,3.5504,3.5504,3.5504,3.5504,3.5504,3.5504,3.5504,3.5504,3.5504,3.5504,3.5504,3.5504,3.5504,3.5504,3.5504,3.5504,3.5504,3.5504,3.5504,3.5504,3.5504,3.5504,3.5504,3.5504,3.5504,3.5504,3.5504,3.5504,3.5504,3.5504,3.5504,3.5504,3.5504,3.5504,3.5504,3.5504,3.5504,3.5504,3.5504,3.5504,3.5504,3.5504,3.5504,3.5504,3.5504,3.5504,3.5504,3.5504,3.5504,3.5504,3.5504,3.5504,3.5504,3.5504,3.5504,3.5504,3.5504,3.5504,3.5504,3.5504,3.5504,3.5504,3.5504,3.5504,3.54,3.5026,3.4951,3.4846,3.4472,3.4158,3.3948,3.3948,3.3694,3.3331,3.2851,3.2443,0.0,3.2141,3.1476,3.1132,3.1509,3.0945,3.0766,3.1314,0.0,0.0,3.1357,3.1266,3.0615,2.9327,3.0037,3.0457,3.0457,3.1365,3.1852,3.1852,3.1852,3.1573,3.1095,3.1095,3.0846,3.0457,3.0457,3.0216,2.9792,2.9792,2.9792,2.9792,2.9792,2.9792,2.9792,2.9792,2.9792,2.9792,3.5504,3.5504,3.5504,3.5504,3.5504,3.5504,3.5504,3.5504,3.5504,3.5504,3.5504,3.5504,3.5504,3.5504,3.5504,3.5504,3.5504,3.5504,3.5504,3.5504,3.5504,3.5504,3.5504,3.5504,3.5504,3.5504,3.5504,3.5504,3.5504,3.5504,3.5504,3.5504,3.5504,3.5504,3.5504,3.5504,3.5504,3.5504,3.5504,3.5504,3.5504,3.5504,3.5504,3.5504,3.5504,3.5504,3.5504,3.5504,3.5504,3.5504,3.5504,3.5504,3.5504,3.5504,3.5504,3.5504,3.5504,3.5504,3.5504,3.5504,3.5504,3.5504,3.5504,3.5504,3.5504,3.5504,3.5504,3.5504,3.5504,3.5504,3.5504,3.5026,3.4668,3.4668,3.4158,3.3799,3.3799,0.0,3.2986,3.3722,3.254,3.1957,3.2637,3.2358,3.2193,3.2364,3.1891,3.196,3.2784,3.2069,3.118,3.0254,3.1007,3.1499,3.1609,3.2429,3.282,3.282,3.282,3.2749,3.2593,3.2593,3.2105,3.1217,3.1217,3.0658,2.9792,2.9934,2.9998,2.9998,2.9998,2.9998,2.9998,2.9856,2.9792,2.9792,3.5504,3.5504,3.5504,3.5504,3.5504,3.5504,3.5504,3.5504,3.5504,3.5504,3.5504,3.5504,3.5504,3.5504,3.5504,3.5504,3.5504,3.5504,3.5504,3.5504,3.5504,3.5504,3.5504,3.5504,3.5504,3.5504,3.5504,3.5504,3.5504,3.5504,3.5504,3.5504,3.5504,3.5504,3.5504,3.5504,3.5504,3.5504,3.5504,3.5504,3.5504,3.5504,3.5504,3.5504,3.5504,3.5504,3.5504,3.5504,3.5504,3.5504,3.5504,3.5504,3.5504,3.5504,3.5504,3.5504,3.5504,3.5504,3.5504,3.5504,3.5504,3.5504,3.5504,3.5504,3.5504,3.5504,3.5504,3.5504,3.5504,3.5504,3.5504,3.5415,3.534,3.534,3.5265,3.519,3.519,0.0,3.5046,3.5158,3.4949,3.4836,3.4981,3.4191,3.3999,3.4838,3.41,3.3636,3.3774,3.3636,3.3136,3.2177,3.2321,3.2749,3.3567,3.3705,3.3774,3.3774,3.3774,3.338,3.2593,3.2593,3.2105,3.1217,3.1217,3.0658,2.9856,3.0658,3.097,3.097,3.097,3.097,3.0908,3.0113,2.9792,2.9792,3.5504,3.5504,3.5504,3.5504,3.5504,3.5504,3.5504,3.5504,3.5504,3.5504,3.5504,3.5504,3.5504,3.5504,3.5504,3.5504,3.5504,3.5504,3.5504,3.5504,3.5504,3.5504,3.5504,3.5504,3.5504,3.5504,3.5504,3.5504,3.5504,3.5504,3.5504,3.5504,3.5504,3.5504,3.5504,3.5504,3.5504,3.5504,3.5504,3.5504,3.5504,3.5504,3.5504,3.5504,3.5504,3.5504,3.5504,3.5504,3.5504,3.5504,3.5504,3.5504,3.5504,3.5504,3.5504,3.5504,3.5504,3.5504,3.5504,3.5504,3.5504,3.5504,3.5504,3.5504,3.5504,3.5504,3.5504,3.5504,3.5504,3.5504,3.5504,3.5504,3.5504,3.5504,3.5504,0.0,0.0,3.5504,3.5504,3.5504,3.5504,3.5504,3.5504,3.51,3.4986,3.5472,3.4576,3.4245,3.4758,3.4279,3.4041,3.4158,3.3636,3.3822,3.4806,3.4806,3.4806,3.4806,3.4806,3.4591,3.4158,3.4158,3.365,3.2713,3.2713,3.2177,3.1341,3.1792,3.196,3.196,3.196,3.1633,3.1143,3.0733,3.0241,2.9792,3.5504,3.5504,3.5504,3.5504,3.5504,3.5504,3.5504,3.5504,3.5504,3.5504,3.5504,3.5504,3.5504,3.5504,3.5504,3.5504,3.5504,3.5504,3.5504,3.5504,3.5504,3.5504,3.5504,3.5504,3.5504,3.5504,3.5504,3.5504,3.5504,3.5504,3.5504,3.5504,3.5504,3.5504,3.5504,3.5504,3.5504,3.5504,3.5504,3.5504,3.5504,3.5504,3.5504,3.5504,3.5504,3.5504,3.5504,3.5504,3.5504,3.5504,3.5504,3.5504,3.5504,3.5504,3.5504,3.5504,3.5504,3.5504,3.5504,3.5504,3.5504,3.5504,3.5504,3.5504,3.5504,3.5504,3.5504,3.5504,3.5504,3.5504,3.5504,3.5504,3.5504,3.5504,0.0,0.0,0.0,3.5504,3.5504,3.5504,3.5504,3.5504,3.5504,3.5504,3.5504,3.5504,3.4758,3.4691,3.5472,3.4758,3.4691,3.5472,3.4758,3.4725,3.5504,3.5504,3.5504,3.5504,3.5504,3.5504,3.5504,3.5504,3.4953,3.3993,3.3993,3.3449,3.2629,3.2855,3.2925,3.289,3.2713,3.2177,3.1499,3.1278,3.072,3.0139,3.5504,3.5504,3.5504,3.5504,3.5504,3.5504,3.5504,3.5504,3.5504,3.5504,3.5504,3.5504,3.5504,3.5504,3.5504,3.5504,3.5504,3.5504,3.5504,3.5504,3.5504,3.5504,3.5504,3.5504,3.5504,3.5504,3.5504,3.5504,3.5504,3.5504,3.5504,3.5504,3.5504,3.5504,3.5504,3.5504,3.5504,3.5504,3.5504,3.5504,3.5504,3.5504,3.5504,3.5504,3.5504,3.5504,3.5504,3.5504,3.5504,3.5504,3.5504,3.5504,3.5504,3.5504,3.5504,3.5504,3.5504,3.5504,3.5504,3.5504,3.5504,3.5504,3.5504,3.5504,3.5504,3.5504,3.5504,3.5504,3.5504,3.5504,3.5504,3.5504,3.5504,3.5504,0.0,0.0,3.5504,3.5504,3.5504,3.5504,3.5504,3.5504,3.5504,3.5504,3.5504,3.5504,3.5424,3.5424,3.5504,3.5439,3.5424,3.5504,3.5439,3.5439,3.5504,3.5504,3.5504,3.5504,3.5504,3.5504,3.5504,3.5504,3.4953,3.3993,3.3993,3.3449,3.2664,3.3518,3.391,3.3808,3.2961,3.2558,3.2393,3.1536,3.1143,3.1106,3.5504,3.5504,3.5504,3.5504,3.5504,3.5504,3.5504,3.5504,3.5504,3.5504,3.5504,3.5504,3.5504,3.5504,3.5504,3.5504,3.5504,3.5504,3.5504,3.5504,3.5504,3.5504,3.5504,3.5504,3.5504,3.5504,3.5504,3.5504,3.5504,3.5504,3.5504,3.5504,3.5504,3.5504,3.5504,3.5504,3.5504,3.5504,3.5504,3.5504,3.5504,3.5504,3.5504,3.5504,3.5504,3.5504,3.5504,3.5504,3.5504,3.5504,3.5504,3.5504,3.5504,3.5504,3.5504,3.5504,3.5504,3.5504,3.5504,3.5504,3.5504,3.5504,3.5504,3.5504,3.5504,3.5504,3.5504,3.5504,3.5504,3.5504,3.5504,3.5504,3.5504,3.5504,0.0,3.5504,3.5504,3.5504,3.5504,3.5504,3.5504,3.5504,3.5504,3.5504,3.5504,3.5504,3.5504,3.5504,3.5504,3.5504,3.5504,3.5504,3.5504,3.5504,3.5504,3.5504,3.5504,3.5504,3.5504,3.5504,3.5504,3.5504,3.5279,3.4953,3.4953,3.4739,3.4423,3.4773,3.4953,3.4872,3.4558,3.4007,3.3415,3.3066,3.2558,3.2069,3.5504,3.5504,3.5504,3.5504,3.5504,3.5504,3.5504,3.5504,3.5504,3.5504,3.5504,3.5504,3.5504,3.5504,3.5504,3.5504,3.5504,3.5504,3.5504,3.5504,3.5504,3.5504,3.5504,3.5504,3.5504,3.5504,3.5504,3.5504,3.5504,3.5504,3.5504,3.5504,3.5504,3.5504,3.5504,3.5504,3.5504,3.5504,3.5504,3.5504,3.5504,3.5504,3.5504,3.5504,3.5504,3.5504,3.5504,3.5504,3.5504,3.5504,3.5504,3.5504,3.5504,3.5504,3.5504,3.5504,3.5504,3.5504,3.5504,3.5504,3.5504,3.5504,3.5504,3.5504,3.5504,3.5504,3.5504,3.5504,3.5504,3.5504,3.5504,3.5504,3.5504,3.5504,3.5504,3.5504,3.5504,3.5504,3.5504,3.5504,3.5504,3.5504,3.5504,3.5504,3.5504,3.5504,3.5504,3.5504,3.5504,3.5504,3.5504,3.5504,3.5504,3.5504,3.5504,3.5504,3.5504,3.5504,3.5504,3.5504,3.5504,3.5504,3.5504,3.5504,3.5504,3.5504,3.5504,3.5504,3.5504,3.5472,3.5166,3.461,3.3993,3.3993,3.3602,3.3031,3.5504,3.5504,3.5504,3.5504,3.5504,3.5504,3.5504,3.5504,3.5504,3.5504,3.5504,3.5504,3.5504,3.5504,3.5504,3.5504,3.5504,3.5504,3.5504,3.5504,3.5504,3.5504,3.5504,3.5504,3.5504,3.5504,3.5504,3.5504,3.5504,3.5504,3.5504,3.5504,3.5504,3.5504,3.5504,3.5504,3.5504,3.5504,3.5504,3.5504,3.5504,3.5504,3.5504,3.5504,3.5504,3.5504,3.5504,3.5504,3.5504,3.5504,3.5504,3.5504,3.5504,3.5504,3.5504,3.5504,3.5504,3.5504,3.5504,3.5504,3.5504,3.5504,3.5504,3.5504,3.5504,3.5504,3.5504,3.5504,3.5504,3.5504,3.5504,3.5504,3.5504,3.5504,3.5504,3.5504,3.5504,3.5504,3.5504,3.5504,3.5504,3.5504,3.5504,3.5504,3.5504,3.5504,3.5504,3.5504,3.5504,3.5504,3.5504,3.5504,3.5504,3.5504,3.5504,3.5504,3.5504,3.5504,3.5504,3.5504,3.5504,3.5504,3.5504,3.5504,3.5504,3.5504,3.5504,3.5504,3.5504,3.5392,3.4394,3.4027,3.4027,3.4027,3.4027,3.4027,3.5504,3.5504,3.5504,3.5504,3.5504,3.5504,3.5504,3.5504,3.5504,3.5504,3.5504,3.5504,3.5504,3.5504,3.5504,3.5504,3.5504,3.5504,3.5504,3.5504,3.5504,3.5504,3.5504,3.5504,3.5504,3.5504,3.5504,3.5504,3.5504,3.5504,3.5504,3.5504,3.5504,3.5504,3.5504,3.5504,3.5504,3.5504,3.5504,3.5504,3.5504,3.5504,3.5504,3.5504,3.5504,3.5504,3.5504,3.5504,3.5504,3.5504,3.5504,3.5504,3.5504,3.5504,3.5504,3.5504,3.5504,3.5504,3.5504,3.5504,3.5504,3.5504,3.5504,3.5504,3.5504,3.5504,3.5504,3.5504,3.5504,3.5504,3.5504,3.5504,3.5504,3.5504,3.5504,3.5504,3.5504,3.5504,3.5504,3.5504,3.5504,3.5504,3.5504,3.5504,3.5504,3.5504,3.5504,3.5504,3.5504,3.5504,3.5504,3.5504,3.5504,3.5504,3.5504,3.5504,3.5504,3.5504,3.5504,3.5504,3.5504,3.5504,3.5504,3.5504,3.5504,3.5504,3.5504,3.5504,3.5504,3.5472,3.5166,3.5052,3.5052,3.5052,3.5052,3.5052,3.6252,3.6252,3.6193,3.5938,3.5893,3.5804,3.5549,3.5504,3.5504,3.5504,3.5504,3.5504,3.5504,3.5504,3.5504,3.5504,3.5504,3.5504,3.5504,3.5504,3.5504,3.5504,3.5504,3.5504,3.5504,3.5504,3.5504,3.5504,3.5504,3.5504,3.5504,3.5774,3.5893,3.5908,3.6148,3.6252,3.6252,3.6252,3.6252,3.6252,3.6252,3.6252,3.6252,3.6252,3.6252,3.6252,3.6252,3.6252,3.6252,3.6252,3.6252,3.6222,3.5968,3.5893,3.5833,3.5579,3.5504,3.5504,3.5504,3.5504,3.5504,3.5504,3.5504,3.5504,3.5504,3.5504,3.5504,3.5504,3.5504,3.5504,3.5504,3.5504,3.5504,3.5504,3.5504,3.5504,3.5504,3.5504,3.5504,3.5504,3.5504,3.5504,3.5504,3.5504,3.5504,3.5504,3.5504,3.5504,3.5504,3.5504,3.5504,3.5504,3.5504,3.5504,3.5504,3.5504,3.5504,3.5504,3.5504,3.5504,3.5504,3.5504,3.5504,3.5504,3.5504,3.5504,3.5504,3.5504,3.5504,3.5504,3.5504,3.5504,3.5504,3.5504,3.5504,3.5504,3.7404,3.7404,3.724,3.6671,3.6567,3.6372,3.5774,3.5669,3.5669,3.5669,3.5669,3.5669,3.5669,3.5624,3.5594,3.5594,3.5594,3.5609,3.5669,3.5669,3.5669,3.5669,3.5669,3.5669,3.5669,3.5624,3.5594,3.5594,3.5654,3.5669,3.5684,3.6282,3.6567,3.6596,3.715,3.7404,3.7404,3.7404,3.7404,3.7404,3.7404,3.7404,3.7404,3.7404,3.7404,3.7404,3.7404,3.7404,3.7404,3.7404,3.7404,3.73,3.6746,3.6567,3.6447,3.5848,3.5669,3.5669,3.5669,3.5639,3.5594,3.5594,3.5549,3.5504,3.5504,3.5504,3.5504,3.5504,3.5504,3.5504,3.5504,3.5504,3.5504,3.5504,3.5504,3.5504,3.5504,3.5504,3.5504,3.5504,3.5504,3.5504,3.5504,3.5504,3.5504,3.5504,3.5504,3.5504,3.5504,3.5504,3.5534,3.5594,3.5594,3.5624,3.5669,3.5669,3.5609,3.5504,3.5564,3.5594,3.5594,3.5654,3.5669,3.5669,3.5669,3.5669,3.5669,3.5669,3.5669,3.5669,3.5669,3.5639,3.5594,3.5594,3.5549,3.5504,3.7404,3.7404,3.736,3.724,3.721,3.7165,3.7015,3.7,3.7,3.7,3.7,3.7,3.7,3.6567,3.6267,3.6267,3.6267,3.6477,3.6971,3.7,3.7,3.7,3.7,3.7,3.7,3.6522,3.6267,3.6267,3.6761,3.7,3.7,3.715,3.721,3.721,3.7345,3.7404,3.7404,3.7404,3.7404,3.7404,3.7404,3.7404,3.7404,3.7404,3.7404,3.7404,3.7404,3.7404,3.7404,3.7404,3.7404,3.7389,3.7255,3.721,3.718,3.7045,3.7,3.7,3.7,3.6641,3.6267,3.6267,3.5893,3.5504,3.5504,3.5504,3.5504,3.5504,3.5504,3.5504,3.5504,3.5504,3.5504,3.5504,3.5504,3.5504,3.5504,3.5504,3.5504,3.5504,3.5504,3.5504,3.5504,3.5504,3.5504,3.5504,3.5504,3.5504,3.5504,3.5504,3.5744,3.6252,3.6267,3.6507,3.6985,3.7,3.6492,3.5519,3.6028,3.6267,3.6297,3.6776,3.7,3.7,3.7,3.7,3.7,3.7,3.7,3.7,3.7,3.6701,3.6267,3.6267,3.5953,3.5504,3.8362,3.8362,3.8257,3.7928,3.7883,3.7778,3.7464,3.7404,3.7404,3.7404,3.7404,3.7404,3.7404,3.712,3.6926,3.6926,3.6926,3.706,3.7389,3.7404,3.7404,3.7404,3.7404,3.7404,3.7404,3.7404,3.724,3.6926,3.7255,3.7404,3.7419,3.7734,3.7883,3.7883,3.8212,3.8362,3.8362,3.8362,3.8362,3.8362,3.8362,3.8362,3.8362,3.8362,3.8362,3.8362,3.8362,3.8362,3.8362,3.8362,3.8362,3.8317,3.7973,3.7883,3.7808,3.7494,3.7404,3.7404,3.7404,3.718,3.6926,3.6926,3.6671,3.6252,3.5654,3.5504,3.5504,3.5504,3.5504,3.5504,3.5504,3.5504,3.5504,3.5504,3.5504,3.5504,3.5504,3.5504,3.5504,3.5504,3.5504,3.5504,3.5504,3.5504,3.5504,3.5504,3.5804,3.5968,3.5968,3.6252,3.6567,3.6911,3.6926,3.709,3.7404,3.7404,3.7075,3.6417,3.6761,3.6926,3.6941,3.727,3.7404,3.7404,3.7404,3.7404,3.7404,3.7404,3.7404,3.7404,3.7404,3.721,3.6926,3.6926,3.6522,3.5923,3.9388,3.9388,3.923,3.8661,3.8556,3.8377,3.7838,3.7749,3.7749,3.7749,3.7749,3.7749,3.7749,3.7644,3.7584,3.7584,3.7584,3.7629,3.7734,3.7749,3.7749,3.7749,3.7749,3.7749,3.7749,3.8287,3.8242,3.7584,3.7704,3.7749,3.7764,3.8317,3.8556,3.8601,3.917,3.9388,3.9388,3.9388,3.9388,3.9388,3.9388,3.9388,3.9388,3.9388,3.9388,3.9388,3.9388,3.9388,3.9388,3.9388,3.9388,3.932,3.8751,3.8556,3.8452,3.7913,3.7749,3.7749,3.7749,3.7674,3.7584,3.7584,3.7494,3.7135,3.6073,3.5744,3.5669,3.5669,3.5579,3.5504,3.5504,3.5504,3.5504,3.5504,3.5504,3.5504,3.5504,3.5504,3.5504,3.5504,3.5504,3.5504,3.5504,3.5609,3.5669,3.5669,3.6267,3.6641,3.6641,3.7135,3.7464,3.7569,3.7584,3.7644,3.7749,3.7749,3.7749,3.7749,3.7749,3.7689,3.7584,3.7704,3.7749,3.7749,3.7749,3.7749,3.7749,3.7749,3.7749,3.7749,3.7749,3.7674,3.7569,3.7449,3.7015,3.6417,3.9388,3.9388,3.9394,3.929,3.9239,3.9245,3.9119,3.9155,3.9155,3.9155,3.9155,3.9155,3.9155,3.8616,3.8257,3.8257,3.8257,3.8512,3.9074,3.9155,3.9155,3.9155,3.9155,3.9155,3.9155,3.923,3.8945,3.8257,3.8856,3.9155,3.9155,3.923,3.9239,3.929,3.9379,3.9388,3.9388,3.9388,3.9388,3.9388,3.9388,3.9388,3.9388,3.9388,3.9388,3.9388,3.9388,3.9388,3.9388,3.9388,3.9388,3.9373,3.9305,3.9239,3.926,3.917,3.9155,3.9155,3.9155,3.8721,3.8257,3.8257,3.7823,3.736,3.7195,3.6731,3.6357,3.6357,3.5893,3.5504,3.5504,3.5504,3.5504,3.5504,3.5504,3.5504,3.5504,3.5504,3.5504,3.5504,3.5504,3.5504,3.5504,3.6013,3.6357,3.6357,3.6926,3.7285,3.7285,3.736,3.7674,3.8242,3.8257,3.8542,3.914,3.9155,3.9155,3.9155,3.9155,3.8841,3.8272,3.8871,3.9155,3.9155,3.9155,3.9155,3.9155,3.9155,3.9155,3.9155,3.9155,3.8781,3.8182,3.7614,3.7015,3.6477,3.9388,3.9388,3.9388,3.9388,3.9388,3.9388,3.9388,3.9388,3.9388,3.9388,3.9388,3.9388,3.9388,3.9155,3.896,3.896,3.896,3.9095,3.9394,3.9388,3.9388,3.9388,3.9388,3.9388,3.9388,3.9388,3.9275,3.896,3.9275,3.9388,3.9388,3.9388,3.9388,3.9388,3.9388,3.9388,3.9388,3.9388,3.9388,3.9388,3.9388,3.9388,3.9388,3.9388,3.9388,3.9388,3.9388,3.9388,3.9388,3.9388,3.9388,3.9388,3.9388,3.9388,3.9388,3.9388,3.9388,3.9388,3.9388,3.92,3.896,3.896,3.8751,3.8527,3.8527,3.8018,3.7449,3.7075,3.6776,3.6462,3.6118,3.6058,3.5938,3.5564,3.5504,3.5504,3.5504,3.5504,3.5504,3.5504,3.5833,3.6058,3.6058,3.6626,3.7,3.7,3.7599,3.7958,3.7958,3.8317,3.8661,3.896,3.896,3.911,3.9388,3.9388,3.9388,3.9388,3.9388,3.926,3.8975,3.929,3.9388,3.9388,3.9388,3.9388,3.9388,3.9388,3.9388,3.9388,3.9388,3.923,3.8886,3.8212,3.7778,3.7494]}]]